GFSCGP_500_spd_000.txt.gz
Wind_Speed
31 26 22 20 21 21 20 20 17 23 22 21 18 15 13 12 11 11 7 8 10 9 6 6 7 9 10 11 12 12 11 10 10 9 8 5 5 5 5 7 5 7 8 10
40 30 27 29 25 24 26 25 21 21 27 25 21 20 18 14 11 11 10 6 6 6 7 7 7 7 10 12 13 13 12 13 12 12 11 9 7 6 6 7 7 8 10 13
41 35 35 34 32 31 30 29 25 24 29 28 26 25 22 18 17 14 12 10 8 7 9 9 9 9 9 11 13 14 14 14 13 13 11 9 9 8 9 10 11 13 16 21
45 45 43 37 35 33 35 30 28 28 32 30 30 21 21 20 18 17 14 10 9 9 10 11 11 13 13 13 13 14 14 14 15 13 12 13 13 13 13 14 16 19 23 22
43 47 43 45 37 36 33 31 38 31 32 30 31 29 24 27 23 16 14 13 10 8 7 12 12 11 12 14 14 15 16 17 17 16 17 17 18 18 20 21 22 25 24 22
38 46 49 47 45 40 37 38 40 39 33 38 32 33 26 23 16 17 20 20 18 14 12 12 13 10 15 18 18 18 18 20 19 18 19 21 21 21 23 25 23 22 21 21
37 44 48 52 52 48 45 42 38 38 38 35 34 37 32 25 22 21 20 24 22 22 21 17 14 14 8 12 21 23 23 21 20 20 21 20 19 22 20 21 21 21 20 21
35 43 44 54 57 53 49 48 41 38 35 32 34 36 28 26 28 24 24 27 24 26 20 15 14 13 11 13 15 18 18 20 21 21 22 21 24 18 18 20 22 23 22 24
35 38 44 53 58 58 55 58 44 34 33 33 29 35 31 25 29 27 21 26 27 26 23 12 14 13 15 16 14 16 18 20 19 21 24 24 20 17 18 17 18 20 21 24
35 37 41 50 57 59 64 55 54 47 43 39 33 28 22 25 25 24 23 22 23 24 16 15 16 16 16 10 11 15 16 18 19 19 16 15 11 12 14 18 20 22 24 23
31 36 36 47 56 59 63 64 63 48 46 41 38 35 28 26 31 27 21 26 24 22 18 19 19 23 22 18 12 14 14 16 15 13 9 8 13 16 17 16 15 28 33 33
30 33 36 41 48 55 49 60 57 59 59 47 45 36 26 29 33 30 25 21 28 29 27 24 22 26 27 21 13 13 15 13 12 10 9 12 13 13 15 21 29 25 35 38
30 33 31 37 38 50 55 55 52 56 49 52 47 42 32 27 32 32 24 26 23 21 28 26 25 20 20 20 14 13 12 11 11 10 11 14 15 18 22 30 29 29 33 35
38 32 36 33 34 37 52 64 60 53 63 59 56 40 35 34 45 33 29 25 23 21 21 24 23 25 22 21 19 17 16 14 15 15 17 18 20 21 25 28 33 35 38 41
40 38 32 35 36 30 38 43 57 70 67 60 53 51 48 43 44 36 33 30 27 23 28 23 28 23 24 22 21 19 19 20 21 22 21 19 24 24 25 30 34 39 41 43
42 38 38 35 33 34 36 40 44 47 72 69 60 56 41 44 52 47 32 30 29 27 29 26 28 31 27 27 25 27 25 24 25 22 20 25 26 31 33 35 39 41 45 47
46 41 42 31 24 30 37 39 39 48 49 56 64 68 67 54 47 42 37 32 26 27 31 26 29 34 33 29 28 30 28 24 23 23 23 26 31 36 38 39 45 44 48 45
46 45 44 36 36 33 32 31 35 39 47 52 56 47 50 53 52 44 38 33 29 31 29 32 36 31 29 32 35 34 29 26 30 29 32 34 38 41 44 44 46 48 46 51
51 47 42 45 37 32 28 25 30 35 40 41 47 49 48 52 53 47 35 36 32 34 30 36 32 30 32 35 36 36 33 31 35 35 37 38 39 45 49 51 52 57 64 46
54 52 52 40 42 38 36 30 35 36 48 49 42 53 49 52 49 38 42 37 36 32 32 35 35 34 35 37 38 37 36 34 34 36 39 41 46 51 54 59 51 57 55 52
54 53 54 47 48 46 47 38 37 30 39 38 49 46 47 48 44 42 44 37 39 37 33 32 30 39 38 39 41 45 39 40 39 39 43 46 52 55 58 52 43 52 51 47
53 50 53 52 53 43 41 34 35 29 32 36 39 45 39 40 38 46 40 37 40 39 39 38 35 33 44 47 48 45 45 41 42 44 45 51 54 59 58 55 48 53 53 51
48 50 46 47 48 51 47 37 34 28 31 32 29 34 38 37 38 42 37 37 39 40 39 38 39 39 43 48 46 43 46 44 42 41 46 50 54 61 56 53 54 50 45 39
48 44 44 39 39 38 37 42 47 36 34 33 34 33 36 37 38 38 37 38 38 41 42 39 39 41 43 47 52 39 45 43 42 41 45 48 53 46 55 56 51 45 43 37
49 39 38 36 33 33 29 34 37 40 34 36 36 38 39 40 40 47 50 47 44 45 44 42 42 43 46 50 47 41 44 47 47 49 50 49 48 53 47 43 46 45 43 40
37 39 36 32 29 29 37 40 40 43 37 38 43 47 44 42 45 47 56 52 43 47 44 42 41 45 45 46 45 46 49 51 51 50 47 48 45 42 43 45 44 44 43 42

GFSCGP_500_spd_003.txt.gz
Wind_Speed
30 31 26 25 26 23 18 17 18 16 23 25 20 18 15 14 13 12 11 10 9 9 9 9 10 10 10 11 11 11 10 9 9 9 8 6 4 5 5 6 6 5 7 9
36 34 29 28 30 28 24 23 20 15 30 22 20 17 17 18 13 12 14 13 10 8 8 8 9 11 13 13 13 13 12 10 11 10 9 9 8 8 7 8 9 9 9 12
33 32 33 34 35 34 30 27 23 21 28 18 22 19 22 26 17 15 15 14 13 12 9 9 9 11 12 13 15 15 13 12 12 12 10 10 9 9 10 11 12 12 14 17
28 33 39 40 37 34 33 29 25 24 33 27 25 21 27 24 24 20 18 16 14 13 12 12 13 13 14 15 14 14 14 14 14 13 13 14 12 13 14 15 17 18 19 22
22 29 37 43 40 38 35 28 28 27 30 30 24 27 24 24 23 26 21 17 16 18 19 17 15 15 13 14 15 16 15 16 17 16 15 15 15 17 18 20 22 23 25 24
24 26 33 39 43 43 32 31 30 30 31 35 32 32 29 34 23 29 25 23 23 22 21 21 21 14 13 15 16 18 18 19 20 19 18 18 18 19 22 24 24 23 23 24
25 26 28 37 45 45 44 37 34 36 37 40 30 37 34 26 29 25 23 24 27 25 24 23 22 19 17 13 15 18 19 19 21 20 20 20 20 21 21 23 22 23 25 27
32 31 30 31 39 45 51 46 42 40 34 34 32 37 35 32 27 23 24 22 25 32 27 23 18 19 18 17 16 15 16 21 21 22 22 20 21 20 22 21 23 25 25 25
35 34 30 30 35 46 47 55 43 35 30 32 30 31 31 25 32 33 32 26 26 36 24 23 16 15 11 13 15 15 17 18 20 22 22 20 21 22 20 19 18 19 21 22
36 35 33 32 35 41 51 43 48 48 44 38 33 31 27 31 33 30 30 26 26 27 25 26 22 18 12 12 10 10 12 18 19 22 20 21 20 19 17 16 19 19 16 27
36 38 31 31 38 38 47 57 47 45 45 43 38 33 31 26 22 26 26 20 24 26 22 21 16 14 16 18 15 13 16 17 18 19 19 18 17 15 15 13 14 16 19 21
41 38 41 36 33 35 39 44 54 47 51 47 42 36 27 30 26 27 29 25 19 25 27 22 22 21 18 19 18 21 18 16 18 19 21 20 16 13 12 16 19 19 17 22
39 41 38 38 32 36 42 42 47 54 44 50 48 45 33 25 28 28 29 31 21 23 25 28 28 30 24 17 17 19 18 16 17 21 19 17 15 15 18 20 19 17 22 21
44 36 41 37 36 30 33 40 44 47 57 53 52 41 35 35 37 34 37 28 30 30 33 31 29 30 28 21 20 20 18 19 17 18 18 18 16 17 19 17 19 24 21 28
46 44 37 40 33 25 32 34 40 48 49 55 48 44 42 40 37 33 31 41 36 31 35 28 30 26 25 23 24 23 20 22 22 19 17 17 14 16 20 21 25 30 28 33
47 44 38 39 31 34 31 32 37 38 47 51 50 49 43 43 37 33 35 41 43 32 30 34 31 31 27 28 26 25 24 25 25 19 18 18 16 18 23 27 31 36 38 40
48 41 37 38 34 31 34 39 37 38 40 42 52 55 46 47 46 46 48 47 45 35 32 34 33 27 30 30 31 32 30 28 27 22 18 22 21 27 30 33 36 41 44 47
44 46 40 36 32 35 39 32 32 36 38 39 42 39 39 49 57 49 40 41 40 38 36 34 31 28 34 32 33 35 35 33 27 27 27 28 29 32 35 38 41 44 48 50
58 54 43 36 37 36 34 28 34 37 38 37 37 39 35 35 36 49 59 55 41 46 30 38 32 32 33 35 33 34 36 34 33 33 35 30 31 35 40 42 43 48 53 57
57 53 47 35 41 41 31 40 28 36 45 41 40 33 37 34 28 35 40 52 52 43 39 41 35 34 37 34 34 35 37 35 33 32 32 33 35 38 41 44 45 50 59 60
59 57 55 50 38 33 41 40 33 37 31 31 39 41 35 39 34 38 43 40 42 40 46 43 38 35 39 38 37 35 36 36 37 39 40 39 40 45 45 45 49 52 58 62
57 58 56 45 42 41 42 40 39 40 38 34 31 29 44 37 47 52 43 41 39 39 49 47 42 39 38 40 40 40 40 42 43 45 46 44 47 49 47 49 49 53 53 61
54 58 52 35 36 45 47 46 36 33 33 28 27 34 40 40 43 38 35 34 36 40 46 49 46 40 37 34 30 36 44 47 47 46 46 49 48 48 50 52 54 56 56 54
48 41 42 39 48 49 48 40 35 34 32 30 33 34 35 34 35 39 39 37 35 43 48 50 48 47 44 42 41 38 39 47 51 52 50 46 45 50 54 54 57 52 51 53
38 50 45 58 60 53 51 39 29 31 33 33 34 36 34 35 41 39 37 39 37 42 47 43 45 46 48 48 48 48 49 48 47 51 50 50 54 54 56 55 54 47 48 46
31 43 30 37 49 47 39 33 30 30 34 39 40 34 38 34 36 40 42 40 39 35 39 41 42 47 49 50 50 49 48 47 46 51 47 53 55 59 55 56 48 43 46 46

GFSCGP_500_spd_006.txt.gz
Wind_Speed
27 29 25 24 23 19 19 16 15 20 24 19 22 27 28 18 7 13 11 9 8 10 11 11 10 11 11 10 9 7 6 5 5 6 5 4 2 3 4 3 3 4 5 9
27 31 25 25 26 26 24 24 22 17 23 22 19 25 23 15 15 16 14 13 12 10 10 9 10 10 11 11 10 10 9 8 7 6 5 6 6 5 5 6 6 8 10 12
21 20 29 30 30 29 28 28 22 19 22 20 18 21 18 23 24 20 17 16 14 13 13 12 10 10 11 11 13 13 11 10 10 9 8 8 7 6 7 9 10 12 14 16
19 21 29 35 35 31 30 30 26 23 29 30 28 32 26 22 24 18 21 17 16 14 14 13 12 12 12 14 14 14 15 14 14 12 12 11 10 10 10 12 14 16 18 20
16 21 26 31 38 34 31 26 30 27 27 30 26 31 24 28 32 27 19 18 19 20 17 17 16 16 16 15 16 17 16 15 16 15 15 14 13 14 14 16 17 20 20 20
21 21 24 26 33 37 33 31 29 31 29 36 32 37 27 30 26 29 37 26 21 21 19 19 20 21 21 21 17 16 17 18 18 18 18 17 18 17 17 18 18 18 19 20
22 22 23 25 34 35 40 35 36 35 38 39 27 37 30 28 31 36 36 36 16 26 26 22 23 22 20 18 19 17 18 18 20 20 20 21 21 19 19 19 18 20 18 16
31 30 27 26 28 37 37 40 45 42 38 33 30 38 33 31 36 42 26 13 27 29 29 24 23 21 13 17 17 20 18 19 23 23 23 22 21 21 19 17 18 15 12 11
35 35 29 29 29 35 35 44 41 38 33 34 30 31 27 32 33 34 22 20 28 23 32 33 22 21 19 16 13 15 18 21 20 22 24 23 22 21 19 17 12 9 8 10
35 33 31 30 31 33 38 30 41 48 46 44 35 34 31 27 34 40 28 30 29 27 38 38 28 23 19 15 11 9 10 11 15 19 21 23 22 20 17 9 6 9 10 9
40 40 35 32 43 36 38 42 44 39 49 48 42 39 27 25 32 36 40 33 31 28 35 39 27 28 21 18 14 12 10 16 18 17 20 23 24 19 9 5 4 13 11 11
43 39 45 41 33 34 38 39 43 52 49 51 47 43 24 24 27 34 39 36 33 33 34 36 24 25 24 18 13 10 11 16 19 18 18 18 18 12 7 5 9 6 9 10
39 45 41 44 40 35 42 40 39 47 50 47 52 53 38 26 31 22 29 20 20 28 36 36 30 28 24 20 17 15 13 18 18 17 13 7 6 3 5 8 5 5 8 11
46 44 49 50 47 35 37 41 40 43 47 57 51 43 42 37 38 32 26 23 37 39 25 29 23 25 26 26 19 20 18 20 19 13 8 2 1 2 5 5 3 6 6 13
49 55 46 46 40 30 35 36 40 43 45 50 52 47 37 49 37 30 40 34 35 39 31 32 30 29 28 31 27 24 24 24 20 15 9 4 4 7 9 6 12 17 18 22
54 58 54 47 39 40 34 35 38 39 43 42 51 45 46 40 49 39 36 34 40 41 45 42 29 32 33 34 30 26 26 26 23 19 12 12 8 11 12 15 16 20 24 27
45 56 58 57 47 35 40 45 35 36 36 38 39 54 45 49 42 48 39 31 31 35 38 49 47 40 37 37 36 31 29 28 27 24 17 17 12 10 15 17 20 23 27 31
51 56 54 53 38 42 53 36 36 36 34 33 35 38 46 51 57 55 56 40 42 36 43 40 49 51 42 40 39 35 33 30 28 28 24 21 21 19 22 23 26 30 32 34
46 50 52 47 41 45 39 32 33 37 42 39 35 37 35 38 56 64 63 55 52 51 39 50 51 48 51 39 36 37 34 28 30 29 25 22 22 29 29 29 30 35 36 38
55 52 53 50 50 50 42 36 47 50 46 45 47 45 43 39 38 43 64 66 60 55 52 50 51 42 45 36 36 32 34 32 33 28 26 26 26 28 30 32 35 36 40 44
60 56 61 57 54 47 38 45 43 46 42 41 43 44 46 49 45 38 37 35 51 70 53 59 40 38 40 34 36 33 34 31 29 30 27 29 29 32 34 34 35 38 43 48
62 62 62 51 43 41 46 41 24 43 45 37 40 42 49 50 46 38 43 44 43 44 65 62 46 49 37 39 38 36 35 32 33 32 33 31 33 37 39 39 33 41 47 51
67 65 60 54 55 40 35 50 47 49 45 39 38 37 37 41 52 58 55 53 53 46 53 68 61 57 48 46 44 39 40 37 35 39 37 38 40 42 46 43 42 43 45 55
61 49 42 45 47 39 54 52 49 45 45 44 44 45 45 42 45 48 51 49 56 44 47 48 46 49 52 49 46 39 39 39 41 41 41 43 43 43 45 47 52 54 54 57
58 45 38 34 46 55 51 54 55 53 41 40 38 35 42 40 43 43 52 57 49 53 52 47 48 46 50 49 45 46 40 38 38 39 44 47 50 50 52 51 53 53 56 58
49 49 46 45 52 55 54 52 48 40 38 34 33 38 40 38 37 34 41 43 42 42 41 38 39 37 43 46 48 48 46 46 50 50 50 52 53 53 53 52 54 58 57 59

GFSCGP_500_spd_009.txt.gz
Wind_Speed
24 27 21 17 16 13 19 22 18 9 15 21 23 22 15 19 22 23 14 5 4 6 8 9 8 9 8 8 7 6 4 3 2 2 1 1 2 2 4 4 3 4 5 7
17 20 23 22 22 22 21 22 22 20 22 27 26 22 13 12 15 17 16 5 6 6 7 8 9 9 9 8 8 7 5 4 4 4 3 2 3 3 3 2 2 5 8 11
15 11 22 26 27 25 27 22 24 25 19 22 24 21 23 15 25 20 13 5 3 8 9 10 11 11 10 9 10 8 7 8 7 7 6 5 6 6 4 3 5 8 11 14
18 17 23 27 31 28 27 24 27 28 23 23 23 21 20 27 29 21 4 6 7 5 10 10 9 10 10 11 10 10 11 11 12 10 11 9 9 10 7 4 6 8 12 14
15 21 20 23 29 32 23 28 34 33 28 25 23 30 23 25 29 18 19 10 11 9 11 9 12 13 13 12 14 14 13 12 15 14 14 12 12 11 10 9 7 9 10 11
22 24 24 20 24 32 27 31 37 38 31 35 31 29 30 28 26 28 21 10 19 15 13 12 10 13 15 17 17 16 16 16 16 17 16 16 16 14 13 11 10 9 12 10
24 27 25 24 25 29 31 38 39 47 46 46 35 34 33 14 23 30 28 23 25 22 15 10 14 17 19 16 16 15 16 18 19 19 18 19 18 15 15 13 10 9 8 8
32 33 28 24 27 28 32 38 47 47 49 46 41 41 32 17 15 23 31 35 29 34 26 11 12 13 18 18 16 16 18 20 19 19 22 21 20 15 15 12 10 7 8 5
36 35 28 31 25 30 30 38 31 43 45 43 44 40 26 25 23 27 31 23 32 26 32 13 10 16 16 19 18 17 17 18 20 20 22 21 22 18 17 13 8 5 4 5
37 40 36 32 31 34 37 30 35 39 46 50 42 45 38 23 24 32 32 28 32 31 28 26 10 18 28 21 20 19 14 11 12 16 18 18 18 17 14 10 6 5 6 11
39 42 39 40 42 39 36 40 43 37 41 43 45 45 31 26 19 29 30 32 36 41 30 30 19 26 24 22 23 23 15 12 12 13 11 12 15 12 9 8 6 5 6 4
41 41 46 46 43 42 39 40 40 47 41 46 45 41 32 28 26 30 32 34 33 36 30 27 22 30 25 23 20 22 14 13 13 14 10 9 7 5 9 8 6 5 6 5
37 48 45 48 49 50 47 41 42 43 44 45 44 37 35 39 36 29 36 34 30 24 28 32 32 35 30 23 18 21 16 15 16 13 9 3 6 10 12 10 8 7 7 8
52 52 57 56 54 50 53 48 42 44 48 44 48 40 32 42 43 36 32 31 30 28 32 37 39 37 35 31 25 24 21 18 16 10 8 8 13 15 15 11 11 10 7 9
64 63 59 60 52 47 52 48 43 46 45 47 40 46 40 40 45 38 31 26 27 29 32 36 39 39 30 26 23 23 23 23 21 15 10 12 14 16 15 14 12 12 13 16
63 64 59 62 58 51 51 49 43 42 40 42 41 42 45 45 41 37 32 37 39 38 38 36 40 44 39 37 37 36 26 22 24 22 13 17 14 15 15 13 14 14 11 13
70 68 63 70 62 52 50 59 51 40 38 36 44 40 39 49 50 49 36 37 40 37 35 43 43 47 45 45 40 41 33 27 24 25 20 16 18 16 17 16 14 12 15 18
75 67 64 69 63 57 59 54 50 45 41 40 40 37 36 40 52 58 46 41 52 46 47 42 42 44 48 50 50 39 40 32 29 31 28 24 19 20 26 22 20 22 23 22
74 62 61 64 66 65 60 55 49 45 44 41 44 41 40 34 48 59 63 51 51 56 43 41 45 50 46 45 50 47 47 39 36 35 33 30 22 21 26 27 29 29 27 27
70 57 49 60 59 66 63 50 48 52 49 47 50 49 44 43 42 46 60 66 60 58 60 53 45 46 46 37 46 46 43 40 39 36 33 31 25 24 24 25 29 28 32 36
57 51 50 54 56 60 64 54 45 49 53 56 57 55 53 50 44 45 49 69 70 72 68 58 59 52 51 44 50 51 45 45 35 35 37 35 31 26 21 22 30 30 29 34
66 61 51 42 46 53 57 50 55 57 57 57 54 49 48 50 49 48 45 42 49 72 77 74 67 55 48 49 55 45 35 41 38 35 41 38 33 24 22 31 33 31 37 40
59 58 50 52 51 53 58 51 53 62 61 57 52 54 50 48 46 42 41 39 44 47 51 57 82 73 61 55 57 57 46 40 40 37 38 35 30 30 32 34 34 38 47 40
71 62 50 63 64 47 56 56 65 61 55 51 45 53 40 40 43 42 43 44 45 50 52 51 46 56 67 66 57 54 51 45 44 42 40 34 38 36 35 37 41 45 46 47
63 64 49 54 65 48 34 46 60 60 65 40 46 39 39 46 46 50 46 45 45 45 56 62 56 55 55 49 62 62 56 52 47 45 46 46 43 37 38 40 44 45 49 50
54 60 54 55 42 39 50 66 31 44 33 51 52 43 40 41 43 44 46 47 49 55 57 61 60 59 54 53 50 58 65 64 52 51 45 44 40 38 42 43 46 50 51 51

GFSCGP_500_spd_012.txt.gz
Wind_Speed
18 25 23 18 15 17 23 21 17 21 24 21 17 17 20 18 9 10 10 8 9 2 7 8 10 11 13 12 9 7 6 5 4 5 4 3 5 5 3 2 1 4 5 7
14 12 19 23 21 20 22 23 22 26 22 19 18 21 23 19 11 9 5 6 8 5 3 5 9 11 12 10 8 7 5 4 4 3 3 3 5 5 5 3 2 2 4 7
11 7 17 24 26 24 26 24 24 27 22 22 21 29 31 20 16 10 3 6 8 6 5 4 5 8 8 9 9 8 7 5 4 4 5 4 4 4 4 3 2 2 4 7
18 17 20 21 28 29 27 20 27 30 27 28 27 30 29 26 16 16 3 1 7 10 9 3 3 4 4 5 5 6 8 9 8 6 6 6 5 6 6 5 4 5 7 7
12 23 22 20 19 28 20 29 29 33 29 32 29 32 20 25 20 11 5 7 10 9 11 6 2 2 1 4 6 7 7 6 8 9 10 8 10 9 8 9 9 10 9 12
23 24 24 20 22 26 22 34 35 38 37 46 37 33 24 29 17 10 11 12 10 9 10 2 4 6 3 5 8 9 11 11 10 9 12 13 13 11 11 11 12 12 12 15
27 25 24 26 27 28 28 38 40 44 51 50 40 40 25 26 22 14 16 10 12 17 15 11 10 10 11 9 10 12 15 16 16 13 12 14 16 14 15 14 13 14 16 12
35 30 27 26 26 26 32 36 44 48 49 45 44 48 30 22 19 14 10 12 16 18 26 18 17 15 11 10 10 14 16 17 18 17 14 14 17 18 17 14 14 16 16 6
37 37 29 32 25 31 30 42 35 43 44 51 42 50 35 28 24 20 14 20 20 18 13 10 15 17 12 6 8 11 17 17 15 16 16 16 16 18 18 16 17 18 12 4
41 40 34 34 35 38 38 31 39 42 45 49 46 50 39 32 27 21 18 22 21 22 21 15 15 14 14 5 6 11 17 16 14 11 12 14 19 20 17 18 19 18 9 5
42 45 37 41 47 40 39 41 41 42 41 40 35 34 38 32 31 24 26 22 19 25 19 18 17 17 21 19 10 10 16 16 15 11 11 11 15 16 16 20 20 16 9 8
52 43 50 49 44 44 47 44 42 44 40 38 34 26 14 35 36 29 27 25 17 20 22 23 19 20 24 14 14 12 17 17 17 16 13 10 12 15 19 22 20 16 11 7
61 62 54 56 56 55 57 50 46 45 44 45 44 31 21 29 40 39 35 29 25 29 31 27 23 22 23 18 14 15 18 15 15 17 14 11 11 16 22 22 19 14 11 10
65 68 68 66 56 54 57 53 51 50 52 47 43 42 22 30 45 40 35 32 32 37 43 32 30 26 26 26 23 19 20 19 18 18 13 11 11 17 23 23 20 16 11 10
73 74 73 71 64 53 56 55 55 55 52 54 39 44 36 26 47 45 37 34 28 21 42 28 31 28 33 33 26 17 20 22 21 22 16 13 17 20 24 24 21 20 17 14
75 78 77 76 70 64 59 60 60 57 54 52 48 45 38 32 38 52 51 41 31 25 32 28 26 27 31 29 27 21 20 17 21 23 22 20 22 22 23 23 24 22 21 17
80 82 79 76 70 61 56 67 65 61 58 54 53 44 37 40 34 50 55 52 43 34 38 36 31 33 36 31 30 30 31 24 28 27 23 21 23 25 25 25 29 27 27 23
86 80 79 77 68 66 71 63 63 63 59 55 56 48 41 39 38 43 53 55 51 52 43 38 43 37 41 38 38 35 35 38 33 30 26 24 22 25 27 27 31 28 27 25
80 74 75 79 75 71 69 68 61 62 58 52 56 55 50 42 39 38 49 58 56 51 52 50 49 37 41 47 43 46 44 38 34 33 33 27 28 31 29 28 32 35 35 33
86 74 65 53 73 73 74 68 61 53 59 57 58 57 53 45 43 46 41 51 59 60 57 48 50 52 45 46 49 47 45 39 41 37 36 35 32 36 35 33 33 38 38 37
83 78 62 58 53 65 77 72 54 52 58 62 60 56 53 50 44 42 38 36 50 57 63 65 59 57 60 52 47 48 46 46 49 39 34 35 36 39 39 38 34 37 42 43
75 76 64 66 44 53 63 62 63 55 53 59 59 56 52 50 46 41 36 38 41 45 50 64 67 70 66 63 65 62 55 47 50 49 44 44 40 44 44 41 37 41 43 43
61 69 72 53 35 55 60 57 51 59 53 58 60 58 56 54 52 48 46 39 39 41 51 61 64 69 73 63 59 64 64 56 50 50 43 45 43 42 46 47 45 45 44 45
51 60 68 64 44 46 67 69 56 66 62 61 62 60 60 57 55 53 51 43 45 45 46 51 58 68 77 76 70 64 63 58 54 49 47 46 44 45 44 52 50 48 49 47
41 41 62 66 51 45 69 68 65 65 66 64 62 62 59 57 56 55 48 48 52 52 55 56 52 52 56 59 62 60 68 66 61 65 48 48 49 48 47 53 56 57 54 45
39 38 38 61 50 49 58 66 70 61 59 66 63 56 56 59 52 48 46 49 54 56 54 52 55 52 55 61 65 53 53 62 64 60 55 52 52 50 54 61 64 49 35 30

GFSCGP_500_spd_015.txt.gz
Wind_Speed
18 21 21 20 18 21 20 24 26 23 24 22 17 12 5 4 6 3 1 4 4 1 7 11 11 14 14 11 10 10 10 9 9 9 8 8 10 11 6 4 4 4 4 1
15 8 16 23 22 22 27 24 26 23 30 27 24 20 9 8 7 8 3 3 2 4 5 10 10 10 12 14 12 10 9 8 8 7 6 7 8 6 5 6 4 1 1 3
15 10 16 22 25 25 25 23 27 22 33 33 30 23 16 11 14 9 8 4 3 7 8 8 8 11 12 11 10 10 10 8 7 6 6 5 6 6 5 4 4 3 4 6
20 19 21 20 24 26 28 20 30 30 37 37 35 29 22 13 10 10 10 10 4 3 11 11 11 9 12 12 11 10 10 8 5 6 6 6 6 7 6 7 6 6 6 9
17 22 23 22 14 24 20 28 31 36 41 40 40 38 28 19 15 11 13 16 9 2 2 9 15 16 14 11 11 10 8 7 5 5 6 6 9 9 8 8 9 9 8 13
27 28 27 24 23 22 23 34 35 41 44 51 40 39 30 25 14 14 20 12 11 10 6 3 6 10 12 10 9 8 9 8 7 8 8 9 11 11 12 12 11 12 13 15
30 27 27 25 27 27 30 41 44 48 54 41 40 42 22 27 17 19 18 11 11 10 7 6 5 14 13 13 10 8 8 7 8 10 10 11 13 12 14 15 15 15 17 15
39 36 31 29 27 28 28 36 46 43 45 40 40 45 24 26 21 25 18 16 17 13 5 6 7 12 19 19 15 11 11 10 8 10 14 15 16 14 16 17 18 18 17 13
39 37 32 35 31 35 33 40 32 45 44 47 42 38 31 33 30 28 23 23 19 17 11 4 5 10 22 19 13 9 7 7 7 8 14 18 17 16 16 19 19 19 17 14
46 45 39 36 40 43 40 30 38 45 47 46 37 35 30 32 32 27 30 23 15 15 12 10 8 5 16 11 10 8 12 8 9 9 11 15 19 20 19 20 21 21 19 16
54 54 43 44 51 43 40 43 43 43 45 41 34 29 30 27 32 30 28 24 22 19 15 11 10 10 12 16 15 13 13 11 8 10 14 13 16 15 17 20 25 23 18 18
59 61 55 54 46 42 47 45 47 49 40 36 36 34 22 23 29 31 32 32 29 25 22 19 16 17 17 16 13 16 14 12 10 14 16 17 15 15 16 21 27 23 19 22
65 65 60 57 56 58 58 54 51 45 44 46 42 31 21 20 23 37 40 38 36 30 27 27 28 27 23 18 14 16 17 12 15 16 16 17 15 17 18 23 26 22 22 22
72 71 67 64 60 58 60 59 54 50 55 44 44 34 20 25 28 34 45 44 39 36 34 36 30 30 30 23 17 19 15 16 18 17 17 14 16 17 20 22 25 23 25 23
79 77 75 70 67 66 64 62 56 58 54 55 38 42 32 25 29 29 42 46 47 43 38 41 31 35 34 24 24 25 22 18 21 19 10 12 15 17 20 20 24 26 25 24
84 82 80 78 74 69 71 68 63 61 57 56 48 49 37 26 34 35 39 49 51 46 43 45 40 27 25 30 26 26 29 22 22 22 12 18 20 20 23 22 25 28 26 28
86 86 85 84 79 76 74 70 67 62 61 59 56 46 40 36 36 38 37 39 45 50 47 45 44 30 29 19 23 28 25 25 24 23 21 20 25 23 23 26 27 27 27 29
88 89 88 87 81 81 72 67 67 66 65 62 60 52 49 42 37 37 41 44 49 51 51 45 43 41 39 32 29 30 31 30 32 32 29 26 28 28 25 28 29 30 33 33
88 90 90 88 85 84 80 74 70 65 65 64 64 59 55 50 43 42 42 44 45 53 54 53 48 47 47 44 32 34 38 35 33 35 35 34 31 28 26 25 27 29 31 35
94 88 89 87 87 86 83 77 75 68 67 61 63 62 55 56 53 47 40 41 44 47 55 57 54 52 52 49 37 33 34 39 41 43 38 36 33 31 33 30 31 33 35 34
89 98 92 92 89 85 81 74 72 64 70 66 62 62 55 53 52 43 42 39 44 47 51 57 56 54 54 49 46 46 46 45 40 43 44 40 38 35 37 37 39 40 39 40
70 81 90 89 87 78 75 69 55 48 60 67 61 58 59 54 49 45 41 40 36 42 48 53 56 57 56 56 52 48 45 43 42 44 43 41 42 43 42 41 43 42 45 47
50 66 80 76 85 81 62 58 60 49 40 47 59 59 54 55 53 50 47 43 34 37 37 41 59 58 55 52 53 51 52 45 48 51 53 52 50 48 48 44 46 45 47 55
32 46 53 51 62 80 57 55 55 56 52 46 44 56 54 52 55 52 52 47 40 39 40 42 44 53 65 67 59 57 55 58 60 57 56 61 48 58 58 54 51 54 54 57
29 38 47 49 41 58 59 54 54 60 61 59 57 51 57 54 55 58 56 53 50 43 42 44 47 48 51 51 54 62 67 73 70 61 68 62 57 58 55 59 57 51 54 60
30 25 38 38 52 39 60 48 59 63 60 62 64 65 62 54 55 57 59 58 56 52 52 52 54 59 61 56 54 56 65 64 65 67 67 70 66 64 62 64 58 60 60 64

GFSCGP_500_spd_018.txt.gz
Wind_Speed
14 15 12 18 18 17 19 25 25 24 26 19 13 18 17 15 14 11 5 2 2 3 8 11 14 17 17 15 14 13 15 15 13 13 12 10 11 11 8 7 7 5 2 1
15 6 10 19 22 21 24 21 24 27 26 24 18 21 17 17 14 14 9 4 2 6 10 13 13 15 14 16 15 14 13 15 13 11 10 10 10 8 8 7 6 4 2 4
17 12 16 18 21 24 23 20 25 29 29 28 24 23 21 19 15 14 19 10 8 9 10 10 12 15 16 13 10 9 10 9 10 10 10 9 10 8 8 7 6 4 3 5
21 19 19 18 20 22 24 20 26 34 36 36 34 28 29 20 16 16 18 16 12 11 12 11 9 11 15 15 14 11 9 8 8 10 12 11 9 9 9 9 8 6 5 7
20 20 20 19 12 20 18 27 26 33 40 40 41 33 31 27 20 25 21 22 17 11 10 14 15 15 14 11 12 14 14 12 11 12 13 13 13 11 11 11 9 8 9 10
29 29 30 23 22 21 24 32 35 39 45 47 33 37 28 26 20 22 24 26 24 21 16 13 13 14 14 16 14 13 13 15 14 15 15 16 15 13 12 12 11 10 11 11
32 31 31 29 27 28 30 37 43 45 47 32 34 39 19 24 24 20 25 21 17 18 20 16 10 5 2 7 10 12 10 10 11 13 14 16 16 14 14 13 13 14 13 11
37 38 31 29 27 26 27 37 40 39 37 31 38 29 11 20 24 25 29 26 25 23 18 18 14 7 7 10 10 14 11 11 12 14 17 19 18 17 17 15 15 17 16 11
45 44 37 38 33 34 34 35 32 41 40 39 38 23 25 22 26 28 32 28 29 24 21 16 15 9 9 10 8 10 12 9 12 12 15 18 20 19 18 19 18 18 18 14
50 47 42 37 42 44 39 31 38 44 44 38 35 26 24 17 25 30 30 28 29 28 27 24 20 12 9 13 13 13 10 9 7 11 11 13 17 20 20 20 20 20 20 16
55 52 48 47 51 44 41 42 44 44 43 41 36 23 21 18 19 30 30 29 31 32 30 28 25 20 14 19 21 18 15 12 11 12 11 11 13 16 19 21 22 24 23 18
59 58 55 53 52 48 46 46 46 47 39 38 34 24 18 17 21 28 32 33 33 33 31 29 27 26 25 21 22 19 18 17 13 15 16 14 14 14 15 18 20 27 26 21
64 64 59 56 56 57 58 53 51 47 45 45 39 23 24 15 16 23 32 33 31 32 31 28 29 29 30 24 24 21 21 19 16 17 17 16 16 13 16 19 19 24 25 23
69 68 64 63 60 60 60 57 56 54 55 45 44 27 17 22 19 23 33 38 39 37 36 33 31 29 32 28 26 23 21 21 22 17 16 15 14 13 17 21 20 21 23 25
75 72 69 66 62 63 62 61 59 60 56 55 42 36 27 20 22 25 29 39 45 44 43 40 35 37 36 30 26 29 25 22 24 20 15 11 15 14 12 16 20 20 19 24
80 77 75 71 69 66 64 64 62 60 59 59 49 45 35 25 26 32 31 30 35 42 43 42 40 39 39 35 35 26 28 26 22 22 15 16 19 16 16 18 21 22 20 21
86 84 80 77 75 74 71 64 64 63 63 59 53 48 40 33 30 33 37 36 32 32 38 41 44 40 36 36 33 31 32 24 23 22 21 20 18 19 19 23 27 25 23 25
91 90 88 84 80 80 73 69 67 68 66 64 57 51 48 41 35 36 36 41 39 36 36 38 41 35 33 35 34 26 24 30 29 29 28 27 26 25 26 26 29 30 26 24
91 93 92 90 87 83 81 76 69 72 68 68 63 57 52 50 46 40 40 41 45 42 38 43 49 45 41 38 33 33 34 28 25 32 33 33 31 29 31 26 27 29 27 23
94 91 94 94 93 89 86 80 76 74 72 63 65 60 55 54 53 45 43 45 45 43 45 45 49 51 44 42 38 38 38 36 29 33 34 34 33 32 37 33 27 29 30 29
88 94 96 95 97 96 91 86 82 79 74 68 65 61 57 55 53 48 47 45 45 42 42 47 46 51 54 52 48 46 43 42 30 33 36 35 36 37 45 39 35 32 36 38
73 86 95 97 98 101 93 88 85 82 77 73 69 61 55 56 54 50 47 47 43 40 40 45 46 47 48 49 51 46 44 45 44 41 40 40 39 38 51 43 40 42 36 40
54 73 80 94 102 94 90 87 84 82 77 75 70 67 61 55 54 51 44 45 40 40 42 39 43 48 48 50 50 51 51 52 49 46 45 47 46 46 47 47 49 42 42 51
33 46 60 75 95 94 96 82 82 78 72 71 59 56 64 61 54 50 45 45 47 45 41 40 42 43 45 50 54 53 55 54 51 50 48 50 51 53 54 49 56 52 47 53
25 31 37 50 66 78 86 88 73 55 63 38 37 39 36 45 46 43 46 42 48 48 43 38 41 43 45 44 43 45 51 57 57 53 51 55 55 58 58 59 62 62 53 57
32 28 31 31 38 51 61 69 77 63 53 44 44 41 38 35 40 39 39 41 44 46 47 45 41 43 46 48 48 48 48 48 47 48 52 62 70 72 71 71 68 65 63 63

GFSCGP_500_spd_021.txt.gz
Wind_Speed
13 11 5 14 20 18 17 24 27 30 33 28 20 23 24 21 19 15 13 10 8 9 10 13 17 19 19 20 18 18 16 15 13 15 15 14 13 11 10 9 9 7 4 1
17 5 11 18 23 23 23 23 28 33 33 31 31 26 27 19 17 15 17 15 9 12 12 15 18 18 18 20 20 19 18 17 15 13 12 13 13 12 11 10 8 4 1 4
19 16 17 19 22 26 25 22 28 32 35 30 27 30 31 23 23 19 12 18 19 16 15 16 19 22 21 20 18 19 19 17 15 14 11 11 12 13 12 10 8 5 2 4
25 23 21 19 17 22 24 20 27 33 35 36 30 32 36 31 28 23 13 16 20 19 16 16 18 20 21 21 22 19 16 15 13 12 13 12 11 11 11 11 9 6 4 3
21 22 21 20 12 18 19 26 26 31 36 38 34 32 37 36 31 21 16 22 19 20 20 19 20 20 20 19 17 18 19 17 15 14 15 13 11 12 12 13 13 10 7 6
34 31 32 23 25 23 25 32 33 35 38 42 31 33 36 37 25 22 21 24 22 20 20 20 23 24 22 21 20 18 16 17 17 18 17 16 17 15 14 15 15 12 11 9
37 36 31 33 30 30 29 36 38 39 40 31 31 40 17 32 30 23 25 24 27 24 24 22 16 14 13 14 16 17 17 15 14 14 14 16 17 18 18 18 18 17 16 15
41 42 34 30 30 29 30 33 34 35 30 39 34 14 10 28 32 28 29 26 28 30 28 25 24 22 18 15 14 11 11 13 14 15 16 17 17 18 19 20 21 21 20 18
46 46 39 37 32 35 34 32 27 38 37 36 27 16 11 18 31 32 29 30 31 28 26 26 25 23 22 20 15 12 14 16 15 16 20 21 21 21 20 22 23 22 22 20
49 50 46 41 41 43 39 33 37 38 38 35 25 20 11 14 20 27 31 30 32 27 27 25 24 22 19 16 17 16 17 15 17 15 16 18 18 21 23 22 22 23 24 22
54 53 52 49 49 48 43 42 40 39 39 34 26 17 12 13 19 27 35 32 32 30 28 28 26 23 22 19 21 18 18 18 15 14 15 15 14 15 17 20 24 25 27 25
57 54 53 53 51 47 45 44 43 45 36 31 31 28 18 13 19 26 34 36 34 32 36 33 32 30 27 25 25 23 22 20 15 19 18 16 17 14 12 13 17 22 27 28
61 61 57 54 56 54 53 52 52 48 47 45 37 26 19 12 16 21 33 41 39 38 40 39 36 34 30 27 24 28 27 25 21 22 21 21 19 18 14 14 15 16 21 24
67 65 61 59 58 56 55 55 54 50 53 43 39 31 19 23 17 21 27 38 42 41 41 41 40 39 34 30 31 29 29 29 27 22 21 20 17 16 16 18 16 14 16 19
70 69 67 64 63 62 61 59 58 57 53 52 38 37 31 23 24 23 27 36 42 44 43 44 44 40 37 34 29 29 29 29 26 22 19 17 16 20 17 15 15 15 14 16
77 74 72 70 67 66 65 62 63 60 56 53 44 43 34 28 27 28 30 33 40 45 48 47 46 44 39 39 32 29 28 22 29 26 22 19 19 20 17 16 16 16 15 16
80 79 77 74 72 70 70 65 63 60 58 55 48 44 36 34 29 28 31 30 33 41 46 48 46 43 42 41 37 31 33 27 29 35 33 24 23 20 20 22 20 20 20 22
83 82 80 78 76 76 71 70 67 65 61 59 53 49 41 38 35 34 36 36 35 34 33 33 41 44 41 41 35 39 34 34 30 36 32 27 26 26 24 25 24 23 27 27
85 84 83 82 80 77 76 73 71 67 62 62 58 52 47 43 40 36 39 40 41 41 38 36 33 31 35 34 31 34 37 35 31 30 32 29 28 30 32 29 28 29 31 29
90 88 87 87 84 83 76 73 73 70 67 64 60 55 50 46 48 37 39 42 41 42 40 38 36 34 34 33 32 31 33 34 32 30 24 28 35 36 35 34 33 34 35 33
85 94 93 89 90 88 82 78 76 73 70 65 64 60 55 50 49 47 41 42 41 40 42 41 39 38 38 35 35 34 34 32 32 35 39 35 34 35 35 37 43 35 36 43
72 86 95 96 96 94 85 80 79 76 73 68 64 61 58 55 52 46 48 45 43 43 43 45 41 39 37 36 38 39 39 42 42 43 42 40 38 35 38 39 42 47 46 44
57 72 83 96 101 95 92 86 81 79 75 70 67 63 58 53 52 49 50 48 46 40 41 44 44 40 37 36 36 38 40 41 44 46 44 43 41 37 41 43 46 46 45 53
37 48 69 82 95 96 98 93 90 84 78 74 70 66 64 60 56 52 50 49 49 46 42 39 43 43 41 40 39 37 41 42 44 46 46 46 46 46 45 47 52 50 55 49
21 33 47 64 74 85 92 94 94 88 83 77 72 69 64 59 59 56 55 50 47 47 48 44 40 40 40 41 42 39 38 42 47 50 53 54 56 57 49 55 54 60 56 58
11 19 35 44 54 70 73 89 94 89 85 81 76 74 65 55 53 48 41 45 50 50 48 48 46 43 36 40 40 41 39 41 41 43 52 56 56 57 58 60 64 64 67 67

GFSCGP_500_spd_024.txt.gz
Wind_Speed
17 19 14 17 24 23 24 28 27 29 33 27 29 30 26 22 21 17 14 14 15 14 15 16 18 22 22 21 19 21 19 17 17 18 18 17 16 14 12 10 9 7 4 4
20 11 16 23 29 28 25 22 28 32 36 33 32 32 29 26 23 20 19 18 18 19 17 17 19 21 22 23 22 22 21 17 16 15 16 14 12 12 11 10 9 7 4 5
21 22 24 25 28 32 32 30 33 36 39 37 36 34 32 27 25 23 21 20 19 17 21 20 21 22 23 24 23 24 23 21 17 15 13 13 12 14 14 12 9 6 4 5
30 29 27 26 26 27 31 29 32 38 42 40 41 39 36 29 30 28 23 16 17 18 20 22 22 21 22 25 25 25 25 22 19 15 13 15 16 15 13 12 11 8 5 1
29 29 25 25 19 23 24 33 36 34 40 38 41 41 40 37 38 32 26 16 19 19 23 24 23 24 24 23 24 23 22 20 18 18 19 16 14 15 15 16 14 12 9 6
36 34 35 28 31 26 31 37 37 37 35 45 34 34 37 41 40 35 31 23 21 20 24 24 25 27 25 23 22 21 20 21 21 20 18 17 17 16 16 16 16 14 12 10
41 40 37 38 37 34 35 38 39 40 42 35 32 35 25 47 39 37 31 25 25 24 26 25 24 25 25 23 23 22 21 20 20 20 18 17 17 17 17 17 17 16 16 14
44 44 40 37 38 35 36 37 35 39 37 34 29 22 20 30 39 37 34 29 29 29 28 27 25 26 25 24 22 21 19 19 19 20 19 19 18 17 18 17 18 19 19 17
49 45 44 40 37 37 35 36 27 37 36 32 21 21 22 18 35 42 37 32 28 28 30 27 26 28 28 27 23 20 19 19 18 19 20 20 21 20 19 20 21 21 19 19
54 50 49 44 41 42 42 30 41 39 36 29 25 20 16 16 28 40 39 33 27 25 25 29 30 29 27 25 25 25 24 21 20 23 22 22 22 21 21 21 19 20 21 21
57 53 53 51 51 48 48 47 43 36 32 29 24 18 18 18 23 34 37 31 28 26 24 27 30 29 26 25 26 24 23 23 22 19 17 17 19 19 19 20 21 21 24 22
54 56 58 54 51 52 47 42 41 41 35 31 24 18 18 17 23 32 38 34 34 32 31 30 32 31 29 26 24 25 23 23 19 18 18 16 18 17 16 16 17 20 22 25
62 58 56 56 57 58 55 49 49 45 38 35 32 29 23 17 20 29 39 43 41 33 33 32 37 34 31 29 27 24 22 22 22 22 20 19 19 17 14 15 17 15 15 17
62 62 60 57 50 53 56 54 54 50 46 42 39 36 24 19 21 30 36 43 44 39 37 35 38 34 36 34 31 29 25 25 27 28 25 21 21 18 15 16 18 14 12 11
68 64 64 62 64 61 59 58 56 55 49 47 41 38 35 25 24 24 34 38 44 44 45 45 44 45 42 41 36 32 29 29 30 30 26 21 23 22 20 16 17 13 10 8
71 70 69 65 62 63 64 61 61 56 52 48 43 40 37 33 25 25 29 36 41 48 50 47 47 47 47 43 42 37 32 31 30 28 19 24 24 23 23 21 19 18 13 11
75 75 73 68 65 64 68 64 62 57 54 50 43 41 35 34 29 27 29 37 41 48 50 53 50 45 42 44 42 41 37 36 30 23 27 26 25 21 23 22 23 23 20 18
79 76 75 73 74 71 66 65 65 60 54 51 49 48 42 40 36 34 33 35 38 39 45 44 46 47 45 43 42 43 42 39 36 30 24 25 29 32 30 26 24 25 24 22
81 79 77 76 78 69 72 72 70 66 62 59 55 52 48 45 41 35 33 32 35 38 38 39 41 33 33 38 43 46 47 43 42 35 28 27 29 28 30 32 29 28 28 28
79 82 80 79 78 77 71 73 75 74 65 61 60 53 50 47 43 35 31 37 39 41 39 38 37 34 31 32 38 44 40 32 38 39 31 32 30 31 32 37 35 34 36 33
83 83 84 82 83 80 78 81 78 73 62 67 63 59 56 50 47 42 42 36 36 40 41 40 39 36 34 32 32 31 33 31 33 37 37 35 36 33 31 34 33 37 40 41
78 90 86 86 87 87 83 81 79 74 76 68 68 63 59 54 51 47 45 40 38 38 40 41 42 40 37 36 36 33 31 32 33 34 33 34 36 39 36 36 33 36 40 39
62 79 88 89 94 88 87 84 82 77 79 70 67 60 60 58 54 51 47 44 42 40 39 39 42 40 38 38 37 36 37 36 35 36 38 38 40 40 40 39 40 40 42 43
49 60 80 90 92 94 89 84 84 82 77 75 71 65 60 54 52 52 49 46 46 44 38 41 40 40 41 41 38 38 37 38 39 39 41 41 41 41 41 42 42 42 41 41
28 44 59 77 87 91 93 91 87 83 82 77 74 69 64 60 57 53 51 48 45 45 40 38 35 37 38 37 36 38 39 39 40 41 40 41 42 44 45 43 46 48 48 49
17 24 42 56 65 80 87 90 89 85 84 78 75 71 63 59 57 56 53 51 49 46 42 42 40 39 38 35 36 33 33 36 39 41 42 44 45 46 48 50 52 52 55 55

GFSCGP_500_spd_027.txt.gz
Wind_Speed
23 24 23 27 29 28 31 29 30 23 24 24 31 24 25 19 19 16 14 13 14 15 16 18 21 21 21 20 20 21 20 20 18 19 18 17 15 13 10 8 7 5 4 3
27 19 21 26 31 33 31 31 29 28 26 30 27 26 24 20 25 20 18 16 17 17 17 18 19 20 22 22 21 21 21 21 21 20 19 17 15 13 10 9 8 6 5 3
26 24 24 28 32 36 36 32 28 29 28 27 31 29 27 24 24 24 21 19 18 18 18 18 20 23 23 22 21 22 22 22 22 19 18 17 15 15 15 12 9 8 7 4
32 32 30 29 32 34 35 33 34 31 31 31 33 31 32 28 26 27 25 23 19 20 20 20 20 22 23 25 25 23 24 24 20 17 16 17 17 16 13 12 11 10 9 5
34 34 32 34 26 28 26 36 38 38 36 31 31 33 25 27 28 28 28 25 21 23 21 21 22 25 26 25 24 23 24 22 20 18 18 17 15 14 14 15 15 11 8 5
39 37 38 30 31 31 30 36 41 41 43 45 39 36 33 31 27 27 28 28 24 24 24 23 26 25 24 23 24 22 21 22 22 21 19 18 18 17 16 16 15 12 9 9
43 42 36 39 38 38 37 37 41 45 46 45 36 39 33 30 31 31 30 29 29 28 27 28 27 25 25 21 21 22 23 22 22 20 18 18 19 18 17 17 15 14 13 12
48 48 44 42 43 41 39 38 39 43 42 35 34 35 33 31 30 32 29 30 31 32 26 28 26 25 27 25 23 22 22 22 20 19 19 19 19 17 17 17 17 17 15 13
50 48 42 45 40 42 41 41 30 24 23 24 25 25 23 29 32 32 34 36 32 32 26 28 26 27 28 28 26 23 23 21 19 18 19 18 17 17 18 19 19 19 17 15
48 35 50 45 47 46 45 33 39 41 28 25 24 21 24 20 23 30 34 37 34 32 24 29 28 28 28 27 27 26 24 21 22 20 19 18 17 18 20 19 19 20 19 17
59 40 35 52 55 49 46 47 42 36 36 23 17 13 18 26 16 30 34 37 36 32 24 28 28 29 29 29 28 25 23 23 21 20 20 20 19 18 19 18 20 22 22 19
58 66 52 50 50 49 44 47 43 41 36 33 19 15 26 23 22 28 35 41 41 36 29 24 25 30 32 29 28 26 25 24 23 23 22 18 18 15 13 14 14 15 17 18
60 67 60 41 43 52 56 51 47 39 34 34 32 17 30 23 19 29 32 40 43 39 34 26 28 30 31 31 30 28 27 23 23 23 21 19 16 15 14 14 15 14 13 13
68 65 64 53 49 46 54 55 50 45 46 35 33 26 35 26 23 30 33 40 46 45 43 38 35 30 31 30 29 28 25 24 24 23 25 21 17 15 16 17 17 15 13 13
67 62 60 55 31 35 46 53 53 53 46 43 26 30 27 32 19 32 37 37 43 46 40 37 34 34 31 29 30 31 30 28 26 24 24 21 19 19 19 19 20 17 12 12
69 67 60 65 45 52 53 43 51 50 50 44 38 27 28 30 23 25 38 39 38 44 43 39 38 37 37 37 37 34 32 31 27 24 21 23 21 21 20 22 23 22 17 13
73 68 66 67 67 64 65 61 52 43 48 48 49 40 30 36 38 30 29 32 40 39 46 43 40 39 38 38 39 37 37 35 29 28 21 21 22 20 20 23 24 23 20 18
73 73 72 70 68 64 62 56 58 54 48 49 47 48 52 48 33 25 30 31 33 36 44 45 44 44 43 41 42 43 43 39 36 33 28 24 24 22 22 22 26 26 24 21
72 71 71 69 64 56 63 60 58 60 56 50 49 46 46 44 40 33 28 27 30 35 41 45 50 49 50 49 44 39 37 38 38 36 33 33 30 27 24 20 26 25 29 24
70 71 74 72 63 44 27 46 67 67 61 59 55 49 51 51 49 39 39 39 39 42 41 41 41 40 43 43 47 46 41 37 38 40 42 38 38 34 29 23 24 25 29 31
59 69 73 73 69 52 40 40 62 64 44 58 61 60 58 56 51 46 42 36 38 38 38 36 35 33 32 33 36 38 39 38 39 45 46 46 45 42 35 32 30 29 28 30
57 66 70 73 72 62 41 55 52 54 67 64 66 63 60 59 51 44 45 40 38 39 42 42 39 37 35 32 31 30 31 36 39 40 41 38 36 40 39 36 35 33 32 34
46 56 62 67 75 72 65 61 68 80 69 67 70 64 60 57 53 48 46 43 39 41 41 42 39 40 39 35 32 31 33 34 33 32 32 34 35 37 37 35 34 38 39 38
52 65 70 78 80 81 80 83 85 80 78 78 65 60 62 58 56 52 46 45 44 43 40 40 41 40 39 39 38 35 34 33 35 36 35 35 36 36 38 38 41 43 43 42
47 61 70 82 82 86 89 89 87 83 80 76 72 69 63 59 56 50 49 48 46 45 43 42 41 40 41 39 37 37 38 36 36 37 36 38 39 41 41 43 43 44 45 47
30 41 58 68 76 85 86 85 85 81 79 78 74 72 67 63 60 54 51 46 42 45 47 46 43 41 43 42 43 40 39 38 38 39 39 39 41 43 44 46 48 48 48 49

GFSCGP_500_spd_030.txt.gz
Wind_Speed
30 31 27 28 34 32 30 27 31 21 19 24 16 19 24 28 35 18 17 16 14 11 10 14 17 18 20 19 18 19 18 17 17 18 17 15 12 9 9 8 7 6 5 5
36 28 23 26 33 37 35 28 27 23 21 22 23 24 26 32 20 6 20 18 13 13 10 12 13 17 18 21 20 20 21 20 20 20 18 14 12 10 8 8 7 6 6 6
32 25 28 27 30 36 37 34 29 26 24 25 27 23 27 35 19 22 24 24 22 12 9 11 11 14 18 19 19 20 22 23 22 21 18 15 13 12 11 8 8 8 7 7
35 33 34 32 32 32 36 35 34 32 28 30 30 29 32 32 23 31 27 28 28 10 10 13 14 14 18 21 20 19 21 23 23 21 18 17 17 13 9 10 11 10 7 5
37 36 38 36 29 33 31 33 37 37 32 32 32 33 30 30 34 32 30 32 20 15 12 15 17 18 19 20 19 18 19 20 21 20 19 18 17 13 11 12 12 11 7 4
39 39 40 34 33 32 25 29 34 38 34 42 40 34 30 34 27 26 28 21 17 18 19 14 21 20 17 20 20 20 19 20 20 20 18 17 16 14 13 13 11 10 8 6
46 45 42 38 37 33 34 33 36 39 48 48 37 42 37 25 29 29 30 29 25 25 25 15 20 19 19 19 19 20 19 19 20 20 17 16 15 13 12 11 10 10 9 8
48 50 46 45 43 37 41 38 39 44 44 37 36 35 29 32 28 23 18 28 26 29 24 14 16 20 21 22 20 22 22 20 20 20 17 15 14 13 13 12 11 11 11 11
52 50 43 45 44 44 44 44 32 30 22 25 28 25 22 29 40 33 32 30 31 30 28 25 16 20 23 22 19 19 21 19 19 19 18 16 16 13 13 14 14 14 13 13
55 37 46 40 43 45 46 35 38 38 30 24 18 22 18 24 36 43 39 35 33 32 32 24 13 20 22 23 23 22 21 19 19 19 18 15 13 13 12 12 13 15 16 16
59 49 35 36 49 50 47 45 40 35 34 23 16 17 20 21 21 30 30 37 38 37 35 30 14 20 23 25 24 24 22 20 18 16 16 15 15 14 13 12 13 15 15 15
61 61 47 36 42 43 48 46 43 42 38 34 21 16 22 25 24 24 32 34 39 36 34 34 18 21 25 26 24 24 22 20 20 21 19 18 14 13 10 10 10 10 10 10
57 69 56 42 35 39 49 50 48 38 35 37 33 18 24 25 22 22 25 32 29 32 34 35 28 20 22 25 25 24 23 22 23 21 18 16 16 11 9 10 10 9 8 9
68 70 68 60 52 40 47 45 44 42 40 36 36 23 28 26 30 31 28 31 34 36 38 36 35 24 22 22 24 25 24 24 22 18 16 16 16 13 12 12 11 11 11 10
67 65 71 55 41 29 43 45 45 47 40 40 26 31 29 32 25 34 35 32 31 32 36 36 38 30 25 27 26 26 27 25 24 22 19 17 18 16 15 13 13 13 12 10
70 64 68 63 52 43 42 38 41 42 43 32 31 23 33 35 27 26 36 33 35 39 45 49 46 37 29 23 25 28 28 27 27 22 19 18 16 11 11 14 14 14 14 11
69 68 74 69 60 50 44 43 40 40 41 38 41 29 32 34 33 29 33 39 38 34 34 35 41 39 33 28 24 30 29 28 25 23 21 16 12 9 11 13 13 10 13 13
70 74 72 64 61 51 44 47 45 37 40 39 40 38 18 20 27 34 36 40 39 36 33 31 33 35 32 30 28 29 32 32 28 24 21 19 16 13 15 16 15 14 15 18
72 73 72 68 64 58 45 59 51 46 35 33 37 48 43 42 42 46 41 29 30 34 37 37 34 34 35 36 35 38 37 33 30 26 24 25 24 22 20 19 20 20 17 19
68 70 70 67 57 51 43 36 56 48 49 48 53 53 63 59 55 55 35 35 39 37 35 32 32 35 38 37 38 40 36 31 29 26 30 35 30 29 29 29 27 27 24 20
58 65 66 60 65 45 47 35 48 52 57 63 63 62 64 69 65 50 39 38 35 35 36 34 32 32 32 25 23 26 26 24 21 33 35 34 35 34 35 37 36 34 32 29
48 53 64 62 54 48 43 49 47 55 58 70 69 67 64 61 58 54 50 40 39 37 35 36 36 35 34 32 28 25 25 28 28 33 32 36 39 38 40 40 41 42 38 36
32 45 49 62 60 43 36 51 57 58 62 57 66 69 64 61 61 59 46 35 40 41 41 38 36 35 33 32 29 25 26 27 29 34 38 40 40 41 43 44 41 40 37 36
35 34 56 57 69 56 45 48 54 62 62 67 72 68 64 63 59 45 43 46 47 45 41 39 39 39 39 33 34 32 29 28 29 29 31 31 30 35 40 40 40 42 37 37
35 47 53 69 65 76 59 58 64 58 59 66 67 69 64 59 54 55 54 49 47 43 40 40 40 42 38 34 34 34 32 33 34 32 31 32 33 33 35 38 39 40 41 42
59 62 65 64 71 76 82 75 81 80 69 73 71 67 55 51 54 53 49 50 51 46 43 45 43 43 42 40 37 36 34 34 36 35 35 34 36 37 37 39 40 42 44 45

GFSCGP_500_spd_033.txt.gz
Wind_Speed
34 37 32 26 30 33 33 31 29 26 25 25 12 11 21 29 26 22 18 8 3 5 7 5 4 11 14 16 16 17 17 18 18 18 16 13 11 9 8 6 6 6 7 7
40 34 27 26 28 35 37 34 31 23 24 21 17 18 33 32 26 30 19 11 5 8 3 5 3 10 14 17 18 19 19 19 20 19 17 14 11 10 9 8 7 7 7 7
35 24 33 33 31 34 38 37 30 23 25 20 16 17 36 41 27 31 35 16 16 11 7 2 1 8 17 19 18 18 21 21 22 20 17 15 13 11 10 8 7 7 8 8
35 34 38 36 34 31 33 34 33 26 34 30 31 37 33 31 32 28 26 29 18 3 12 2 2 8 15 19 19 18 21 22 22 20 18 16 14 11 9 10 9 7 8 7
36 36 39 39 30 31 26 33 36 34 39 35 35 34 27 34 33 29 30 19 17 14 18 7 7 9 12 17 17 16 20 22 20 20 19 16 13 11 12 12 10 9 7 4
43 37 40 38 34 37 28 34 38 41 42 50 43 40 38 37 29 29 31 24 14 4 8 9 11 10 11 16 15 14 15 17 20 19 17 16 13 12 13 12 11 11 8 4
51 46 42 42 39 41 36 35 36 42 52 50 45 47 42 33 29 26 28 28 24 10 5 8 8 11 11 16 17 17 16 15 17 18 16 15 14 13 12 11 10 10 8 6
53 52 51 46 45 42 37 34 38 41 46 44 45 45 36 36 31 26 28 33 29 32 9 4 7 10 12 15 18 17 17 19 18 17 17 15 13 13 12 11 11 10 9 9
57 54 43 46 44 43 40 45 36 34 34 37 40 39 33 28 33 36 32 38 34 32 15 7 9 10 13 15 17 18 19 21 20 19 17 15 14 12 12 11 10 10 11 13
56 48 48 40 43 44 47 34 40 39 37 33 27 24 13 28 34 41 36 41 29 26 20 20 10 8 10 16 18 18 18 20 20 19 18 16 15 13 12 12 12 11 11 11
57 55 54 37 46 50 50 44 39 37 37 30 22 7 7 7 6 25 34 27 23 21 27 20 8 6 9 15 18 20 18 17 16 16 17 16 15 15 14 11 10 11 11 12
54 60 54 56 43 45 42 49 43 43 37 31 19 20 21 21 22 14 18 33 27 28 34 25 13 12 12 12 17 20 20 18 19 20 19 18 16 13 11 9 7 6 5 3
61 66 58 58 51 45 40 46 47 41 35 37 32 25 15 18 17 19 16 23 41 37 36 34 25 16 10 13 17 17 20 20 20 18 17 16 14 10 8 7 6 4 4 2
72 72 70 61 58 52 46 39 42 46 43 35 36 19 10 13 18 22 14 25 28 44 39 36 31 20 14 13 17 18 20 21 20 18 18 15 12 9 9 8 4 3 3 4
72 74 74 64 58 53 42 46 36 48 43 41 39 28 21 15 18 22 21 21 26 33 43 43 34 25 19 18 18 21 21 21 20 18 18 15 13 9 9 7 5 3 4 2
73 71 77 68 57 44 39 41 34 38 45 38 43 32 25 25 25 26 26 29 27 34 36 37 38 34 27 24 22 26 26 22 20 18 16 15 13 11 10 7 6 4 3 2
71 68 73 67 58 49 45 46 32 30 36 44 48 34 23 29 30 33 31 33 37 37 43 45 42 38 29 22 17 16 22 26 24 21 19 16 11 9 9 8 6 5 6 6
73 72 71 71 59 59 43 47 49 34 28 41 42 29 24 21 27 30 35 28 31 39 40 43 42 30 22 24 21 19 24 29 29 25 23 18 14 14 13 9 8 8 8 10
66 69 67 73 65 62 44 40 38 46 41 44 46 31 31 36 38 40 41 39 38 39 38 32 27 24 23 25 26 20 22 26 27 27 24 21 19 16 13 11 11 11 12 14
64 68 68 73 65 60 54 51 47 47 50 50 51 42 41 40 37 43 41 46 39 36 34 34 32 28 24 25 25 26 25 25 23 23 21 22 22 21 19 19 19 20 19 19
65 70 65 72 56 67 56 59 55 51 54 57 56 49 49 52 52 51 47 45 45 38 34 34 32 32 34 30 29 30 28 25 27 29 28 27 25 25 25 28 28 25 26 25
44 62 64 54 67 64 61 63 62 61 60 64 64 51 61 60 58 54 50 39 42 40 39 36 35 31 30 33 33 32 28 22 23 25 26 30 30 29 30 32 33 32 30 31
32 53 68 62 42 67 52 62 69 71 68 71 70 62 68 66 63 61 58 50 40 38 38 38 37 35 33 30 27 23 24 24 22 33 32 36 38 37 37 37 37 37 36 36
33 46 60 70 48 64 50 46 77 74 69 71 73 75 76 74 71 66 62 54 48 40 37 36 37 37 34 30 26 27 25 24 26 26 31 38 39 39 41 38 36 37 39 39
29 36 55 59 60 68 62 52 55 81 69 70 74 76 79 80 75 71 68 63 51 35 39 43 43 41 37 33 32 33 31 28 28 30 29 31 35 38 40 37 34 34 35 36
45 45 52 65 63 69 72 65 51 62 79 71 73 77 77 74 70 66 63 58 42 49 47 44 45 43 40 37 36 35 34 34 34 33 32 32 34 35 36 37 37 36 35 35

GFSCGP_500_spd_036.txt.gz
Wind_Speed
35 40 37 27 30 31 35 34 28 22 26 27 18 18 23 16 7 4 2 8 8 3 5 8 11 19 19 16 16 17 21 20 20 18 17 16 14 13 11 10 9 8 9 9
42 37 26 31 33 33 38 38 30 27 28 24 18 20 25 14 5 5 11 8 9 2 4 4 10 19 21 21 18 19 21 21 22 20 17 16 14 12 10 8 10 9 8 8
42 26 33 35 35 35 36 38 32 29 30 28 32 28 36 23 16 17 14 7 6 6 6 5 10 15 22 24 22 21 23 22 21 20 17 15 14 12 10 8 8 8 7 6
46 36 39 39 38 35 36 29 35 34 36 40 31 30 40 28 22 16 19 10 7 9 10 4 9 13 19 24 24 23 23 22 20 19 17 16 13 11 8 8 7 8 7 5
47 43 42 44 37 35 26 33 39 37 38 42 43 43 38 31 27 22 14 11 10 5 14 9 4 13 18 21 21 19 21 22 21 20 18 15 13 10 10 9 9 9 9 6
51 47 48 40 36 39 34 37 41 44 45 52 46 46 42 39 26 21 22 17 13 8 7 6 8 10 13 16 19 18 18 21 22 21 18 15 13 12 11 11 10 10 7 6
59 58 54 48 45 46 42 44 46 52 58 58 45 51 40 35 28 24 23 12 11 12 9 7 7 13 14 16 19 18 18 19 22 21 20 18 15 14 13 12 11 9 7 5
58 59 58 52 50 45 45 48 49 51 54 47 41 55 37 37 29 27 17 14 11 15 11 9 5 11 14 17 19 20 18 18 21 23 21 19 18 17 15 12 11 11 10 9
63 62 57 53 49 47 42 49 41 43 47 46 48 48 41 39 37 33 30 32 28 18 14 9 9 7 16 18 22 21 21 20 19 23 22 19 19 18 17 15 13 13 13 11
70 68 62 56 46 48 46 40 44 46 44 46 44 42 39 38 31 26 32 32 24 25 18 14 10 6 13 20 22 22 20 21 22 23 23 22 21 20 18 16 15 14 13 12
75 73 65 49 60 52 52 50 45 42 44 41 34 33 28 33 35 35 35 34 30 23 17 18 16 9 9 21 21 22 19 21 21 19 22 23 22 21 19 18 15 12 12 14
74 77 69 63 53 53 48 51 46 45 45 37 28 24 38 32 31 29 45 45 36 21 21 14 14 11 13 16 21 21 18 17 22 24 23 24 24 22 19 15 11 10 9 8
69 78 67 66 56 57 51 49 48 46 38 39 32 35 40 33 31 29 33 51 33 28 24 21 17 13 14 13 20 20 20 20 23 23 23 23 22 20 15 12 11 9 7 6
70 78 73 71 64 54 58 54 51 49 45 39 36 31 30 25 23 26 21 22 30 32 30 30 23 20 16 12 16 20 22 23 22 23 22 22 21 18 13 14 12 10 7 9
71 73 74 73 68 63 59 54 50 53 48 41 33 36 23 25 19 22 19 14 26 28 33 29 29 25 19 17 12 21 24 24 24 22 21 21 21 17 16 14 12 10 7 7
64 68 73 70 66 60 56 55 50 41 44 41 36 37 25 27 24 27 20 17 19 29 33 34 30 28 24 22 17 16 23 26 25 23 21 21 19 16 18 16 12 9 7 6
67 64 68 69 65 60 55 50 48 35 31 36 39 37 31 30 27 29 21 20 21 22 21 35 38 33 30 28 24 18 17 25 27 23 24 22 19 16 17 15 13 11 10 9
62 67 69 57 67 63 56 47 48 41 34 32 43 44 34 34 30 33 32 27 28 27 28 28 29 31 34 31 31 27 26 24 25 23 21 20 16 17 17 16 16 15 13 10
61 66 66 55 69 64 59 49 52 53 46 40 48 44 40 37 36 37 38 35 36 29 29 29 26 23 20 24 28 27 19 24 26 26 23 20 21 21 19 17 17 18 16 14
59 66 65 65 64 69 64 53 55 54 50 43 43 49 38 41 37 39 39 38 38 34 33 32 28 23 20 22 23 22 22 24 23 29 26 26 27 26 25 24 20 21 19 17
62 70 66 72 66 67 67 66 61 49 57 52 46 53 46 44 44 44 42 43 40 37 34 32 30 26 22 22 31 31 30 25 21 27 34 33 31 27 26 28 29 26 24 25
62 65 69 71 70 66 65 55 56 60 64 57 55 58 56 50 47 46 46 43 41 37 35 34 30 29 29 28 28 32 34 34 34 33 32 32 31 31 32 33 32 32 32 31
45 61 71 69 81 66 69 63 52 64 67 58 57 65 64 55 53 53 50 46 44 41 40 39 38 36 34 32 31 31 30 29 31 34 35 34 33 35 35 37 36 36 35 37
17 52 64 68 78 73 70 66 47 65 72 65 64 73 74 64 57 55 52 51 48 42 44 43 40 39 34 30 28 27 26 27 30 33 36 39 42 42 44 45 45 45 42 42
16 36 57 69 70 81 53 61 53 57 63 71 69 80 73 66 63 60 58 56 52 44 44 46 43 39 37 36 35 33 29 27 27 29 32 37 41 45 47 47 47 46 45 42
19 28 51 65 69 77 66 56 58 56 64 68 68 74 76 69 65 64 61 60 57 51 48 46 39 34 35 36 36 34 32 32 30 29 30 32 40 45 45 43 42 38 39 39

GFSCGP_500_spd_039.txt.gz
Wind_Speed
39 40 38 28 27 31 32 33 33 28 35 32 29 26 24 20 22 13 8 11 5 3 2 4 15 17 20 15 16 20 21 24 22 20 20 19 16 14 13 10 9 8 8 8
46 42 26 34 36 33 36 35 31 31 36 34 32 32 29 22 18 17 12 7 7 4 3 1 9 18 20 21 19 21 25 24 24 23 23 21 16 14 12 10 9 8 6 8
50 35 36 36 39 37 37 36 32 26 36 36 35 35 30 25 28 24 17 16 12 5 5 2 5 16 19 23 20 21 24 24 23 23 22 20 17 15 12 11 10 9 7 5
57 46 45 41 40 40 39 29 32 33 39 40 38 38 32 26 26 19 15 11 15 5 3 2 2 12 19 25 25 24 26 25 23 23 23 23 21 18 14 12 11 10 8 4
61 54 55 49 37 38 28 32 36 37 41 42 43 43 39 32 32 23 18 15 16 12 4 5 4 8 21 27 24 25 27 26 25 25 25 22 18 14 12 10 11 11 9 6
65 60 60 48 42 40 34 38 39 43 47 56 47 51 46 37 23 24 21 20 14 15 10 3 5 10 17 27 25 26 26 25 26 26 23 21 19 16 13 12 12 11 9 5
69 65 65 59 53 48 45 49 47 51 59 59 45 57 43 36 27 26 24 17 10 12 13 6 6 13 15 21 26 24 26 26 26 25 22 20 18 16 13 13 12 10 10 7
75 71 70 64 62 53 53 53 57 56 56 51 46 59 44 30 28 30 30 26 14 13 11 12 9 12 19 21 24 24 25 28 27 26 23 21 18 17 15 15 14 12 9 8
78 74 72 65 63 56 54 59 51 51 51 47 51 55 40 35 36 32 30 30 32 21 16 16 8 14 19 22 26 23 22 26 30 28 26 22 19 18 18 18 16 14 12 10
82 78 75 68 58 55 53 51 53 55 54 52 54 54 41 38 33 30 29 26 34 29 23 19 17 17 18 23 27 27 25 22 24 27 26 23 21 21 21 18 17 16 14 12
79 82 73 66 69 62 60 58 54 48 52 51 50 44 33 35 35 31 22 19 24 32 32 23 19 20 14 24 26 27 26 24 20 23 26 26 24 23 21 19 18 16 14 13
74 85 73 68 66 63 59 60 54 54 53 51 47 37 32 33 37 36 30 24 22 23 25 27 26 21 18 18 26 27 27 25 23 24 25 26 26 24 21 20 17 14 12 11
60 82 71 61 63 69 64 61 56 52 49 49 44 21 35 39 41 44 41 32 30 27 25 27 28 29 23 14 27 28 28 26 27 28 26 27 26 24 23 21 18 15 12 10
52 74 76 70 68 72 65 58 57 52 51 48 43 27 32 36 40 44 48 44 43 39 34 27 34 29 23 17 25 28 28 26 27 29 28 28 27 26 24 22 19 17 15 13
52 65 77 73 67 67 67 61 59 59 50 47 36 36 37 32 32 38 44 48 32 43 40 36 33 29 25 22 19 26 29 27 26 25 26 27 28 27 25 22 21 18 16 16
56 52 74 70 70 62 62 61 59 57 53 44 38 43 42 35 38 38 38 29 23 41 44 35 32 26 31 25 20 18 27 28 29 27 27 28 27 26 24 24 20 19 18 16
53 66 69 71 69 62 59 67 61 57 54 46 42 47 42 37 38 36 36 28 18 24 32 33 27 25 29 23 19 13 23 28 30 31 31 27 26 26 27 25 22 19 17 15
49 64 69 59 63 59 61 63 61 59 56 50 46 50 40 39 39 41 32 23 21 21 22 25 26 24 22 21 20 18 19 22 30 33 30 29 28 28 29 25 21 20 17 14
46 57 62 55 64 56 60 60 59 59 54 53 49 50 45 41 39 45 36 28 23 25 28 27 29 30 30 27 23 22 24 23 22 32 30 27 26 28 27 23 22 22 20 19
48 52 52 58 69 57 59 61 54 57 52 53 52 48 48 47 46 49 45 34 33 32 33 28 25 23 23 28 29 27 27 21 19 20 28 28 30 31 28 26 25 25 25 24
51 51 57 60 69 59 60 57 57 54 58 55 53 51 52 48 47 46 48 42 41 39 32 25 25 28 26 26 27 30 26 21 17 23 29 33 34 34 32 33 30 29 29 28
52 57 58 60 70 56 57 56 56 61 60 58 57 55 58 54 49 46 42 42 42 41 34 28 25 27 30 29 30 26 25 28 27 26 31 31 34 35 33 34 35 32 32 31
49 57 60 60 60 58 63 57 55 61 62 57 57 60 62 61 55 49 44 39 41 38 33 29 27 26 29 32 32 34 30 30 33 35 34 30 32 36 38 36 35 38 39 35
34 42 60 63 68 47 64 65 50 60 62 60 57 63 66 63 61 55 52 44 43 40 37 33 29 27 28 28 32 34 36 37 39 41 43 43 43 44 45 45 45 45 44 44
26 40 50 57 60 67 48 64 56 56 59 60 60 62 68 68 61 58 57 51 44 43 41 37 35 33 33 31 31 30 30 34 39 42 46 46 45 45 47 49 52 53 51 48
16 32 53 58 57 57 68 54 63 54 64 66 67 66 70 71 68 63 60 54 52 50 46 46 44 44 43 41 38 32 31 30 29 32 39 42 46 49 51 52 54 56 54 52

GFSCGP_500_spd_042.txt.gz
Wind_Speed
43 39 31 25 29 29 33 35 33 31 30 27 24 24 27 24 19 17 16 14 12 9 5 7 15 25 20 13 17 19 21 24 23 19 20 20 18 15 13 12 11 10 12 13
51 43 27 35 37 33 34 36 36 34 35 32 29 26 30 19 22 23 22 20 14 13 10 6 8 17 25 18 16 20 22 24 23 24 25 21 18 15 12 12 11 9 9 12
52 43 41 40 39 40 38 35 35 34 39 37 35 35 32 22 28 31 28 26 18 15 12 8 8 13 28 23 17 20 24 27 24 25 24 20 17 14 13 12 12 11 9 10
54 47 52 48 43 42 42 34 33 38 43 45 43 40 41 33 32 34 30 21 24 19 16 10 9 10 22 28 24 21 27 28 26 24 22 21 21 19 16 14 12 11 10 8
59 50 56 55 43 42 35 37 38 39 45 47 49 46 39 37 38 35 29 25 27 19 17 11 11 15 21 30 27 24 27 26 26 25 25 23 19 13 13 14 14 12 10 8
62 57 58 60 52 48 36 44 44 46 48 59 51 55 43 33 29 29 29 27 25 22 16 13 11 12 18 28 31 27 26 27 26 27 26 24 19 17 16 15 15 14 11 9
65 64 61 60 59 56 47 51 51 52 59 60 51 56 45 32 31 32 27 25 22 22 19 15 11 11 13 20 26 27 26 26 26 26 26 23 22 19 16 15 15 16 14 10
60 66 64 66 64 59 56 55 58 60 59 56 53 63 50 35 34 34 31 26 26 26 21 19 16 15 15 20 25 26 26 25 26 26 26 25 22 20 18 17 17 17 15 11
51 66 67 68 65 63 63 63 55 55 55 54 58 59 50 37 37 40 36 36 33 32 28 23 17 17 20 20 23 25 26 29 29 30 29 27 24 21 19 21 19 17 14 12
61 64 59 70 68 67 65 64 58 60 60 59 60 56 49 37 37 42 38 39 33 31 30 29 22 16 22 23 26 29 30 30 31 33 33 30 27 25 22 21 19 18 16 13
64 70 64 73 75 66 67 67 66 59 59 60 60 54 40 40 36 34 40 38 37 36 34 30 26 21 18 26 27 30 30 30 33 35 35 32 29 27 24 24 22 19 16 14
66 71 77 67 70 65 68 68 68 67 64 61 60 52 38 37 37 36 39 38 37 37 36 33 26 26 23 24 29 29 31 29 28 32 34 32 32 29 27 26 23 20 17 15
51 63 73 65 65 69 69 71 68 65 61 61 56 49 42 36 37 40 39 38 38 39 35 37 27 30 30 24 26 30 31 31 31 30 30 33 32 29 27 28 25 22 19 17
42 59 67 69 64 71 70 71 68 69 64 59 57 41 37 36 42 41 42 42 41 38 37 39 33 32 30 27 23 31 32 33 33 33 32 31 30 29 29 28 26 22 19 17
36 53 54 63 69 69 69 70 72 71 66 59 51 33 35 35 38 42 44 45 45 44 43 44 41 39 35 32 28 31 34 35 35 33 32 30 30 30 31 29 24 22 19 19
26 53 45 55 65 64 64 69 71 71 65 60 45 39 41 38 37 42 50 53 51 52 51 45 39 33 35 33 31 30 33 35 34 32 33 33 33 33 30 28 24 23 21 22
35 57 30 47 62 64 67 68 69 68 64 56 43 44 42 41 40 41 45 48 49 35 51 43 41 34 36 31 29 33 34 34 32 30 35 33 34 32 30 27 26 23 23 22
32 31 31 53 66 63 67 65 70 66 62 56 45 48 49 48 46 42 40 46 36 25 26 36 44 40 35 32 28 31 27 32 33 32 33 33 32 31 30 28 27 26 23 22
40 26 41 51 68 62 60 61 67 65 59 54 48 53 56 53 45 42 37 31 26 27 33 46 46 41 36 32 28 29 26 27 33 31 32 32 32 32 31 29 29 28 26 23
20 36 41 48 67 58 58 61 63 64 58 52 52 57 54 50 46 43 39 38 32 27 34 40 44 34 29 27 28 26 23 22 26 27 31 32 32 32 32 33 33 31 29 25
29 40 38 51 65 54 55 58 57 59 57 53 55 55 55 52 49 47 48 43 34 31 31 36 31 32 32 30 31 27 27 22 19 20 27 34 34 32 34 36 34 31 31 30
38 47 43 45 53 58 55 55 53 52 56 53 54 54 58 55 52 53 49 45 38 30 33 33 32 31 32 34 34 33 32 28 26 23 24 30 37 36 34 35 35 32 31 29
30 45 47 49 48 55 56 50 55 55 50 51 54 57 59 59 55 55 52 49 45 38 38 39 36 35 37 36 34 35 31 31 25 24 20 22 29 40 39 38 41 36 35 33
35 37 41 39 51 45 56 42 43 50 47 50 54 57 59 63 60 57 55 52 50 49 42 37 35 33 39 38 35 32 30 27 26 26 23 26 24 30 43 40 35 43 45 40
35 28 44 45 44 46 51 47 45 46 52 46 53 53 58 65 64 62 60 57 55 53 52 46 41 34 36 40 37 35 33 32 31 31 30 34 30 37 39 40 41 45 43 41
32 27 26 50 43 46 44 54 50 49 49 50 50 54 55 61 66 64 63 61 57 50 51 49 44 37 33 36 42 43 43 42 40 39 37 35 38 42 46 47 49 49 54 52

GFSCGP_500_spd_045.txt.gz
Wind_Speed
41 38 26 24 29 29 32 33 32 31 29 29 26 27 23 22 23 18 18 17 17 18 20 25 27 22 18 20 21 21 23 25 23 19 18 17 16 15 15 14 14 14 15 16
41 40 33 34 34 34 32 34 34 34 34 32 30 31 26 25 26 26 23 21 18 15 16 17 26 27 21 21 23 23 24 26 25 25 23 21 18 15 14 15 13 15 14 16
46 38 40 41 39 38 37 34 35 39 40 38 36 39 35 31 32 28 26 25 23 19 16 16 20 29 27 23 22 25 25 28 27 26 24 20 17 14 14 15 14 14 13 13
53 47 45 46 46 42 41 36 36 40 43 43 43 41 41 35 35 32 28 23 21 19 18 16 17 22 31 27 26 28 28 30 28 26 24 22 21 20 18 17 15 13 12 12
57 51 51 50 46 47 39 41 41 43 48 47 49 48 43 40 41 32 23 24 26 24 23 19 20 24 33 33 29 29 30 31 26 26 26 24 22 18 14 15 16 14 12 12
57 57 57 58 50 52 46 49 48 48 52 62 51 53 48 48 46 32 26 28 30 29 27 26 21 22 28 36 35 32 30 30 27 24 26 25 23 17 16 16 17 16 13 12
52 57 61 62 59 56 53 55 53 54 59 60 51 58 46 48 43 39 33 29 31 31 30 27 24 21 25 30 32 34 33 30 27 26 26 25 21 19 18 16 15 15 16 13
39 48 59 64 64 60 56 59 60 59 59 57 55 64 47 45 40 41 38 35 37 34 30 27 25 25 26 31 35 33 34 32 29 28 26 26 22 21 19 16 16 17 16 14
43 41 42 57 65 66 59 63 58 60 59 60 63 62 53 43 47 44 44 43 36 35 32 30 28 26 27 32 36 35 33 35 33 31 29 27 24 22 19 19 18 18 16 14
50 46 44 44 47 63 61 58 66 65 63 65 67 64 58 45 43 46 49 44 39 36 33 32 29 30 28 30 38 40 38 36 36 35 33 30 28 26 24 20 21 21 19 16
54 54 49 48 46 44 61 64 67 66 66 65 69 66 55 46 39 49 49 44 41 35 34 33 28 28 29 31 36 37 37 37 37 37 35 33 30 27 25 23 24 23 20 18
54 58 59 54 49 49 51 69 69 69 70 68 67 67 52 45 42 49 50 46 44 38 38 35 31 32 33 30 31 34 35 35 35 35 36 34 33 31 28 26 26 25 24 21
51 57 61 62 55 54 56 58 70 71 68 73 69 67 50 43 40 45 49 48 49 43 42 37 36 31 32 34 32 32 34 33 34 35 36 36 35 32 30 29 29 28 26 23
44 49 58 61 61 63 66 62 65 73 73 75 75 61 50 45 39 41 51 55 53 50 48 44 41 34 31 30 32 32 33 35 34 35 36 36 36 34 32 32 31 30 28 25
43 49 60 64 67 67 70 71 66 78 77 75 69 67 47 44 46 38 47 54 59 53 55 49 45 42 36 33 31 34 35 37 36 34 33 33 35 35 36 34 34 32 29 26
43 46 51 58 60 62 69 74 72 81 78 75 68 65 49 44 47 49 50 56 62 60 58 53 49 47 37 36 31 30 33 36 36 36 33 34 34 34 34 33 34 34 31 28
32 33 36 39 38 54 72 75 73 80 78 73 68 58 48 42 47 50 48 55 59 59 60 59 53 48 41 38 33 29 29 35 36 36 36 35 35 33 33 33 34 32 29 29
28 28 32 25 34 53 64 64 68 78 78 71 67 55 48 44 50 50 48 55 60 61 57 59 56 51 45 41 32 33 31 29 36 37 36 35 35 35 36 35 32 31 30 29
23 28 30 28 23 35 54 57 69 73 74 67 62 51 47 44 49 47 48 55 57 60 62 58 56 49 43 42 37 35 33 28 35 37 35 33 36 37 37 33 32 31 31 31
25 29 33 19 31 29 54 56 65 69 65 64 59 54 47 48 50 47 45 47 49 56 57 40 42 51 46 42 34 36 32 26 30 35 33 33 35 37 35 35 34 33 33 32
18 15 16 19 48 16 56 53 60 61 62 60 56 55 47 52 51 47 40 37 42 40 38 40 44 46 50 43 40 33 34 23 24 31 34 34 34 34 35 35 35 33 34 31
16 12 16 39 22 18 56 55 57 57 54 56 54 56 46 55 53 47 40 37 34 32 32 31 39 47 45 44 42 37 33 28 24 25 35 36 36 36 35 34 34 34 34 31
3 10 17 30 9 36 59 56 54 54 49 51 54 54 53 58 55 50 43 43 41 38 33 31 40 46 49 48 43 35 35 33 29 28 29 33 35 35 35 35 35 35 35 32
6 10 21 48 21 45 48 51 49 46 40 47 55 51 51 55 57 52 48 46 44 42 36 41 39 44 44 48 54 45 42 33 32 30 29 30 30 32 37 38 38 37 36 35
7 16 21 22 30 27 51 45 45 46 43 43 54 48 46 53 55 56 52 51 48 48 43 42 43 46 45 39 38 37 42 38 48 32 31 30 28 30 31 41 40 40 39 43
9 23 28 26 33 36 37 32 36 37 35 38 45 48 45 51 52 57 54 53 52 51 50 49 46 45 44 45 45 42 42 38 32 38 39 36 32 32 35 37 40 44 44 38

GFSCGP_500_spd_048.txt.gz
Wind_Speed
30 28 26 28 26 29 27 31 30 29 30 30 25 23 22 19 18 17 18 19 20 25 25 23 22 21 21 22 22 24 26 25 22 19 18 18 16 14 12 12 12 13 17 17
33 30 29 34 34 31 32 31 33 36 36 34 30 28 27 24 22 22 18 18 19 18 21 25 25 23 21 23 22 23 26 25 24 23 22 20 18 15 14 13 12 14 17 18
37 36 37 33 36 37 35 35 36 40 41 37 37 37 33 30 30 24 23 23 19 20 20 24 27 26 23 24 23 24 26 27 26 24 22 20 18 16 16 14 13 14 16 17
42 41 41 40 41 41 40 36 38 41 42 40 41 39 38 36 32 29 28 25 22 20 17 18 25 31 26 25 27 28 28 30 27 25 22 22 22 21 18 17 15 14 15 15
46 44 45 45 46 44 43 42 40 44 48 47 50 47 40 40 38 35 32 27 23 23 19 19 22 27 35 31 29 30 30 31 28 25 24 25 23 19 16 17 16 15 14 14
48 47 50 51 53 51 48 47 45 46 50 57 51 52 49 40 42 40 36 32 27 26 22 23 24 27 34 37 33 34 32 32 30 27 25 25 24 20 18 18 17 16 14 14
46 49 53 56 58 58 55 53 51 52 56 55 50 56 55 49 40 42 41 32 30 32 31 28 25 22 25 33 33 34 34 33 30 27 26 25 23 19 20 19 17 16 15 13
38 43 53 59 60 62 61 59 59 57 55 54 54 61 56 53 51 46 47 39 36 35 34 33 29 28 27 31 36 34 35 34 33 29 27 27 24 21 19 19 19 18 16 14
40 40 46 57 59 62 62 66 57 57 46 53 43 57 58 53 52 50 50 45 39 36 37 34 31 29 27 31 36 37 36 37 35 33 31 30 26 23 21 20 20 18 17 16
47 45 44 44 48 57 60 58 61 64 59 64 50 54 48 58 48 55 56 52 44 40 39 37 35 31 28 30 35 42 41 38 38 36 35 33 29 27 26 22 19 19 19 18
51 51 49 46 46 43 45 62 59 51 64 64 61 55 53 57 49 49 53 51 48 45 42 38 34 31 31 31 36 40 43 43 42 39 37 35 31 30 29 24 23 20 19 19
53 55 54 53 51 48 51 54 64 58 61 70 52 35 40 57 53 44 51 50 49 49 44 41 37 35 33 31 31 38 44 43 41 40 39 37 34 33 31 27 24 23 22 21
52 54 53 53 54 52 55 48 49 59 70 64 63 62 47 63 52 46 50 52 50 52 47 46 43 39 34 30 29 32 40 42 42 41 40 38 36 35 32 30 27 24 24 24
55 55 56 58 51 48 58 57 58 56 66 71 74 49 48 55 47 45 47 53 55 58 53 50 47 41 36 32 31 32 37 43 43 43 41 40 38 35 33 32 30 27 25 26
48 55 57 61 64 60 57 61 62 62 66 80 74 53 62 59 49 45 45 54 59 59 56 52 47 44 37 34 31 33 36 41 43 42 42 40 39 38 37 35 32 30 28 27
37 45 48 56 58 63 65 64 66 67 63 73 81 74 69 61 52 45 46 56 63 62 61 56 51 48 43 39 33 30 30 35 39 40 38 39 41 40 39 36 34 32 30 30
32 34 40 49 50 57 69 69 67 69 68 67 81 73 61 64 56 52 53 53 61 65 65 60 55 51 46 43 36 33 30 28 32 35 38 38 38 39 39 38 37 34 31 33
34 35 37 39 44 52 66 66 69 74 72 70 73 70 67 62 59 51 52 53 54 63 66 64 60 55 50 44 39 37 32 31 27 32 37 37 36 34 33 35 35 34 33 33
37 38 39 42 41 46 66 68 68 71 76 74 74 71 65 61 58 55 52 52 55 62 68 66 63 58 55 50 44 38 34 32 29 27 31 36 36 35 35 32 32 33 34 33
23 30 32 32 31 29 35 58 73 69 78 79 76 68 69 62 60 57 53 52 52 59 64 67 65 60 59 53 46 41 37 32 30 27 24 32 36 36 34 34 35 36 36 33
12 21 25 27 29 27 30 33 50 55 65 71 76 67 62 60 57 57 51 51 48 53 62 64 64 63 59 55 51 46 40 35 33 31 30 30 33 36 35 36 39 38 35 34
8 12 22 17 16 11 25 45 44 51 55 55 64 64 61 59 57 53 49 49 47 45 55 62 61 61 57 61 55 47 44 39 34 35 28 28 32 35 35 36 37 36 36 34
3 1 2 6 6 5 35 40 45 42 48 49 47 59 59 60 57 48 51 49 43 40 49 58 62 54 54 56 52 50 47 45 52 31 30 28 33 34 33 33 34 35 35 33
4 6 2 5 5 18 46 48 42 45 43 41 44 56 58 59 52 48 51 43 40 38 40 39 43 48 53 56 59 56 56 55 47 36 36 26 28 35 34 33 34 34 33 32
1 3 5 6 11 31 49 34 51 41 37 43 43 55 57 54 49 49 49 43 41 39 35 37 41 49 52 52 60 60 56 52 46 41 38 31 29 34 35 35 36 35 34 35
6 6 5 8 17 40 48 39 53 44 38 39 44 50 53 48 49 52 49 48 45 42 44 42 39 41 51 60 54 58 56 49 42 43 42 37 34 35 38 42 40 36 32 33

GFSCGP_500_spd_051.txt.gz
Wind_Speed
26 26 21 23 24 23 25 22 27 20 24 25 26 21 16 15 18 10 12 16 17 20 23 23 21 18 15 18 21 24 24 21 18 17 17 16 16 12 12 12 12 11 10 11
32 27 26 27 29 29 28 25 27 27 27 30 31 25 24 20 22 18 16 16 18 21 22 21 22 18 16 19 21 23 24 23 19 19 17 17 16 15 12 13 13 13 12 12
34 32 33 32 30 32 32 30 29 33 34 34 33 35 28 25 30 24 18 17 16 18 22 22 21 19 19 21 22 23 26 25 22 19 18 18 17 16 15 14 14 15 13 12
37 36 38 37 36 33 34 32 33 38 41 40 33 34 32 36 22 30 24 21 17 20 22 23 25 24 21 22 25 25 27 27 24 20 19 19 20 18 17 15 15 16 14 13
42 41 41 39 40 39 37 38 39 38 41 45 40 38 29 36 31 30 33 24 19 18 21 19 22 26 28 27 26 27 28 29 27 23 20 21 21 19 17 16 15 14 15 13
46 49 47 45 44 43 43 43 43 43 41 51 45 41 38 33 36 23 36 28 23 20 21 20 18 22 26 32 29 29 29 29 28 25 22 21 22 19 18 18 16 14 13 12
47 50 51 49 48 49 48 48 46 47 49 47 43 52 45 34 33 33 36 34 27 26 24 25 21 18 23 27 31 29 30 30 30 27 24 22 22 19 19 19 18 17 15 13
34 45 51 51 51 50 54 53 49 46 41 46 45 51 52 43 33 46 42 39 34 33 30 27 27 25 21 24 30 31 29 32 30 30 27 26 25 21 19 19 20 18 16 14
32 30 50 56 56 52 47 52 53 38 30 38 35 46 47 44 51 51 28 39 36 37 37 30 30 25 27 25 26 33 31 33 33 32 31 29 28 24 21 20 20 19 17 17
40 42 44 52 54 53 55 51 45 53 43 41 34 36 36 44 52 56 54 45 42 32 41 35 33 29 31 27 26 30 36 35 35 36 34 32 30 27 25 22 20 19 20 19
46 45 41 46 48 45 50 57 56 40 44 45 38 36 31 28 37 51 52 54 47 44 47 38 35 33 34 32 28 27 34 38 38 36 36 34 32 29 28 25 22 21 20 21
49 52 52 51 44 45 47 35 44 56 53 46 46 40 26 26 29 38 48 49 51 49 44 40 37 36 37 36 31 26 28 38 39 39 39 37 36 34 31 27 24 23 22 24
50 51 52 53 54 51 51 54 50 48 47 45 42 45 26 30 42 42 46 49 51 52 52 47 41 41 40 37 33 27 26 29 39 40 41 40 37 35 31 28 27 24 24 25
52 53 53 52 31 45 50 55 52 46 45 51 47 39 37 27 30 28 52 43 50 57 57 54 47 47 45 41 37 30 25 29 34 41 41 41 38 35 32 32 29 26 25 25
47 50 53 56 56 53 57 67 62 62 61 50 53 49 58 43 39 29 30 39 49 55 60 57 52 53 49 44 39 34 27 29 31 38 40 39 38 37 35 34 32 29 27 26
42 47 52 58 59 58 61 63 66 66 66 65 68 69 68 61 48 42 39 30 46 56 62 59 59 58 52 48 41 37 30 26 29 32 37 38 39 39 38 36 34 31 29 28
33 37 41 51 54 57 67 67 67 66 70 70 68 70 67 74 58 46 45 40 49 50 58 64 55 58 54 48 41 37 31 27 28 29 34 36 38 39 39 38 37 35 32 32
31 33 37 36 41 44 53 63 68 70 70 71 73 71 71 67 60 53 48 50 51 59 64 63 58 59 53 49 46 40 37 32 26 27 31 35 38 37 38 39 38 38 37 35
29 35 43 43 45 45 51 43 63 79 81 82 75 74 71 62 66 60 65 63 55 51 54 56 57 60 56 54 49 43 39 34 30 27 26 30 33 36 36 35 36 38 40 37
26 26 34 40 48 51 46 38 53 70 82 75 71 70 68 59 63 72 71 66 60 52 51 56 59 61 59 57 52 46 41 39 33 26 21 22 29 33 33 32 31 31 34 36
12 17 27 32 41 46 43 49 57 66 71 71 70 69 70 64 60 64 75 61 57 55 54 51 60 62 61 58 55 51 46 41 32 28 28 27 25 29 32 34 34 33 32 33
6 11 15 17 28 28 25 35 52 57 58 62 70 66 68 65 67 71 73 67 61 52 47 50 54 64 64 62 60 55 50 40 42 37 32 29 24 25 32 34 33 33 32 32
3 4 11 17 16 16 6 14 27 37 35 53 62 65 62 64 62 69 69 62 57 56 49 48 51 54 62 64 63 58 53 51 46 41 37 35 31 29 28 35 33 33 33 33
6 7 6 7 6 8 3 8 29 35 41 40 59 66 64 65 59 68 62 56 48 52 52 49 51 54 57 61 64 62 61 55 50 45 44 40 37 31 27 34 34 35 35 36
4 3 6 9 9 2 5 10 29 28 25 41 31 45 59 58 59 63 59 54 49 47 48 47 49 53 55 58 59 64 60 56 53 49 49 47 49 36 26 33 35 36 37 37
10 4 5 7 3 10 4 12 37 27 42 32 34 33 47 53 60 62 58 52 49 43 42 44 48 50 54 58 57 55 57 58 61 57 55 54 49 38 29 30 35 38 35 34

GFSCGP_500_spd_054.txt.gz
Wind_Speed
26 26 23 23 22 21 25 20 17 19 12 20 23 26 25 17 23 10 5 6 8 9 12 15 16 17 14 12 16 19 19 16 15 15 13 12 10 8 9 9 10 11 11 13
32 29 24 25 27 27 27 26 25 17 16 22 28 27 31 18 27 20 11 8 8 7 9 10 16 17 15 15 17 20 22 18 17 14 14 13 12 9 9 9 9 10 13 13
33 31 30 30 29 31 31 27 25 23 21 21 27 37 37 26 28 36 17 13 13 9 7 10 15 16 18 16 18 20 24 21 17 16 14 15 13 11 10 10 11 10 13 12
35 34 38 36 34 33 33 31 29 33 31 26 32 30 33 30 24 28 26 17 16 12 8 8 14 17 18 18 19 20 25 25 20 16 16 16 15 13 11 10 9 11 12 13
39 39 40 40 39 37 36 33 35 34 37 36 31 34 29 33 38 32 23 23 18 13 10 7 14 18 20 21 20 22 22 25 23 19 18 17 16 15 13 12 11 11 11 10
47 43 43 44 42 42 40 38 38 41 40 44 41 40 34 30 36 35 25 26 24 16 14 12 13 16 17 19 22 22 23 24 25 22 19 18 18 17 16 14 12 12 11 10
46 46 50 50 47 43 43 44 42 43 45 43 35 42 40 27 33 34 32 32 23 17 17 20 17 12 11 14 21 22 23 24 25 24 21 20 20 18 18 17 15 13 11 10
45 47 47 50 48 50 48 48 45 47 44 39 36 42 38 35 29 26 32 29 31 24 24 22 21 21 14 10 12 23 23 25 25 24 23 23 22 21 20 18 16 14 12 10
40 36 25 40 48 49 45 41 43 42 30 37 27 31 38 35 37 28 32 37 37 38 30 29 27 22 21 18 14 14 27 27 27 27 26 24 23 22 21 19 19 17 15 14
39 47 37 33 40 50 51 47 34 42 43 40 29 29 26 27 37 45 48 46 48 38 47 36 34 25 22 22 21 16 19 29 29 30 28 27 26 24 23 21 20 20 18 16
33 41 42 22 43 52 49 53 52 48 41 50 37 33 25 21 28 29 41 52 53 45 23 35 42 27 25 25 26 20 17 27 30 30 29 29 28 26 25 23 21 20 20 18
41 42 42 45 35 40 46 48 48 50 48 53 42 42 26 20 24 33 33 39 49 49 51 45 33 35 27 25 25 24 19 19 30 31 33 31 30 30 27 25 23 23 22 21
48 47 49 44 48 38 41 44 44 33 48 51 49 41 32 17 30 20 26 26 34 43 46 40 26 20 23 30 25 26 22 19 20 31 33 34 32 31 28 27 26 23 23 22
51 43 47 50 37 43 41 44 45 45 40 42 55 33 44 28 34 36 37 33 36 36 39 49 46 39 30 31 30 27 25 23 22 24 34 35 33 33 30 28 28 26 25 24
53 50 51 54 54 48 53 56 54 50 56 49 47 44 53 40 47 46 46 46 40 36 40 44 46 55 22 32 35 32 30 27 23 23 27 34 35 34 33 31 30 28 27 25
40 44 47 57 57 56 61 55 57 58 58 56 58 62 62 44 49 50 52 52 52 53 33 35 47 47 42 43 36 36 33 29 25 23 21 30 36 35 34 33 33 32 28 28
33 31 31 46 51 56 62 62 60 59 61 64 67 67 70 62 59 49 47 47 52 55 49 47 51 44 44 41 37 40 35 32 27 24 24 24 34 35 33 34 34 32 30 30
34 35 33 28 38 48 56 61 64 64 67 65 68 64 67 75 73 55 47 48 47 53 57 57 57 60 49 25 50 35 37 34 27 25 24 23 25 31 32 32 31 33 32 31
23 26 35 35 37 37 42 52 55 59 65 66 73 75 68 77 76 64 49 53 48 46 52 58 57 59 57 62 42 36 39 34 31 25 20 20 22 25 29 29 29 31 32 33
19 19 29 33 40 44 35 39 51 62 77 75 76 77 71 71 82 72 52 62 52 49 51 55 59 61 58 49 45 45 35 34 33 26 19 20 21 24 26 27 29 31 31 32
15 17 21 23 29 33 41 43 53 52 67 74 81 81 73 70 72 74 59 60 59 31 62 57 56 54 54 52 50 49 41 40 32 30 29 25 23 23 25 29 31 32 31 31
10 11 16 20 25 28 33 43 55 56 59 63 72 79 77 69 67 69 72 79 65 69 36 53 50 51 52 54 53 50 48 42 38 38 34 30 26 26 26 26 28 32 33 32
6 11 16 22 23 23 24 31 38 46 58 66 73 72 76 73 67 72 82 83 83 59 66 51 53 55 51 51 53 52 52 49 46 42 38 34 33 29 27 27 26 31 34 34
14 13 14 15 16 17 13 19 23 29 38 41 59 69 63 68 70 77 73 89 82 71 62 60 55 55 52 51 53 53 55 54 51 48 43 41 36 34 32 29 26 26 33 36
14 10 9 9 8 8 9 13 18 12 17 28 37 56 51 61 71 70 68 70 72 79 75 66 55 60 57 55 54 56 58 57 54 50 48 46 42 37 37 32 30 28 28 34
18 17 13 12 12 7 4 9 9 9 9 18 37 40 49 53 63 59 59 64 62 66 68 68 62 57 52 53 54 54 57 58 59 54 52 49 47 41 38 37 33 28 26 30

GFSCGP_500_spd_057.txt.gz
Wind_Speed
26 25 23 23 23 21 23 28 30 22 4 10 14 16 12 16 15 21 16 13 11 9 9 12 11 9 9 10 12 14 14 13 11 10 9 9 10 8 7 8 9 8 11 12
30 26 23 25 28 27 27 26 26 27 15 9 19 24 21 21 17 29 30 16 10 6 7 6 9 10 11 12 15 17 18 15 13 13 11 11 11 11 8 9 10 10 12 8
29 28 29 29 28 31 31 28 23 27 24 26 25 32 24 21 25 19 25 14 15 8 8 9 9 11 12 13 16 18 20 17 15 13 14 13 13 11 8 8 10 11 12 13
32 31 33 34 33 31 33 31 27 26 34 32 26 22 29 29 26 26 27 24 15 13 6 5 8 11 11 15 17 20 23 19 16 14 15 14 13 12 10 10 12 13 13 13
35 34 36 36 36 35 32 35 34 31 35 37 34 30 33 31 30 21 29 38 19 18 12 7 8 9 15 15 16 20 21 21 16 17 16 15 14 14 12 12 14 14 13 13
40 40 40 39 38 40 39 36 38 40 40 42 36 40 32 28 25 21 20 16 15 16 18 14 8 7 10 16 16 18 19 22 21 17 17 17 17 16 14 13 15 15 13 12
40 38 41 43 43 42 42 43 42 43 43 40 34 40 33 32 21 22 14 13 16 24 12 18 13 8 6 8 16 16 18 19 23 21 18 18 18 17 16 14 13 12 11 9
44 41 39 42 46 45 45 43 46 44 40 38 36 42 30 26 30 23 19 10 20 24 25 20 19 13 13 11 13 18 17 19 22 23 21 20 19 19 18 17 16 14 11 10
39 44 42 43 43 42 41 48 41 46 44 44 39 35 29 20 24 29 27 25 22 22 25 29 29 18 16 13 11 13 18 20 22 25 25 23 22 21 20 19 18 16 14 12
39 38 39 38 38 47 45 39 44 45 48 50 47 39 25 0 9 20 24 28 27 34 30 33 33 27 22 18 17 13 13 19 25 25 26 25 25 25 24 21 19 18 16 13
40 40 35 39 41 35 42 51 50 49 51 49 47 43 33 17 7 18 16 21 22 25 35 38 43 28 29 27 23 17 13 13 21 24 26 26 24 25 26 23 21 19 17 15
40 41 41 45 46 49 48 46 51 54 51 54 51 44 29 23 10 16 18 25 23 25 30 38 21 43 34 25 23 21 16 13 16 27 28 29 28 28 25 25 24 22 21 20
34 35 39 43 41 37 48 48 49 54 57 57 54 50 41 31 15 9 27 32 27 23 31 32 34 28 28 26 25 23 20 16 15 18 28 29 29 27 25 26 26 23 22 22
45 40 41 42 53 49 48 48 44 52 58 60 56 53 46 41 31 22 29 40 36 36 25 20 29 32 22 38 31 23 20 18 17 15 17 28 31 30 29 28 28 25 24 24
40 51 50 48 51 55 58 54 51 51 59 64 62 58 52 52 45 36 37 39 41 37 32 27 31 36 27 27 30 31 25 17 17 18 15 19 31 34 34 31 29 28 26 24
34 41 46 56 54 56 59 62 61 60 55 63 65 67 59 62 58 48 45 43 40 39 42 37 38 39 37 35 35 33 34 21 17 19 18 20 25 33 35 34 32 30 29 27
25 28 28 40 47 56 63 59 61 62 60 60 63 64 68 71 72 60 52 50 47 38 29 35 42 37 34 29 35 52 36 26 22 22 20 19 20 26 33 36 35 31 30 31
16 18 25 27 30 40 54 59 62 63 66 61 66 64 60 82 77 68 57 55 55 52 57 46 46 40 32 37 48 47 41 38 29 26 22 20 17 20 30 35 33 32 31 31
20 16 20 33 32 33 36 51 58 67 67 64 69 69 65 76 76 75 65 60 55 58 59 55 58 53 49 50 48 43 65 36 34 32 21 16 16 18 24 30 32 33 33 32
21 24 23 22 25 30 23 30 39 54 72 69 71 73 64 69 74 75 63 66 60 60 63 62 61 55 51 56 45 48 40 40 33 27 23 18 17 17 19 27 31 33 32 33
17 17 20 23 25 19 33 36 43 49 66 69 77 79 74 73 65 74 80 63 68 68 62 59 58 52 47 56 48 27 47 25 19 21 25 23 20 19 21 24 27 30 31 32
12 15 18 19 20 24 25 32 44 46 51 64 69 76 80 78 70 67 81 79 70 69 62 63 60 60 51 51 46 43 22 29 28 33 28 26 26 23 23 22 24 26 29 31
14 16 15 19 21 27 25 26 34 42 48 55 63 69 79 81 77 73 71 85 82 71 65 56 55 58 47 57 54 46 50 49 36 36 34 33 31 29 25 25 24 26 28 28
14 15 16 16 20 19 23 26 34 37 39 41 51 64 76 85 83 79 74 76 87 84 71 69 54 52 53 60 55 50 47 49 43 41 41 39 37 33 31 27 26 28 27 24
25 18 14 16 19 18 20 21 27 33 34 36 39 46 52 75 88 85 80 82 75 79 84 78 60 54 49 50 48 50 48 50 49 45 45 43 40 36 34 32 30 28 26 25
23 25 25 19 14 12 14 17 22 26 25 27 33 36 42 59 57 86 90 84 79 78 87 88 79 55 50 52 45 44 41 46 49 47 48 48 45 41 37 35 31 30 28 28

GFSCGP_500_spd_060.txt.gz
Wind_Speed
28 26 24 23 22 22 25 27 24 23 18 14 15 13 12 9 3 7 15 12 10 12 11 13 17 13 13 11 11 13 18 18 14 12 12 11 12 11 9 6 9 10 8 9
31 26 23 26 28 28 27 26 20 25 23 23 19 14 13 11 12 7 16 10 15 13 10 10 15 14 14 15 14 15 16 17 15 13 11 10 10 12 10 6 8 10 11 10
30 26 31 29 30 32 30 26 23 28 29 27 24 21 20 18 15 10 14 16 19 15 19 16 15 14 15 16 14 16 18 17 14 14 9 9 9 9 9 6 9 10 9 9
33 30 33 33 31 31 33 28 27 31 31 28 26 20 20 16 17 15 11 16 23 16 10 17 21 17 15 15 17 18 21 20 15 16 13 11 10 10 10 8 8 9 11 9
37 35 33 33 33 33 29 31 29 31 36 35 28 30 26 26 23 12 10 12 27 19 13 11 19 19 19 17 16 20 22 21 19 14 14 12 8 11 12 11 11 10 11 9
38 36 37 36 36 36 35 35 34 34 38 38 34 34 32 28 17 14 12 11 6 23 11 11 18 22 19 18 16 19 22 23 20 18 16 15 13 12 13 13 13 13 11 10
39 39 37 37 37 37 38 39 38 39 41 38 37 38 31 25 22 13 9 8 10 19 8 13 12 16 16 16 16 17 21 25 24 20 18 16 14 12 13 14 15 13 11 9
42 39 42 41 41 38 41 41 40 39 37 42 38 41 29 25 24 14 10 13 10 19 18 19 15 17 19 20 21 18 20 22 26 24 21 20 17 14 13 15 15 15 14 10
42 41 41 43 44 44 41 40 40 40 42 44 38 39 35 36 31 29 25 20 17 14 21 22 23 21 21 22 25 25 23 23 24 28 26 23 23 19 16 15 15 15 13 11
38 37 40 40 43 43 41 39 42 42 43 47 39 32 31 31 29 21 23 18 15 18 20 18 28 21 19 18 23 30 30 26 25 26 29 27 25 25 23 18 16 14 13 12
34 35 36 38 44 45 47 49 46 45 45 44 41 32 32 32 28 29 30 25 17 8 12 16 24 25 24 20 19 21 26 31 28 25 27 30 28 25 25 22 20 17 14 13
20 30 30 37 38 41 48 52 55 55 48 48 43 37 42 36 32 31 34 35 30 25 21 16 18 24 29 29 24 23 22 22 29 29 29 29 30 29 27 26 23 20 19 17
23 28 29 39 41 42 46 49 53 58 57 51 49 41 45 43 40 35 35 34 29 28 20 21 20 29 30 34 28 29 27 25 25 32 32 30 31 30 28 27 27 25 23 22
23 28 31 40 48 47 51 51 52 54 59 60 54 42 47 49 45 42 32 37 36 36 33 28 30 29 21 32 44 38 33 28 24 23 29 31 29 30 31 31 30 29 26 24
23 26 31 37 48 56 51 56 56 56 58 61 61 52 50 52 51 46 35 43 40 40 37 36 33 26 27 37 36 39 35 33 26 21 21 26 32 32 33 34 33 31 30 27
26 25 26 28 40 57 65 55 56 60 59 61 61 58 58 55 58 50 41 34 43 41 41 44 34 22 25 31 33 37 35 33 32 27 21 23 24 30 32 33 34 33 31 30
30 33 34 35 33 44 64 67 57 55 58 60 61 60 61 63 60 61 48 32 40 45 45 42 35 32 30 21 32 44 45 40 35 34 26 23 21 21 25 34 36 35 33 32
32 34 34 31 29 33 51 65 68 66 59 61 61 56 59 68 65 64 59 44 36 40 45 48 42 42 38 33 37 43 43 40 39 35 32 28 23 22 23 31 37 36 36 33
23 27 31 33 24 26 27 43 60 74 74 72 71 64 60 67 72 69 64 62 46 41 45 47 48 48 44 40 37 41 45 46 43 37 34 33 29 27 26 26 35 38 37 36
22 25 27 28 29 23 25 36 41 57 76 76 77 72 68 70 74 75 70 64 63 54 44 42 54 49 47 51 47 44 35 42 45 33 36 34 31 30 28 27 32 39 39 38
18 19 21 23 26 25 24 26 34 49 65 69 77 76 75 75 77 73 76 76 64 66 57 52 56 51 58 60 48 50 38 35 44 46 45 39 35 32 30 30 33 38 39 38
14 18 19 19 23 27 23 24 30 45 54 61 70 79 80 80 80 76 76 79 81 74 70 63 59 63 66 63 56 53 41 38 38 53 53 50 39 35 34 32 31 33 36 36
11 12 15 20 21 25 23 24 27 30 41 53 60 71 81 84 82 80 80 81 82 86 79 77 70 69 61 63 62 57 40 40 42 34 52 59 41 34 31 31 29 33 34 35
14 18 17 17 19 22 22 22 23 27 34 37 49 60 75 85 84 85 82 80 83 88 90 75 73 79 72 74 70 61 49 42 41 35 37 44 44 41 36 32 31 32 31 30
16 17 16 17 21 21 24 23 26 30 30 31 37 38 55 74 81 85 86 83 80 82 90 87 78 73 71 81 70 59 58 50 49 47 34 44 48 38 41 41 38 32 28 26
18 19 20 19 19 20 23 23 26 30 32 31 31 36 41 48 60 80 86 88 86 85 83 93 87 85 85 80 67 75 68 58 57 50 53 45 46 44 46 44 40 36 32 29

GFSCGP_500_spd_063.txt.gz
Wind_Speed
27 28 26 26 23 23 23 24 28 26 25 21 24 18 17 15 9 6 6 13 7 11 14 21 19 18 16 15 16 18 19 20 16 14 12 9 8 12 8 10 10 10 10 12
31 25 25 29 28 27 25 24 25 29 29 23 22 25 25 22 17 10 14 13 9 11 13 20 19 17 20 20 20 21 22 23 18 15 12 9 8 10 9 10 10 11 9 9
31 27 27 28 31 32 28 21 25 30 32 31 25 23 23 20 17 14 13 12 11 13 17 20 21 19 19 21 22 24 24 22 18 16 14 10 11 8 11 12 12 12 10 10
33 29 32 31 28 31 30 21 26 31 33 32 29 27 24 24 22 16 15 12 14 17 12 16 21 21 20 22 24 26 25 22 20 17 17 15 11 10 11 12 13 12 11 12
35 33 32 32 28 29 25 31 33 38 35 33 32 30 26 25 19 17 10 7 14 25 18 18 21 21 24 21 23 27 27 24 21 21 19 16 12 11 11 13 14 13 12 11
39 35 33 31 32 32 32 33 37 40 40 38 33 30 28 22 13 13 12 9 11 22 21 20 24 22 20 21 21 25 26 23 21 20 18 16 15 14 13 14 14 13 12 11
40 38 35 35 33 33 35 35 34 38 41 40 33 31 24 21 19 16 9 13 17 34 20 19 20 19 18 18 18 23 26 23 21 20 19 17 17 15 14 13 14 14 14 12
40 39 39 38 36 34 35 36 36 36 38 41 37 35 28 25 23 22 19 17 14 32 25 17 18 20 21 22 22 21 24 27 24 22 22 21 18 17 15 15 15 13 13 13
40 38 40 41 40 36 35 36 35 39 40 43 39 38 35 32 30 28 22 19 15 24 25 22 19 18 21 24 26 24 25 28 28 24 23 23 20 18 18 18 16 13 11 11
37 38 40 41 42 41 39 39 40 39 42 42 37 42 43 41 39 33 28 21 23 28 24 23 23 17 17 24 28 25 25 26 29 30 26 24 24 22 21 20 18 16 15 13
32 33 35 40 42 42 43 42 44 42 42 41 38 40 43 46 44 40 34 30 29 29 20 22 31 28 25 23 23 25 26 25 24 27 30 27 25 25 23 20 18 16 15 13
28 27 26 35 40 42 44 44 45 46 48 46 43 42 44 39 42 41 34 31 35 32 28 27 23 30 28 29 27 23 23 28 28 28 30 31 30 28 27 24 22 19 17 16
23 26 32 37 38 42 44 46 46 47 48 47 47 48 46 43 39 40 38 36 35 39 35 36 31 32 33 33 35 29 27 27 33 35 33 31 32 32 30 28 27 24 22 20
16 21 28 41 44 42 41 44 46 48 50 49 51 54 50 49 42 42 42 41 40 40 39 37 34 34 35 38 40 36 32 30 30 34 38 35 33 33 34 32 31 29 26 25
20 21 20 26 46 47 45 46 47 49 51 50 54 57 55 52 49 49 44 45 43 44 43 41 39 40 39 39 43 40 41 38 36 33 34 38 39 37 36 37 35 33 31 28
23 25 24 23 25 43 52 49 52 54 55 53 55 57 58 56 52 49 51 51 47 51 49 47 46 42 42 40 42 47 45 41 36 37 34 35 43 43 41 39 39 38 35 33
27 28 28 28 25 24 34 55 58 59 61 59 59 60 62 60 58 53 51 53 51 52 55 51 51 46 50 39 39 48 43 45 42 41 39 37 36 43 44 43 43 41 38 36
26 29 31 32 34 34 37 37 45 68 66 67 66 64 65 64 62 60 56 55 58 54 57 55 54 50 44 25 23 36 40 48 47 44 43 41 37 36 43 45 44 43 42 39
29 30 34 35 35 35 39 41 43 41 72 71 75 72 72 71 66 61 62 61 59 61 59 60 57 52 48 39 33 35 33 46 44 43 44 45 41 38 39 40 42 44 45 43
20 23 26 29 32 35 31 35 40 43 45 73 77 78 78 75 76 68 66 64 63 61 62 61 62 59 57 51 40 41 36 40 54 53 45 43 44 41 39 38 37 40 46 46
16 18 23 26 29 32 31 32 37 41 40 50 73 81 83 83 80 73 72 71 68 68 61 65 66 65 63 58 49 51 43 40 48 50 46 47 44 44 40 40 40 39 42 50
13 14 13 16 24 27 25 28 35 37 35 33 47 72 88 87 87 81 76 76 75 74 71 67 68 69 64 61 54 52 48 46 45 47 47 51 49 48 46 43 42 41 41 44
6 6 8 11 16 16 16 21 28 31 34 38 39 47 75 91 90 90 84 83 77 77 77 79 70 72 70 62 57 56 54 57 39 36 36 47 52 50 43 41 41 41 42 41
7 9 11 11 13 14 14 15 19 27 31 31 34 41 47 70 86 95 92 89 83 80 80 83 83 77 75 72 66 64 64 60 57 46 41 39 41 52 55 45 46 43 43 39
8 11 11 14 18 19 18 19 21 22 22 26 31 32 35 40 61 77 87 91 90 83 83 83 91 87 86 75 76 76 75 66 59 55 48 44 55 51 54 54 50 45 40 38
11 10 11 13 18 22 22 23 23 25 26 25 25 28 31 31 32 44 62 78 88 90 85 86 85 93 86 82 70 78 75 69 61 56 52 50 55 60 68 67 55 48 42 37

GFSCGP_500_spd_066.txt.gz
Wind_Speed
29 30 25 23 23 25 24 24 27 25 23 18 26 25 23 20 19 11 21 17 12 12 16 17 16 19 19 20 20 19 20 19 17 17 13 11 15 14 12 12 11 12 11 10
29 24 27 31 28 26 25 27 26 29 29 24 22 24 24 22 19 18 17 18 15 11 14 19 16 19 20 22 22 21 23 21 16 15 12 11 13 15 14 12 13 13 13 10
30 27 29 29 30 29 27 25 27 30 31 29 24 23 25 22 12 12 18 19 17 10 17 21 19 20 21 20 19 22 25 23 17 14 14 13 15 16 17 14 13 10 12 13
31 30 31 28 29 30 29 26 27 30 31 31 29 25 21 23 22 20 15 16 12 12 17 20 20 20 21 21 19 22 25 23 19 17 16 15 13 14 16 15 14 11 10 13
32 31 31 31 27 26 27 31 30 31 31 28 30 28 24 19 20 19 15 16 13 10 18 23 24 23 24 22 22 22 25 22 20 18 17 14 12 15 15 16 15 15 13 13
36 34 32 30 31 30 31 32 34 33 32 29 28 26 26 21 24 25 20 15 17 18 16 18 23 22 25 24 23 24 25 24 23 21 17 15 14 15 16 18 17 17 16 14
37 36 35 33 32 33 33 31 34 34 36 33 28 25 22 26 24 26 24 23 21 22 22 15 20 21 23 21 19 23 26 23 23 23 20 18 16 16 17 17 17 18 17 16
37 37 37 36 36 33 33 33 33 35 38 36 34 31 25 25 26 27 22 19 18 25 28 18 21 20 22 24 23 24 26 26 23 23 22 20 18 17 16 18 18 16 16 14
36 36 37 38 37 36 34 34 35 37 41 40 41 38 32 29 27 24 25 17 18 17 30 22 19 21 23 25 25 23 27 28 27 25 23 22 20 18 19 20 19 17 16 14
37 36 37 38 39 38 37 36 37 38 40 41 41 37 39 33 31 28 25 22 22 18 32 29 26 24 24 28 28 26 28 30 32 30 26 25 23 21 20 19 18 18 16 15
33 34 38 39 41 40 40 41 41 40 40 40 39 38 38 36 34 32 30 27 25 21 32 32 27 30 28 31 31 30 28 30 32 31 28 27 26 25 23 20 18 16 15 14
25 28 32 36 39 40 41 41 41 43 42 42 42 40 38 36 36 34 35 33 31 28 35 31 33 32 34 31 32 32 33 31 33 36 35 30 29 27 25 22 20 17 17 15
25 28 28 34 38 40 42 42 42 42 43 44 45 45 43 40 37 34 35 37 37 36 42 35 39 38 36 37 35 36 36 38 38 37 37 36 33 30 28 27 26 23 20 17
29 27 33 37 40 41 41 43 44 44 45 46 48 48 47 43 38 35 36 36 37 37 42 44 42 39 39 40 38 34 33 35 40 38 38 38 37 35 34 33 31 28 26 23
28 29 32 37 42 44 45 44 45 44 47 48 50 50 50 48 44 38 37 37 39 39 41 48 47 44 39 42 43 42 40 35 33 35 39 36 37 38 38 38 36 34 31 28
15 17 17 22 29 37 43 44 43 44 46 49 52 53 53 52 50 45 39 41 41 43 47 49 47 47 43 43 44 45 42 37 36 35 33 35 38 38 39 40 40 39 36 34
18 20 22 23 25 26 30 41 46 45 46 48 51 52 54 55 54 53 47 46 51 50 49 54 53 47 46 44 42 41 39 38 43 41 37 35 34 37 41 42 43 42 40 39
22 22 23 26 30 32 33 33 37 45 53 52 52 54 55 55 56 57 55 51 56 58 58 58 60 53 50 46 45 44 43 44 48 50 48 46 44 40 40 45 45 44 44 42
26 23 24 25 28 32 33 34 36 36 39 47 58 63 60 60 60 59 59 58 56 63 62 63 61 59 57 50 49 49 45 52 49 52 55 51 47 42 40 38 44 48 48 46
25 25 25 27 30 34 34 36 37 38 38 46 50 53 63 72 67 64 66 64 63 62 68 68 65 63 63 60 53 56 49 56 53 56 53 54 51 46 41 41 41 46 49 49
17 20 21 23 27 27 28 29 35 37 34 38 44 56 61 65 73 73 73 72 69 68 67 67 72 68 66 65 59 57 59 46 39 52 51 52 49 46 45 44 42 41 43 48
15 17 17 18 19 18 20 25 30 35 41 45 47 48 49 58 71 76 81 79 78 75 72 71 71 74 70 66 65 58 59 39 41 43 46 52 51 52 48 46 43 42 41 41
9 10 10 11 12 11 13 16 22 26 30 37 42 46 51 51 52 70 79 88 85 81 80 77 74 75 72 69 67 67 61 53 51 47 45 47 54 56 51 51 47 46 44 43
7 4 6 8 8 6 8 11 14 18 24 29 36 43 49 51 50 50 60 81 91 90 85 83 81 77 76 72 71 71 71 63 62 57 55 46 43 58 54 51 50 51 45 43
17 16 16 16 12 10 11 15 18 20 21 25 25 29 37 46 49 46 45 50 71 93 94 88 84 81 81 79 76 75 74 73 70 67 65 56 56 61 49 55 56 54 47 45
20 19 18 20 21 22 25 25 25 27 27 29 29 31 33 35 39 45 41 40 42 63 93 96 89 85 84 86 84 78 77 80 77 71 65 58 51 47 45 45 53 62 57 50

GFSCGP_500_spd_069.txt.gz
Wind_Speed
31 30 26 24 27 29 30 30 29 26 23 17 19 21 20 13 16 17 16 16 12 12 12 11 16 17 15 15 16 16 17 20 18 17 11 10 13 15 14 14 11 12 9 9
30 26 29 32 32 31 28 28 30 31 29 24 19 20 21 18 14 11 20 21 17 12 13 11 13 17 17 17 18 18 18 20 18 16 12 12 14 15 16 14 12 11 10 7
28 27 31 34 33 31 27 28 31 33 33 32 23 22 22 20 18 13 17 13 17 14 16 15 15 20 19 19 19 21 21 21 18 16 15 15 16 16 17 15 13 11 10 8
33 34 33 32 33 33 30 29 31 32 31 36 29 24 21 19 15 13 17 21 22 15 15 19 17 21 21 22 23 23 23 22 18 17 18 17 15 15 16 16 15 13 11 10
33 32 34 31 29 33 32 31 32 32 32 31 33 26 24 22 22 18 18 19 19 18 16 19 17 21 22 20 23 25 24 22 19 18 17 16 16 17 18 19 16 16 13 12
35 33 34 34 33 31 33 35 35 33 31 29 30 30 27 25 27 26 26 21 19 18 18 20 19 20 22 22 22 24 26 25 21 19 17 17 17 19 18 20 17 16 15 14
38 34 36 35 36 36 34 35 36 35 34 29 26 30 33 29 26 29 27 24 22 18 21 22 20 19 21 20 20 22 26 27 25 21 18 18 18 18 19 18 18 17 16 14
39 37 37 36 35 35 35 34 33 36 34 28 26 28 33 33 29 25 27 23 20 16 23 24 22 23 22 23 22 24 24 27 26 24 21 19 18 18 19 19 19 18 17 16
38 39 38 37 38 37 37 37 36 35 33 29 32 30 30 32 30 27 26 23 19 20 22 28 25 23 24 25 25 26 26 28 28 27 25 22 21 20 21 21 20 19 17 16
36 37 39 39 38 38 38 38 39 38 37 35 34 34 33 31 29 28 27 25 21 20 23 26 24 24 25 27 30 30 32 32 32 29 28 27 27 24 22 20 21 20 19 16
32 36 37 39 40 39 38 40 40 40 39 39 36 36 33 32 32 30 29 26 26 22 24 27 21 26 28 30 32 34 34 35 36 34 30 28 28 26 24 23 21 21 20 18
28 32 33 37 38 39 39 40 41 42 42 42 39 37 34 32 30 32 33 30 28 26 24 28 31 25 29 31 33 35 37 37 39 39 36 32 32 29 27 25 23 22 21 20
23 27 32 34 37 38 39 40 41 42 43 44 42 42 36 33 33 32 33 34 32 31 29 29 35 27 27 31 33 36 38 37 38 41 40 35 33 33 30 29 27 24 22 21
26 27 29 33 35 36 38 39 40 42 44 44 47 44 41 37 34 33 33 36 37 36 35 35 32 29 38 34 34 35 37 39 39 38 39 38 35 35 34 33 32 30 27 24
29 32 34 36 37 40 42 42 42 43 45 46 47 46 45 42 39 37 36 37 39 40 40 40 40 39 37 37 35 37 37 38 38 40 38 36 38 37 35 36 35 33 30 28
31 30 32 32 35 37 38 40 41 43 45 46 48 47 47 47 45 42 39 39 39 40 41 43 44 45 46 44 40 38 39 40 40 40 39 39 41 40 41 39 38 36 34 33
20 21 22 24 27 31 35 38 39 40 40 42 46 47 48 48 48 47 45 45 44 44 43 44 43 45 50 51 48 42 43 46 50 48 40 41 43 42 40 42 42 40 38 38
21 19 19 21 26 29 28 30 35 40 42 42 42 44 46 48 48 49 49 49 46 48 48 47 47 47 49 52 53 50 47 52 50 48 44 39 39 39 43 44 42 42 43 42
25 25 23 23 24 28 31 32 32 32 36 43 46 46 45 47 47 48 50 51 51 51 52 52 52 52 52 54 56 52 48 50 47 36 40 40 43 40 39 39 43 46 45 44
26 27 25 24 22 25 28 30 35 36 39 41 41 43 47 51 54 55 53 55 55 56 56 58 58 58 59 59 60 59 56 52 51 50 48 45 50 47 45 44 42 43 45 46
24 24 23 24 25 26 28 33 37 39 40 43 46 45 46 48 51 54 59 63 62 61 62 60 66 67 65 65 65 65 63 60 59 57 61 50 52 51 49 53 50 48 47 44
15 17 19 21 21 21 23 27 31 34 36 38 41 44 45 45 47 53 60 61 65 69 69 69 66 71 74 71 70 69 68 68 64 62 58 54 50 46 48 52 54 52 48 44
10 12 15 17 15 15 18 21 24 27 31 34 38 42 45 49 52 54 54 57 68 72 72 75 75 72 73 80 78 76 74 72 68 67 64 58 55 45 55 57 59 54 50 46
11 11 12 12 9 10 12 13 16 19 22 26 30 35 38 38 42 49 53 58 60 63 73 80 80 81 78 77 82 81 80 78 74 69 67 61 56 54 58 62 61 57 54 48
16 18 19 19 18 17 16 16 16 17 22 26 28 29 32 35 39 41 43 52 56 61 63 67 78 85 85 83 82 84 87 85 81 76 73 67 61 52 54 62 61 57 55 51
24 22 23 25 24 21 21 24 26 27 25 26 30 32 34 36 38 40 43 46 51 56 56 56 58 69 87 90 88 87 87 87 86 82 75 71 66 60 62 55 55 56 58 57

GFSCGP_500_spd_072.txt.gz
Wind_Speed
27 29 28 25 28 38 33 30 29 24 19 18 22 24 23 16 13 12 13 15 18 14 11 11 16 17 15 16 16 17 18 17 16 14 10 8 11 13 13 10 10 10 11 10
28 26 31 33 32 33 30 31 33 29 25 22 19 19 21 18 13 12 13 21 16 13 12 11 17 17 18 17 18 18 17 19 15 12 9 8 12 15 13 12 9 10 10 8
29 28 32 34 35 32 31 30 36 34 33 27 21 17 20 18 16 13 12 19 19 17 15 14 19 20 17 18 20 20 19 19 17 14 12 12 15 16 15 13 13 10 10 8
34 33 33 36 35 35 32 32 35 35 31 27 27 12 21 21 18 18 17 16 17 16 16 13 18 20 19 19 20 21 21 20 19 18 16 14 14 13 15 14 12 12 9 8
36 35 36 35 36 37 37 33 33 35 31 37 31 24 22 23 22 22 26 21 20 17 14 12 17 22 23 20 19 22 22 22 21 19 17 15 15 15 15 16 13 12 11 10
42 38 39 36 36 38 42 36 33 31 29 30 30 30 26 28 25 26 20 21 18 13 15 16 16 22 23 20 19 20 22 24 23 20 18 16 15 16 16 17 16 15 14 12
42 39 40 40 39 40 39 39 35 33 33 24 26 34 37 32 30 28 24 19 16 14 14 17 16 18 22 20 19 20 22 25 25 21 18 17 17 17 16 17 18 17 15 13
41 43 41 42 41 40 39 38 28 31 31 26 28 30 42 34 32 31 30 24 19 17 17 17 20 21 23 23 21 22 24 27 27 25 21 18 19 18 18 18 18 16 16 14
39 42 43 41 41 42 42 41 31 28 29 24 30 37 32 38 36 30 25 25 23 20 22 23 23 25 25 25 23 23 25 27 30 28 23 21 21 20 20 20 20 18 17 16
40 41 43 41 40 41 42 40 40 36 26 27 29 34 39 38 40 34 27 23 25 24 21 27 27 26 27 28 28 28 29 29 33 33 29 26 25 22 20 20 21 21 19 17
37 39 42 42 43 43 42 43 42 32 27 25 28 36 37 35 35 36 31 27 26 23 24 26 30 30 27 31 31 31 31 32 34 32 30 28 27 26 24 23 22 22 22 20
35 38 38 43 42 42 42 45 43 40 38 35 28 37 34 36 35 34 31 30 29 29 25 30 36 28 27 30 32 31 32 32 34 35 35 32 32 29 26 26 25 24 24 22
39 38 36 38 39 41 43 43 42 43 39 30 30 38 33 35 33 34 34 32 31 31 30 28 27 23 27 26 26 28 30 32 33 35 38 36 32 30 28 29 28 27 27 25
19 30 38 26 33 39 42 42 43 43 41 28 34 43 38 35 35 35 33 35 36 34 33 32 31 30 29 32 28 30 31 31 32 33 36 37 35 33 32 31 30 28 28 27
22 22 24 37 39 39 40 41 42 44 45 44 39 45 41 37 37 37 38 38 40 40 39 37 36 35 33 37 37 33 34 35 35 34 34 35 38 37 35 34 32 31 29 29
28 27 29 30 30 35 39 40 43 44 45 46 52 46 43 43 41 41 40 40 41 45 45 44 43 42 41 38 37 34 34 43 39 38 38 39 39 41 41 37 35 35 33 31
32 31 30 31 30 32 34 37 39 43 44 48 48 49 46 46 45 44 44 44 44 45 45 47 48 47 46 44 42 43 41 36 32 41 39 41 41 42 45 45 42 39 37 36
26 27 28 29 26 31 35 35 37 40 40 44 46 47 47 47 48 48 48 47 47 47 47 48 48 49 49 51 49 46 46 44 41 37 41 45 46 46 47 48 46 44 42 40
21 22 23 24 24 28 28 29 34 37 41 43 44 45 46 47 48 51 51 51 51 52 52 51 50 50 50 50 51 50 46 48 48 47 45 51 51 56 51 50 44 43 44 43
28 28 29 29 29 28 32 30 33 34 37 38 42 46 47 47 48 56 52 53 55 56 56 56 56 56 55 53 53 54 52 50 51 52 52 51 45 55 53 53 48 47 47 45
27 31 32 33 32 31 25 23 30 36 41 39 40 41 43 46 49 55 53 54 55 56 59 60 60 61 60 59 58 57 57 56 54 54 53 55 52 49 43 49 44 44 43 43
15 20 24 27 28 29 29 29 30 32 35 39 42 45 45 46 47 50 50 52 55 58 59 61 62 64 65 65 64 63 62 60 60 59 59 59 57 50 48 45 47 46 46 45
10 14 18 21 23 27 28 27 27 28 31 37 39 44 47 49 50 52 54 54 56 56 58 59 63 66 67 70 71 70 69 67 65 64 64 63 61 59 59 55 52 50 51 50
14 11 11 14 16 19 20 20 22 24 26 28 30 34 39 43 45 48 51 54 56 57 57 60 63 66 68 71 73 75 75 74 72 71 68 68 67 64 63 59 56 50 44 46
19 18 18 17 17 17 16 16 17 19 21 23 24 24 28 31 35 39 45 48 51 55 59 62 65 67 69 72 74 77 79 80 79 77 77 74 72 69 68 61 60 55 50 49
23 24 23 23 25 26 26 25 25 24 24 26 29 28 28 28 31 35 37 40 42 48 55 56 58 63 67 69 72 78 80 82 85 85 83 82 80 77 75 72 65 62 56 57

GFSCGP_500_spd_075.txt.gz
Wind_Speed
30 31 29 26 28 24 18 22 21 22 20 16 20 15 24 21 16 11 10 10 25 18 14 13 15 16 15 15 14 15 15 16 15 11 8 6 7 9 9 8 7 8 7 6
31 30 30 30 30 36 29 25 23 27 17 16 21 24 23 24 20 13 10 14 16 17 13 12 14 16 17 15 15 17 17 17 14 10 9 8 8 11 9 8 6 8 7 7
29 27 33 36 35 35 30 25 24 31 23 21 17 14 13 22 22 16 12 13 19 18 17 15 16 17 17 16 17 18 20 18 14 12 11 10 9 9 12 10 9 8 6 6
33 36 38 38 38 33 30 32 26 28 28 27 22 10 23 17 23 23 14 16 14 16 16 15 18 19 20 20 17 18 19 18 17 14 13 9 9 10 11 10 9 9 6 5
36 42 39 36 37 37 24 31 34 30 28 16 24 20 21 23 29 22 20 16 14 21 15 14 16 19 20 20 18 18 19 18 18 16 14 10 11 12 15 11 10 9 7 6
38 41 38 36 36 37 36 34 37 33 24 28 24 22 23 16 24 26 23 18 18 15 14 13 12 19 20 20 20 19 19 20 19 17 16 14 12 12 13 12 12 9 7 7
41 45 42 41 39 39 39 33 30 26 25 22 24 23 32 35 26 25 28 24 23 18 13 15 17 16 20 19 19 20 19 20 20 20 18 16 14 14 13 15 14 10 9 8
41 42 41 42 41 34 39 29 25 20 22 21 19 24 45 45 28 29 27 19 15 16 13 12 15 18 21 22 20 20 20 21 23 23 21 18 16 16 15 15 15 14 12 12
26 25 40 45 37 32 33 39 29 18 20 21 27 40 46 44 42 29 30 25 19 18 20 19 17 17 21 23 23 23 23 22 24 26 23 20 19 18 16 15 16 16 13 9
34 35 44 42 47 47 42 34 34 29 25 28 30 34 36 41 36 36 32 32 31 29 25 31 24 20 21 24 26 26 26 26 26 28 27 23 22 20 18 16 16 18 16 15
41 27 32 46 47 41 44 40 36 28 23 26 24 32 46 37 33 36 37 32 30 29 29 26 24 25 24 26 29 29 29 29 29 28 30 27 24 23 22 19 18 18 19 18
45 39 22 38 41 48 48 32 35 35 34 26 32 35 42 36 32 32 38 37 34 30 28 26 27 25 28 26 25 26 31 30 30 30 31 31 29 26 24 22 20 19 20 20
40 36 19 36 44 45 45 46 44 31 26 31 30 37 31 38 35 34 37 38 36 37 33 29 26 31 36 33 29 27 29 32 32 30 29 31 31 27 26 26 23 21 20 21
39 42 33 24 21 34 44 46 46 44 32 28 33 40 31 37 35 37 37 39 39 38 38 36 35 35 32 26 36 24 26 28 27 26 26 28 31 30 27 28 26 24 22 22
26 38 47 37 39 34 30 48 47 46 41 25 37 43 49 41 40 35 39 41 41 39 40 38 37 35 31 26 21 31 27 29 30 28 28 28 29 32 32 29 27 27 26 24
18 13 26 41 43 47 46 47 51 49 46 43 27 46 50 48 44 38 39 41 42 44 44 42 40 39 36 37 32 29 24 32 34 32 30 33 32 32 33 35 34 32 30 28
25 21 24 18 34 47 49 52 43 44 46 42 37 58 47 42 43 41 40 41 43 45 47 48 47 45 43 41 40 38 36 41 34 33 37 39 37 36 36 37 39 37 35 35
30 32 27 22 28 28 32 42 46 40 47 44 52 56 53 51 47 43 44 44 44 44 46 48 49 49 49 48 47 46 44 44 45 34 32 34 43 39 38 37 38 40 40 37
27 29 31 29 27 22 32 32 33 36 43 39 44 48 49 48 49 49 50 48 48 47 49 49 49 50 52 53 51 50 49 48 45 43 39 39 31 41 40 38 38 38 41 42
19 23 26 28 30 25 31 29 29 32 40 38 44 45 46 46 47 56 50 51 50 50 50 51 51 52 52 52 53 54 54 54 52 50 48 44 44 38 39 46 43 43 43 44
26 27 27 28 29 31 31 24 25 29 37 34 38 41 44 49 52 52 50 52 54 55 55 55 56 56 56 55 55 56 56 55 54 53 52 50 48 46 45 44 36 45 42 49
25 31 34 35 37 38 34 31 33 32 32 36 35 37 38 39 41 48 52 50 52 55 58 59 60 61 61 61 61 60 59 58 56 56 56 54 52 52 52 51 47 43 42 52
18 22 27 33 40 41 41 37 37 36 34 34 36 37 40 41 42 44 47 46 46 50 55 59 60 62 64 66 66 65 65 64 62 61 59 59 58 56 55 53 50 46 41 38
20 20 20 24 28 31 35 36 38 39 38 36 37 39 41 41 42 44 48 49 49 49 50 52 55 58 62 65 67 69 70 71 70 68 66 65 63 62 60 57 55 54 51 48
26 25 25 24 23 25 29 32 33 34 34 35 35 35 35 37 39 43 47 49 51 53 52 54 56 57 59 62 64 68 70 73 73 74 73 71 70 68 66 65 62 59 59 55
25 31 31 27 30 28 27 27 28 28 28 29 30 30 31 32 33 34 38 41 44 49 52 52 53 55 57 60 63 66 68 70 73 75 76 76 76 75 74 71 68 67 64 63

GFSCGP_500_spd_078.txt.gz
Wind_Speed
32 33 31 29 27 22 17 15 21 19 22 13 26 29 35 13 13 8 8 9 9 18 16 16 13 13 14 14 13 13 12 12 11 8 5 4 5 6 7 5 5 6 4 6
33 33 30 28 29 29 27 21 18 19 23 22 22 22 22 15 14 12 13 13 14 19 18 15 14 13 15 15 14 14 12 12 11 8 6 5 5 8 6 6 4 4 3 4
31 28 32 33 30 31 34 29 21 27 26 11 19 22 14 16 14 20 17 15 15 15 20 17 14 14 16 16 15 14 14 12 12 10 8 3 2 6 4 5 2 3 3 2
32 32 35 36 35 35 33 30 18 27 16 23 17 10 23 17 17 14 22 15 15 14 15 17 14 12 16 17 16 15 14 13 13 11 8 5 8 10 9 5 4 4 1 2
35 37 40 41 40 35 28 32 28 28 30 23 25 19 23 27 26 19 19 16 15 13 15 15 13 10 13 17 18 17 15 14 14 12 9 7 9 9 6 8 5 3 3 1
39 38 40 41 42 40 32 30 38 18 23 25 20 18 31 36 31 21 19 25 22 17 16 15 14 13 14 15 16 17 16 17 17 15 12 10 9 9 3 8 7 4 5 3
39 36 43 41 41 40 37 30 30 34 24 21 18 17 32 41 40 28 8 22 17 12 16 14 15 11 12 15 16 18 18 18 18 17 14 13 11 11 11 10 10 7 5 6
29 38 43 43 40 37 37 31 25 26 24 17 20 24 39 47 41 21 17 24 22 18 22 25 21 17 17 17 18 19 19 20 20 20 17 14 14 14 13 12 9 8 7 11
28 31 30 36 36 38 27 36 30 18 12 14 23 35 45 48 41 35 28 24 32 22 30 31 26 21 22 16 18 20 21 22 23 22 20 16 15 15 14 10 7 13 16 13
30 31 27 28 39 42 40 32 34 34 35 26 28 34 44 44 37 36 37 28 25 27 32 30 31 19 23 20 19 20 23 22 24 25 23 19 16 16 15 14 14 16 16 12
36 36 30 27 43 46 46 34 48 36 24 20 25 41 41 48 44 36 34 34 32 31 30 30 35 30 23 22 20 24 26 26 25 25 25 24 20 17 15 15 15 17 18 13
37 36 17 20 36 43 45 38 36 41 34 29 36 40 43 47 36 30 34 32 36 35 34 30 34 16 27 24 23 32 29 29 28 26 26 26 25 22 18 16 16 16 19 14
47 40 22 15 21 41 52 53 40 34 31 39 34 40 29 32 37 27 24 32 34 37 34 27 25 24 27 29 32 29 30 30 31 24 24 26 27 26 23 20 17 16 18 17
40 41 21 30 27 23 41 47 47 46 39 24 38 41 40 31 25 29 28 28 34 38 37 34 31 28 30 28 27 23 27 30 24 31 26 29 26 27 27 25 22 19 18 18
43 47 25 30 30 32 27 38 45 50 48 31 34 45 37 29 30 27 29 30 37 39 39 39 39 37 35 34 35 26 35 33 27 22 28 23 27 30 24 27 24 23 22 21
44 42 51 51 33 35 35 23 33 44 48 23 45 39 42 47 38 36 36 32 38 42 43 43 42 42 40 40 36 32 34 24 27 27 26 28 27 16 27 31 28 26 24 24
32 39 37 47 40 40 45 48 46 50 47 32 30 36 55 42 48 43 41 39 37 45 46 46 44 44 44 44 43 41 38 33 27 30 24 31 32 31 26 27 28 30 30 29
23 30 26 13 23 54 45 47 54 55 27 36 49 34 42 53 47 44 42 48 44 43 49 49 49 48 48 47 46 43 40 43 37 32 26 28 33 34 32 32 34 32 34 34
24 25 24 26 23 20 35 47 50 40 33 44 52 57 57 54 53 52 45 46 46 46 44 48 50 51 50 51 50 46 44 44 43 41 39 37 33 34 23 37 35 35 35 34
20 23 30 31 32 26 30 27 33 46 52 50 43 49 58 61 54 53 56 54 50 47 47 49 49 50 50 51 51 50 49 49 49 47 44 45 42 39 40 29 28 39 36 36
21 20 22 26 29 28 28 28 32 32 35 36 45 53 52 58 55 61 57 52 55 54 53 53 53 53 52 52 52 52 51 51 51 53 52 51 48 46 41 40 36 33 41 41
18 24 27 26 26 28 39 42 35 34 32 32 32 35 45 46 43 51 58 52 50 53 55 55 55 55 55 55 55 55 55 54 53 53 53 52 52 52 49 46 45 44 41 40
18 21 23 29 34 37 40 38 35 33 33 34 35 35 37 38 38 44 46 48 50 51 52 54 55 57 59 59 58 58 58 57 56 55 55 55 54 54 54 52 50 48 48 46
23 25 25 26 28 34 42 44 40 40 41 40 42 38 38 35 34 39 44 45 46 46 48 51 53 57 58 60 62 63 63 63 62 61 61 60 58 58 58 57 56 54 52 51
22 28 28 29 30 31 31 36 35 38 41 39 40 41 41 41 38 38 41 42 41 43 44 46 49 52 55 57 59 63 64 65 66 66 66 67 67 65 63 63 61 60 57 56
21 25 30 30 34 35 34 33 32 33 35 37 38 39 38 39 39 39 40 40 41 43 44 45 47 49 51 54 57 58 60 61 64 67 69 69 70 71 71 70 68 66 64 61

GFSCGP_500_spd_081.txt.gz
Wind_Speed
32 29 31 29 24 20 23 20 17 17 16 25 16 19 16 15 11 14 6 5 6 6 12 14 10 12 12 12 10 11 9 6 5 4 3 4 5 8 11 10 8 10 8 9
34 33 30 31 30 27 26 30 19 21 25 26 24 15 10 20 17 17 11 5 11 6 15 14 10 12 14 12 11 11 10 8 7 7 5 4 5 6 8 8 8 9 6 8
32 29 31 30 33 33 29 32 23 18 23 28 26 15 10 13 20 11 14 13 12 9 15 17 12 12 14 13 12 12 11 10 9 9 6 6 7 7 7 7 7 8 6 7
32 32 35 33 32 35 33 30 18 20 27 21 17 11 10 12 12 10 13 18 14 11 11 20 14 10 12 15 15 13 12 12 11 11 8 7 10 8 8 5 4 7 5 5
34 35 37 38 35 34 35 34 21 20 19 17 17 16 13 17 17 13 13 19 19 15 14 12 18 11 13 15 16 15 14 14 13 11 9 7 9 11 8 6 6 4 5 4
37 37 35 39 39 37 37 38 28 22 19 34 20 15 24 24 20 21 18 22 17 13 15 17 19 16 12 13 13 15 16 16 15 13 10 8 7 9 10 10 7 6 3 1
40 41 40 38 38 41 39 47 34 26 25 25 19 21 33 27 23 23 29 19 20 18 16 18 21 19 16 15 14 14 16 17 17 15 13 11 9 10 9 8 11 7 3 3
40 42 43 40 40 42 40 49 40 30 25 19 15 25 28 35 29 26 24 3 15 16 21 17 19 19 16 18 17 16 16 18 20 17 16 13 11 11 12 9 13 8 7 4
24 33 30 40 43 36 35 41 37 14 18 26 18 28 33 34 35 29 16 19 12 22 17 22 17 22 21 16 16 17 21 21 22 21 19 17 15 14 13 14 12 9 10 4
32 36 41 37 28 34 30 36 38 30 26 23 26 33 34 35 36 30 18 14 20 19 20 29 21 22 22 20 25 27 26 25 25 25 23 19 17 17 16 15 13 11 11 8
37 28 33 29 36 31 37 40 46 40 38 35 33 30 36 38 31 28 25 22 22 24 27 23 21 20 30 29 26 25 25 24 24 25 24 22 22 21 18 16 14 13 12 12
44 29 37 36 33 35 39 40 37 47 42 32 33 40 37 36 38 30 32 29 28 26 27 29 25 27 34 30 27 24 28 31 25 22 23 24 25 23 21 18 15 12 12 14
38 35 32 35 37 37 44 35 45 46 47 39 37 39 28 29 35 39 31 29 28 30 29 32 28 25 22 26 28 30 29 33 24 22 23 23 25 25 24 22 19 15 13 12
36 38 34 38 33 37 43 46 49 41 53 43 46 39 34 26 30 23 27 31 27 27 29 31 31 29 24 23 28 15 28 28 24 24 29 25 25 26 27 28 23 18 16 16
33 33 43 34 34 34 44 52 50 47 48 44 44 36 35 30 26 30 26 26 32 29 30 30 29 29 28 26 29 26 23 23 36 35 32 34 29 30 33 32 29 26 22 20
30 38 43 43 32 33 33 36 46 44 40 43 55 54 42 41 28 21 29 27 28 31 31 32 31 31 32 33 33 33 32 31 17 25 30 29 39 25 40 28 35 31 26 24
34 35 43 48 46 37 37 34 34 43 40 54 59 61 59 42 31 30 34 29 29 28 28 32 34 34 35 36 38 38 38 35 28 21 32 27 23 27 32 37 25 28 30 27
23 33 38 47 48 43 31 44 39 39 43 54 57 55 61 61 58 39 31 34 39 35 30 30 36 39 40 41 42 42 41 40 38 34 37 29 30 29 31 31 27 30 29 30
17 20 31 41 48 43 43 41 46 41 48 49 54 57 57 52 43 48 46 45 41 40 39 37 35 39 43 43 45 46 44 42 40 39 37 39 31 26 25 20 28 33 31 33
22 24 23 28 40 38 34 45 47 37 45 48 53 52 60 62 58 53 50 42 41 39 38 40 42 43 44 47 49 50 50 48 46 43 42 38 36 39 37 28 26 25 25 35
15 16 20 26 31 35 37 30 31 44 46 50 50 47 51 60 66 62 55 51 48 46 49 46 47 45 48 49 48 50 51 48 48 47 47 45 44 42 42 38 34 33 34 24
10 15 20 23 25 34 35 36 42 34 31 37 43 44 49 56 59 58 62 64 54 52 52 56 57 57 54 51 52 52 51 51 49 48 47 47 47 47 47 44 42 39 36 35
17 18 17 19 25 31 31 35 37 42 37 30 33 36 36 37 45 51 62 63 62 65 65 64 62 61 60 59 57 56 55 54 53 52 51 49 49 49 49 49 46 44 42 38
18 23 23 25 26 28 31 36 37 36 36 37 39 38 38 39 39 40 42 44 55 64 62 59 61 61 61 62 59 58 57 54 54 54 54 54 52 51 52 52 52 49 49 46
22 22 23 26 31 34 34 31 33 37 40 42 43 42 45 44 42 40 39 41 39 41 42 45 48 52 56 59 60 59 58 56 55 54 55 56 57 57 56 56 56 55 54 54
25 26 26 26 25 30 34 38 37 33 32 35 37 41 43 46 46 44 42 42 42 39 38 40 42 44 46 48 50 52 54 54 55 55 56 56 56 59 60 60 61 62 61 60

GFSCGP_500_spd_084.txt.gz
Wind_Speed
36 36 32 27 24 24 20 23 23 20 18 15 14 12 8 10 12 4 4 7 5 7 7 3 6 8 10 9 10 10 8 7 7 6 5 7 8 7 10 9 7 8 10 12
37 31 30 32 29 27 24 27 26 25 25 20 17 14 14 11 16 10 11 13 9 6 2 9 6 8 11 9 9 9 8 9 8 7 6 6 8 7 9 9 7 6 6 9
35 29 33 35 34 33 30 31 35 32 23 22 19 23 11 12 15 15 15 14 10 11 7 8 8 11 10 11 13 11 9 8 10 10 7 6 7 7 9 8 7 5 5 4
29 37 37 36 34 33 33 27 32 29 23 18 21 20 21 17 15 17 13 17 17 15 14 19 14 11 11 11 13 14 12 11 10 11 7 5 9 9 7 5 7 7 6 4
31 37 38 38 35 33 30 32 31 28 26 24 19 16 16 18 14 15 15 15 20 16 13 14 14 15 16 13 15 15 14 13 12 11 10 8 11 12 10 8 7 7 6 4
39 35 36 36 35 34 35 38 34 32 26 26 15 16 17 13 10 12 14 12 16 20 17 22 23 22 14 14 13 16 14 15 15 14 13 11 9 12 13 11 8 6 6 5
42 41 39 40 39 39 43 44 38 35 29 26 21 25 16 18 15 11 15 13 16 22 18 20 22 20 14 12 17 18 17 19 18 18 16 15 11 11 14 10 11 8 8 6
43 42 41 40 42 41 42 50 41 37 28 14 25 30 24 20 20 20 12 6 5 18 12 19 22 21 21 18 22 20 21 19 19 20 19 17 15 14 12 11 13 11 6 6
42 43 42 43 42 39 43 53 43 32 30 22 28 26 28 26 22 18 16 9 5 11 13 16 18 21 20 19 22 24 26 21 20 21 21 21 18 17 16 15 14 11 7 10
42 44 44 42 42 40 37 49 43 37 36 34 29 33 31 24 22 21 16 9 9 15 16 19 22 19 20 23 22 26 24 21 22 24 25 24 22 19 17 16 15 14 13 13
42 40 43 42 43 35 38 47 47 44 39 33 40 35 35 31 26 20 20 21 20 17 16 20 22 28 35 28 25 31 24 21 20 22 23 24 24 22 19 18 17 16 16 16
36 37 42 42 39 32 35 44 47 46 39 41 44 48 33 28 24 24 21 20 22 22 21 22 23 23 26 19 29 32 27 24 24 24 25 24 26 25 23 21 20 18 19 18
36 34 36 36 33 34 41 48 53 54 48 46 46 44 43 31 22 27 28 27 24 25 25 23 21 21 21 18 18 27 34 33 30 27 28 27 26 27 26 24 23 22 21 22
30 33 32 41 41 41 48 49 58 57 53 51 49 48 42 39 34 28 25 28 28 28 26 26 25 25 24 23 20 20 27 29 28 29 32 33 29 29 29 28 26 25 25 24
31 34 40 40 48 42 47 50 49 55 55 57 53 49 48 40 38 34 26 22 23 27 28 26 24 25 24 24 24 20 20 28 28 32 37 28 24 27 30 31 31 28 27 26
37 34 37 50 43 50 49 54 51 44 52 49 53 55 51 48 39 38 32 29 26 23 29 30 27 25 28 26 29 28 26 33 22 26 35 32 26 26 29 29 32 35 36 32
28 30 39 43 47 37 38 45 45 50 48 54 44 48 58 54 42 31 27 19 28 25 25 29 30 28 27 30 30 32 30 32 29 27 21 15 36 32 32 31 37 36 34 37
27 25 27 34 45 40 40 37 37 37 46 51 56 54 55 60 55 47 35 25 30 30 27 29 30 28 26 28 31 31 32 32 30 25 25 32 23 20 32 24 30 39 32 42
23 32 33 34 38 40 40 39 41 41 40 43 46 51 56 54 53 50 47 47 45 41 36 37 35 35 33 30 31 32 33 35 35 30 30 32 30 31 34 22 29 30 25 33
18 20 24 30 36 40 37 42 51 29 43 55 52 53 54 58 60 58 52 41 34 35 43 45 39 38 39 38 34 33 34 36 39 38 35 34 34 31 29 34 20 15 27 33
13 14 20 23 25 31 35 35 43 49 40 41 44 47 44 42 43 46 54 50 47 45 42 41 40 41 41 42 42 41 40 40 40 41 40 39 39 38 35 33 33 38 34 27
9 13 16 19 23 27 27 32 37 33 36 44 49 44 43 44 45 48 50 49 45 45 48 48 43 43 43 43 44 43 41 41 43 43 43 40 41 41 39 36 36 33 34 32
8 10 13 16 20 24 27 29 32 39 40 39 39 46 59 56 51 49 49 49 52 56 55 49 43 44 47 48 49 50 50 48 46 45 46 47 45 43 43 42 40 39 38 36
13 12 13 17 18 22 26 29 32 32 33 37 43 45 40 43 47 53 56 60 61 60 60 60 62 63 64 61 59 60 59 58 56 54 52 51 51 50 48 46 45 44 44 44
18 17 16 16 21 23 25 28 31 32 34 37 41 42 47 49 44 43 44 43 43 46 48 52 58 63 66 64 61 60 59 59 59 57 56 53 54 54 54 52 50 49 49 48
20 22 23 23 24 28 29 30 31 33 36 37 40 44 46 47 47 47 46 45 44 43 41 41 44 43 45 51 53 54 54 54 54 53 54 55 55 55 55 56 56 55 54 54

GFSCGP_500_spd_087.txt.gz
Wind_Speed
39 39 36 31 28 29 23 28 28 26 17 21 20 12 6 8 15 8 7 7 10 16 12 10 9 11 11 10 9 9 8 8 12 9 7 10 8 9 12 11 11 10 10 12
40 37 32 32 30 29 24 25 30 31 23 21 8 17 12 15 14 15 7 7 8 11 12 10 9 9 8 9 9 11 9 8 8 10 8 8 10 9 9 8 10 9 9 10
38 33 36 36 33 31 30 28 31 28 29 25 19 12 15 14 15 20 14 12 7 8 9 13 8 7 8 10 11 10 10 10 9 9 7 7 8 10 10 8 9 8 9 8
36 36 38 41 38 34 34 28 32 30 31 27 24 19 17 18 16 16 19 14 13 11 8 15 8 8 9 10 12 10 11 11 12 11 7 6 9 11 10 8 8 8 7 7
34 38 39 38 37 38 31 32 33 32 32 32 30 23 18 16 15 19 17 13 12 14 10 9 12 12 8 7 11 10 11 12 13 14 11 9 9 12 13 8 9 6 5 7
38 40 41 37 34 37 35 37 38 36 35 38 32 24 18 14 20 18 16 13 11 14 13 11 16 16 18 15 12 14 13 13 14 14 14 13 11 12 12 10 10 9 6 6
43 41 39 39 40 39 43 41 42 40 41 38 30 26 22 21 19 16 13 14 11 11 19 15 18 18 19 18 15 16 17 17 16 17 16 15 11 11 12 10 11 9 9 7
44 43 40 39 41 40 43 45 45 45 42 37 30 33 27 25 24 19 14 9 3 12 15 18 17 19 25 20 19 19 18 20 19 19 20 18 14 13 16 15 13 11 10 8
43 42 40 39 40 43 43 47 45 42 41 37 36 32 29 29 25 20 16 10 5 10 19 19 17 18 25 21 22 21 21 22 23 23 22 21 18 17 17 16 15 16 12 12
42 40 42 41 41 42 45 47 48 47 39 43 39 33 28 31 24 20 17 19 12 12 20 15 19 19 22 22 25 24 23 23 21 23 24 23 22 21 19 19 16 17 16 15
43 40 41 40 41 41 46 48 50 47 49 41 39 33 28 28 25 22 22 19 18 19 20 22 23 21 21 27 23 21 25 19 23 24 26 24 23 23 22 21 20 20 21 20
39 38 39 41 41 40 39 49 52 50 48 46 42 41 33 29 30 24 19 21 25 22 21 22 21 20 22 25 30 18 26 23 34 26 26 27 27 26 26 24 23 23 24 22
36 34 36 38 38 33 38 46 49 55 53 53 48 44 42 40 30 28 26 25 29 29 27 22 20 22 23 18 22 32 24 23 33 32 27 27 28 28 28 27 25 24 24 22
34 32 33 39 38 40 39 43 48 54 57 55 51 49 48 45 40 29 24 28 31 29 27 25 26 23 23 22 22 18 20 20 24 30 27 27 30 30 31 28 27 26 25 24
30 31 34 35 43 40 41 42 47 51 56 57 53 52 50 49 41 39 34 32 35 33 31 30 27 25 23 23 23 22 20 25 19 25 33 33 32 34 35 32 35 32 30 29
23 25 34 39 36 45 43 42 46 48 54 56 55 54 53 48 40 39 37 36 29 23 23 30 35 30 25 22 24 25 26 25 24 23 22 32 38 30 39 41 39 38 36 34
18 21 29 35 43 43 46 47 45 48 52 55 55 55 54 50 44 44 43 38 34 35 31 30 27 28 26 22 22 25 26 28 29 25 25 30 26 42 34 33 33 36 41 41
27 22 22 32 39 47 44 45 51 54 56 55 54 54 56 55 53 53 50 42 35 26 28 32 33 28 27 27 28 27 27 28 29 29 27 24 27 23 28 38 37 36 38 40
33 34 28 29 33 40 46 45 39 48 52 52 46 48 49 51 48 52 53 49 43 33 29 27 27 26 27 26 27 28 26 26 27 29 29 26 24 21 29 21 24 34 40 39
19 19 25 27 30 30 38 37 35 44 35 38 47 49 49 50 55 49 44 41 36 41 39 41 41 40 40 33 32 33 31 31 30 27 27 27 26 26 26 23 22 24 24 25
12 16 21 25 32 35 37 39 38 38 38 38 42 44 46 50 47 48 48 46 41 36 36 38 38 38 39 41 42 44 42 39 37 38 37 35 34 31 29 29 28 23 17 26
10 11 12 17 24 27 27 33 36 33 33 38 45 50 44 44 50 51 48 44 42 41 42 44 43 42 41 40 41 42 42 42 40 38 37 35 33 32 33 32 29 28 27 24
7 8 10 13 16 18 21 23 27 31 30 31 39 48 48 49 46 41 41 52 51 48 45 47 48 48 48 47 48 45 46 46 45 43 39 35 36 37 35 34 36 34 31 31
7 9 10 13 13 16 19 22 23 25 30 32 36 39 41 40 42 49 54 51 46 46 46 47 49 49 50 50 49 51 52 49 50 47 45 43 41 42 45 44 43 42 40 37
12 11 11 14 15 15 16 20 24 27 29 33 35 38 42 46 47 48 47 44 50 55 55 53 55 54 54 55 56 57 58 57 55 56 57 59 58 56 52 50 48 46 45 45
16 15 14 17 19 20 23 25 24 24 28 33 37 39 43 43 46 47 48 53 49 46 49 51 50 52 56 60 63 61 61 63 63 63 63 61 58 55 54 53 53 52 51 49

GFSCGP_500_spd_090.txt.gz
Wind_Speed
44 44 39 31 31 31 26 24 24 22 14 20 19 14 12 18 12 16 14 12 16 13 10 9 11 11 12 11 9 9 9 8 8 9 7 7 8 6 10 8 10 10 9 7
41 39 37 36 33 31 28 27 26 22 17 23 23 19 18 19 16 19 16 8 11 14 13 12 12 13 12 12 11 9 8 9 9 8 11 6 7 7 8 8 8 10 10 8
36 35 38 36 35 35 30 28 25 24 23 23 24 18 21 22 25 20 17 12 8 12 18 15 14 12 13 10 10 10 9 10 11 8 7 10 8 7 8 8 8 10 9 9
36 37 39 38 35 35 32 27 25 27 27 26 19 11 21 22 19 18 14 10 13 11 12 15 13 10 9 12 10 9 11 11 11 11 9 9 11 9 7 8 7 8 10 9
40 39 39 38 36 35 33 30 30 33 31 29 25 17 15 15 14 16 15 12 14 13 12 13 13 11 9 6 10 13 11 12 12 11 10 10 11 11 9 9 8 7 9 10
39 41 40 39 37 35 36 37 36 31 35 35 27 26 20 20 20 22 17 16 17 16 14 13 13 10 8 8 6 9 12 13 13 13 13 11 11 14 12 11 9 8 8 10
40 41 42 40 39 39 43 42 40 39 38 36 33 33 24 23 21 23 23 24 19 15 17 15 12 16 15 15 14 8 12 15 15 14 14 13 12 13 15 13 12 10 9 10
42 43 43 42 42 38 41 44 44 43 42 37 34 34 25 24 23 24 22 19 21 17 20 20 15 16 17 12 15 12 9 16 17 16 16 16 15 15 17 16 14 12 12 10
43 43 41 40 42 40 40 44 42 42 40 38 37 31 25 25 29 22 15 15 15 17 20 26 21 17 17 17 19 20 13 13 18 17 17 18 18 17 16 18 15 16 14 12
43 41 40 40 42 43 42 40 45 46 43 43 40 31 27 27 27 22 20 20 16 15 22 21 23 21 19 20 23 22 18 16 16 19 20 21 21 20 17 17 17 18 19 15
41 41 38 38 41 43 43 44 45 46 44 43 41 34 26 25 29 27 20 26 21 18 18 23 22 26 24 19 23 27 21 18 16 22 25 24 25 23 22 21 21 20 19 20
36 34 36 40 40 40 43 44 45 46 45 45 44 39 32 29 24 27 27 27 24 24 22 24 23 21 23 25 25 24 18 25 24 26 32 28 27 26 25 25 23 23 21 20
33 33 36 39 41 40 41 44 47 47 46 46 44 42 35 31 28 26 25 29 27 25 25 21 20 21 24 28 29 31 30 29 25 23 28 26 27 28 30 30 27 25 24 23
32 32 33 37 42 43 43 43 45 47 46 47 47 44 39 36 34 30 27 28 24 23 25 26 23 24 25 29 29 27 18 26 27 28 31 24 27 30 32 34 31 28 27 25
32 30 31 37 37 40 41 41 42 42 46 48 48 48 43 41 40 36 34 33 25 25 28 30 28 28 28 25 24 23 18 22 24 20 14 22 34 33 34 36 35 32 30 28
28 21 31 32 36 39 38 37 37 38 42 46 48 50 50 47 46 42 38 37 35 30 31 28 30 29 30 27 24 24 26 27 27 17 19 18 24 39 34 36 35 35 35 34
16 24 29 25 34 36 38 36 37 37 39 42 46 49 52 52 51 49 43 36 35 36 36 29 25 21 24 31 28 25 26 25 26 27 23 26 25 27 18 30 34 41 40 40
21 17 17 25 36 40 36 40 42 41 40 41 43 45 48 50 52 51 45 40 37 36 37 35 28 30 29 27 29 27 24 24 26 27 26 24 23 22 26 26 23 36 41 45
25 22 24 22 23 28 40 43 38 42 46 44 46 46 46 47 47 50 46 46 44 41 36 31 30 31 33 32 29 27 26 24 22 23 24 23 20 19 17 18 16 27 35 49
25 25 29 32 30 30 29 37 40 36 39 46 45 48 47 48 44 45 47 47 48 48 49 47 42 39 31 28 26 25 23 26 26 23 22 20 16 14 14 16 19 22 21 23
19 22 23 24 27 27 28 27 28 33 34 34 36 44 38 44 51 47 48 48 45 47 36 38 42 43 44 44 41 39 37 36 34 33 29 27 27 29 28 27 25 25 20 20
8 10 13 14 18 20 23 25 27 28 27 30 32 37 34 35 39 42 46 49 47 43 45 46 46 48 47 46 46 45 42 42 40 39 38 36 36 35 34 30 26 26 24 22
6 7 9 10 12 14 18 22 24 25 27 24 27 33 35 40 44 43 42 43 44 46 43 45 50 50 50 50 49 48 44 41 41 41 40 38 37 36 36 36 33 29 29 28
7 7 8 10 11 13 15 18 21 23 26 25 25 27 31 39 43 48 48 46 44 46 46 49 50 47 47 47 49 49 47 46 45 44 44 45 43 42 42 40 40 37 34 33
11 9 8 9 10 9 11 12 14 16 19 22 25 27 30 33 38 43 46 44 43 50 53 51 47 51 52 50 51 53 52 52 49 48 48 50 47 47 46 46 45 42 43 43
12 12 14 15 16 17 15 14 13 15 18 20 23 26 27 30 35 39 44 43 40 43 49 49 51 55 56 51 52 53 52 52 51 51 51 52 53 52 51 51 50 54 56 53

GFSCGP_500_spd_093.txt.gz
Wind_Speed
43 42 33 29 29 29 28 28 25 21 17 22 22 24 18 19 20 16 15 12 12 14 17 16 15 14 13 11 11 10 8 9 8 9 10 9 11 9 10 10 11 10 9 10
42 41 36 35 33 30 29 27 25 20 18 22 21 22 21 21 22 20 16 11 12 12 15 14 15 13 12 12 11 11 11 11 8 6 6 8 9 11 8 8 10 10 10 10
36 38 42 39 35 32 29 28 26 23 22 19 18 23 28 24 24 23 17 11 12 15 14 14 13 14 13 12 12 11 11 10 9 8 5 6 7 7 6 6 7 9 9 9
37 39 41 42 38 34 31 30 28 28 28 23 21 12 25 26 23 22 17 13 11 14 14 11 13 16 15 15 13 12 11 11 10 9 9 9 7 8 7 6 7 7 8 8
38 38 41 41 38 35 32 33 31 31 29 27 25 15 30 29 28 15 15 15 13 13 14 13 15 14 13 15 15 14 12 11 11 10 9 9 9 9 10 7 6 8 8 8
39 39 41 41 38 36 36 36 34 32 33 29 25 19 20 14 21 21 19 18 14 16 16 15 17 13 13 13 14 13 12 12 12 12 12 9 10 11 10 8 7 7 9 10
40 41 42 41 41 40 41 38 38 36 36 32 28 22 14 15 17 16 17 21 20 24 21 20 16 16 15 14 13 12 14 14 15 14 14 13 11 13 13 13 10 9 7 9
42 42 44 42 40 39 41 40 41 41 40 33 28 30 25 21 20 18 17 20 23 22 21 21 21 18 21 24 12 14 12 15 15 15 15 15 14 14 15 15 13 11 12 11
43 41 40 41 41 40 41 43 40 40 37 35 36 29 27 24 23 20 16 19 19 21 20 22 21 17 20 18 15 13 15 15 15 15 15 16 15 15 15 17 18 16 14 13
43 42 41 39 41 43 40 39 41 43 41 37 36 34 27 24 24 22 18 20 22 21 25 26 27 25 24 20 21 19 17 16 16 14 16 18 18 16 17 16 20 18 16 14
42 42 42 38 40 41 43 42 41 43 41 37 36 32 23 22 24 22 24 21 21 20 20 26 30 34 26 24 25 21 24 19 16 18 17 20 19 20 19 20 18 18 18 18
37 36 39 41 39 37 40 42 41 41 43 40 37 33 25 23 23 23 24 22 25 24 22 25 26 29 28 29 28 23 24 21 19 19 25 22 23 25 24 24 24 21 21 19
32 32 34 38 38 36 38 41 43 42 41 40 37 33 30 22 24 24 21 27 25 27 29 26 28 34 27 34 29 26 23 30 25 22 25 27 27 25 26 27 28 27 25 22
29 30 32 35 40 39 39 39 41 42 40 41 38 36 32 27 25 25 24 23 24 27 25 22 25 20 20 19 21 23 29 26 24 28 30 32 32 28 24 30 31 31 29 27
30 32 31 34 36 37 37 36 37 40 41 40 40 38 36 34 30 28 29 26 24 26 25 22 23 25 25 26 24 25 27 28 34 34 33 24 21 23 26 30 34 34 33 31
30 29 36 29 33 36 37 36 37 37 36 37 39 39 38 39 36 34 31 33 33 31 27 24 23 28 29 29 27 26 23 28 33 20 28 13 9 14 27 32 37 36 34 33
16 37 24 42 30 34 36 38 39 39 37 36 35 35 36 40 40 40 39 36 36 35 34 31 28 27 30 31 32 29 26 27 24 24 20 17 14 15 17 26 34 35 37 36
17 17 30 28 36 33 34 37 34 36 37 36 36 34 32 33 38 39 41 43 40 37 34 32 33 33 34 29 27 25 20 24 25 23 22 17 18 21 20 14 16 25 26 27
23 20 19 22 24 30 38 35 33 35 34 34 35 36 36 35 33 34 35 37 39 40 39 36 34 35 35 33 30 30 31 22 25 26 21 17 17 19 17 16 17 14 17 21
24 24 22 21 19 18 27 32 37 36 36 36 41 41 39 39 37 38 39 38 37 36 37 39 40 37 30 30 34 35 35 32 30 28 23 20 16 13 13 14 12 13 12 13
19 22 24 25 25 28 30 28 29 31 36 37 34 35 38 44 41 41 42 41 41 39 36 37 39 44 44 42 38 32 34 35 32 30 26 23 23 23 22 22 21 21 20 21
10 13 17 20 20 22 23 26 28 29 30 31 35 36 36 37 37 40 43 43 45 44 41 40 41 38 43 43 43 44 44 40 38 34 37 34 33 33 32 31 30 28 25 25
9 10 11 11 12 13 16 19 20 22 26 26 26 29 33 36 37 37 38 37 38 39 43 44 44 42 43 43 45 44 46 46 47 49 48 44 39 38 38 38 36 33 32 31
5 6 7 8 10 11 13 14 15 18 20 21 23 24 27 35 37 39 39 41 42 42 43 42 43 46 44 46 48 51 52 52 47 47 46 46 43 43 41 41 41 38 38 36
7 7 7 7 8 8 9 10 11 13 15 18 20 22 25 29 33 35 38 41 42 44 47 47 46 45 46 48 50 53 54 53 51 47 48 49 49 48 46 45 46 46 46 45
7 9 10 11 9 11 12 13 13 14 15 15 15 16 18 22 27 31 35 39 42 43 45 45 43 46 47 50 50 49 52 54 55 54 53 53 55 54 54 52 51 52 49 49

GFSCGP_500_spd_096.txt.gz
Wind_Speed
42 39 31 27 30 28 32 29 23 22 26 13 17 7 28 25 22 21 18 19 19 17 17 16 15 14 12 11 11 10 8 8 10 10 10 9 10 11 12 12 11 11 11 9
41 40 34 37 31 28 29 15 21 24 20 16 14 10 13 13 27 24 21 17 15 16 15 16 16 16 14 12 12 12 11 8 8 8 9 10 8 9 10 9 9 10 9 8
38 36 44 35 32 29 28 25 26 24 17 16 15 17 15 16 23 24 22 19 18 18 18 18 18 19 18 15 13 12 11 10 7 9 8 9 10 7 8 9 7 8 9 8
38 41 39 40 36 32 30 31 29 27 25 23 21 15 18 30 26 27 21 17 19 18 18 18 18 18 18 17 15 14 12 11 10 8 9 9 8 9 8 8 7 6 8 9
39 39 39 41 38 36 37 33 31 27 25 31 23 16 14 24 31 29 23 18 17 19 16 14 15 15 17 18 17 16 15 13 11 10 8 7 8 7 6 6 5 6 7 7
40 39 40 38 43 38 35 34 33 29 27 27 23 24 20 22 27 30 24 16 16 15 17 18 17 14 14 16 18 17 16 15 14 13 12 9 8 8 8 6 6 6 6 7
40 38 41 41 39 40 37 36 35 31 23 16 22 18 22 21 11 6 11 15 12 16 16 17 14 16 14 15 17 17 16 15 14 14 13 12 10 9 11 10 9 7 7 8
41 40 43 43 41 39 39 37 31 30 22 21 29 23 17 12 10 12 11 12 7 13 20 19 17 15 21 20 20 17 14 12 14 14 14 13 12 11 12 13 11 10 10 9
44 40 42 43 40 41 41 43 37 30 24 21 26 29 20 22 20 16 12 12 15 19 18 19 22 21 24 23 27 19 19 15 12 14 14 14 15 14 13 14 15 13 10 10
44 42 43 40 42 41 42 40 39 40 26 23 20 23 21 26 23 21 15 15 19 21 21 22 24 27 29 26 29 25 20 19 15 13 15 16 17 17 16 16 15 16 14 13
43 41 40 39 41 42 42 38 42 31 30 22 22 18 30 26 24 24 21 20 24 26 27 28 29 30 30 29 26 22 21 21 19 14 15 17 16 18 19 19 17 16 16 15
40 35 28 41 40 40 42 39 38 36 29 32 22 22 26 26 23 26 26 25 23 29 26 23 26 33 33 34 31 30 22 29 27 16 16 19 14 19 20 22 22 21 19 18
32 35 28 34 41 38 37 38 39 29 27 28 28 23 27 21 24 24 27 24 28 23 23 23 24 25 27 26 36 32 27 22 17 20 22 18 19 22 23 24 27 26 24 24
30 30 29 25 31 30 41 38 38 39 27 24 25 24 29 25 21 25 27 22 27 28 25 24 30 28 27 28 29 33 29 25 26 34 24 28 30 27 27 27 29 30 31 28
28 30 28 34 29 36 36 35 35 35 29 24 22 27 32 31 24 25 27 27 22 23 27 26 28 27 23 22 25 26 21 31 25 20 23 26 25 31 33 33 31 33 34 32
31 29 32 30 34 33 32 31 32 34 35 35 35 30 28 30 29 27 28 29 28 26 25 23 22 23 20 20 22 22 25 25 21 20 26 26 35 38 28 30 32 32 33 33
31 31 32 32 32 30 30 34 34 35 33 33 29 36 35 33 30 30 31 30 31 32 31 28 26 22 19 23 27 28 28 29 27 26 23 24 23 18 10 16 23 24 34 33
18 26 36 26 35 33 32 34 35 36 35 36 35 34 32 31 31 31 32 33 33 34 35 36 35 32 30 29 28 28 28 25 26 28 25 20 20 28 20 13 15 16 12 20
17 16 21 21 25 34 30 37 34 33 37 37 36 35 35 33 32 32 30 32 35 36 36 37 36 36 36 35 36 33 30 26 25 22 21 19 15 17 15 15 17 17 14 16
23 21 18 16 20 20 30 36 33 30 35 36 35 35 35 35 33 38 37 36 37 37 36 35 37 38 38 36 37 38 37 34 30 28 27 24 20 19 19 20 22 20 18 15
26 27 24 20 20 25 22 25 30 30 36 35 35 36 37 38 38 37 39 40 40 39 38 37 36 37 39 40 39 37 35 36 35 35 33 31 26 24 22 18 18 20 18 18
20 23 21 22 24 25 21 22 26 29 29 29 32 37 39 38 36 39 41 41 42 43 41 41 40 40 40 42 44 44 42 38 36 34 34 35 34 31 28 25 26 25 26 26
13 17 20 21 22 21 23 24 24 27 33 34 32 32 33 36 39 40 38 38 40 42 41 41 42 40 40 42 46 47 47 46 47 47 44 38 38 36 34 32 33 34 34 33
8 11 12 14 15 14 15 16 17 18 19 22 24 26 27 28 32 36 38 38 39 40 41 40 38 37 41 41 41 42 47 48 45 44 44 47 47 48 46 43 40 40 40 40
7 9 10 11 12 12 11 11 11 13 16 19 23 25 26 27 29 31 35 37 39 41 42 42 42 40 40 40 39 40 43 43 44 46 51 53 53 50 51 49 45 44 46 45
7 10 11 13 12 14 13 13 13 13 12 13 15 18 22 25 28 30 32 34 37 39 40 41 43 41 40 40 42 42 42 45 50 52 55 54 53 56 56 55 51 51 51 51

GFSCGP_500_spd_099.txt.gz
Wind_Speed
41 38 36 27 26 29 24 31 36 27 28 26 22 22 23 24 29 24 22 22 22 21 19 17 16 14 11 9 9 9 8 10 10 9 9 10 10 11 9 9 10 9 8 7
41 41 34 31 31 36 27 26 26 31 30 24 19 19 26 18 27 24 23 21 22 21 20 19 17 15 13 10 10 9 9 9 9 9 8 9 9 8 7 7 9 8 8 9
36 35 35 38 40 32 31 30 32 21 19 23 20 17 9 26 12 33 25 24 22 21 21 20 19 17 15 13 12 12 10 9 8 9 9 8 9 8 6 6 7 7 6 6
34 34 40 46 36 32 17 30 38 21 24 20 19 14 8 12 12 29 26 24 22 22 21 20 19 19 17 16 15 13 12 10 9 9 9 9 9 8 8 7 7 6 6 6
35 37 43 44 35 34 34 21 27 9 16 16 19 12 19 21 18 31 32 24 22 20 19 11 18 19 19 18 16 15 13 12 12 11 10 11 9 9 8 7 7 6 5 6
28 39 41 40 38 40 40 32 23 21 23 15 16 21 22 18 10 35 33 25 26 23 25 21 18 16 17 17 18 18 17 14 14 13 11 10 11 11 10 9 7 6 7 7
40 41 39 38 40 44 44 31 14 16 18 8 21 18 27 27 19 27 30 25 27 24 20 17 17 14 14 16 18 19 19 17 15 14 13 11 10 10 10 7 7 5 5 7
36 36 35 38 40 42 38 31 20 11 13 17 14 12 18 22 24 14 16 23 21 16 20 18 16 13 16 15 16 17 19 17 16 14 13 12 11 10 9 10 8 7 8 4
20 24 32 39 39 38 38 39 23 18 19 21 20 18 19 18 13 11 8 4 14 5 11 17 18 20 25 17 18 17 17 15 13 14 14 14 14 13 11 11 11 10 8 15
16 23 27 35 39 40 32 30 33 28 13 21 15 17 17 19 18 15 14 14 10 14 14 19 18 21 22 21 22 22 16 13 17 14 16 16 15 14 14 13 13 13 13 15
25 30 26 33 39 38 39 37 31 27 27 20 16 13 20 14 25 23 18 15 15 15 16 18 21 22 23 25 24 24 20 20 20 18 16 16 17 17 17 16 16 15 15 17
40 12 21 25 27 37 27 34 27 30 25 27 22 25 26 20 23 24 22 20 19 21 22 23 24 23 23 27 25 21 27 23 28 27 21 19 15 16 16 17 19 18 18 16
25 32 25 20 23 29 35 33 35 23 26 25 25 30 34 23 18 28 28 25 25 23 23 24 25 23 21 23 31 31 32 34 33 21 29 22 16 19 18 18 20 21 21 21
35 25 29 23 24 23 34 34 27 27 23 23 19 31 34 27 20 24 30 29 29 27 26 22 21 20 21 22 23 22 24 36 33 29 23 20 19 20 23 25 24 25 28 24
32 30 24 28 29 21 26 29 27 31 28 24 23 25 37 40 33 26 31 29 28 26 32 26 25 23 25 26 27 25 24 24 36 27 23 21 27 30 25 29 26 25 28 30
29 28 29 24 23 25 24 26 24 24 27 26 23 34 7 31 33 30 31 32 30 24 25 29 28 26 26 20 18 19 18 15 17 32 21 19 15 21 14 21 30 29 30 31
29 33 25 25 32 18 21 24 29 24 25 27 25 29 41 35 34 35 31 32 32 32 29 26 26 23 22 22 21 20 20 19 19 20 19 19 16 18 15 16 21 26 25 26
30 22 45 32 26 31 32 26 22 29 39 40 41 43 41 33 34 33 31 34 34 34 34 33 31 28 28 25 24 23 23 22 21 20 16 16 18 18 17 19 16 9 11 17
24 31 19 34 20 31 38 37 35 36 32 32 40 40 42 40 35 34 33 34 35 37 38 38 39 37 36 35 35 33 31 30 26 23 22 15 13 17 17 19 21 17 18 16
12 27 9 20 14 17 29 38 38 29 28 34 36 36 36 33 31 36 35 34 34 36 37 39 42 43 44 43 42 39 34 32 32 31 27 25 23 20 20 21 21 21 20 22
13 20 21 14 18 18 17 23 21 30 34 37 34 35 34 34 35 38 34 36 35 34 34 37 38 39 41 42 44 44 44 42 39 37 37 34 30 27 26 24 25 25 25 26
17 21 21 17 16 25 24 15 23 25 33 34 33 35 35 33 33 37 35 35 36 37 39 40 40 39 39 38 39 40 43 44 45 43 39 38 39 37 34 32 31 30 27 25
17 21 23 25 27 25 20 20 22 23 24 28 30 31 32 31 34 36 37 37 38 41 41 41 40 41 43 43 42 42 43 42 44 46 45 42 36 35 33 35 36 34 33 32
9 12 17 21 25 23 22 22 23 24 24 27 29 32 35 35 34 34 36 39 40 41 40 39 39 40 40 39 42 42 43 44 44 45 45 49 49 45 41 36 39 43 41 35
7 10 14 16 16 17 16 18 18 19 21 24 24 25 27 29 31 32 33 33 35 38 41 42 43 43 42 42 40 39 42 43 44 44 44 45 45 47 49 49 46 46 49 49
10 11 12 15 12 14 15 15 15 15 14 15 16 18 20 24 28 30 32 33 34 36 37 39 41 44 45 44 43 43 43 43 43 46 48 47 47 48 48 49 52 54 55 53

GFSCGP_500_spd_102.txt.gz
Wind_Speed
34 38 37 33 28 31 31 22 31 32 30 24 24 26 27 24 26 26 24 23 23 21 19 16 13 13 12 10 9 10 10 9 9 9 9 9 9 9 7 8 8 10 9 10
36 40 36 28 13 24 37 41 38 39 22 32 26 27 31 32 35 29 23 20 24 22 21 17 14 13 12 12 10 10 10 9 8 8 9 9 9 9 7 6 6 6 7 8
35 36 33 31 27 22 23 35 40 35 37 19 31 32 24 22 30 34 30 26 26 24 23 20 16 15 14 12 11 10 9 9 9 8 8 6 7 8 8 7 6 7 6 5
33 32 32 32 32 32 21 21 30 30 21 16 29 22 20 20 22 20 36 30 32 25 22 20 19 17 16 14 12 11 10 9 8 9 9 7 7 7 6 7 8 7 5 3
32 35 33 30 27 29 26 28 29 25 15 15 15 19 16 19 10 9 42 31 29 33 27 24 20 21 17 15 14 12 11 10 8 8 9 8 7 7 4 4 3 6 4 6
35 32 37 26 28 31 29 21 26 24 27 5 2 5 15 12 13 12 37 34 28 27 21 25 19 18 17 16 15 13 12 10 10 9 7 8 7 8 9 11 5 5 6 5
32 35 31 32 31 30 30 20 14 19 16 15 8 0 9 15 17 22 25 40 32 27 26 27 25 16 17 15 16 14 12 11 11 10 10 8 7 9 10 7 7 7 7 8
29 35 38 37 34 21 26 21 22 11 16 16 12 20 9 18 16 21 21 29 30 34 29 29 23 18 14 14 11 12 14 12 13 13 12 12 10 9 10 8 9 10 2 2
11 19 18 27 31 29 21 29 24 17 10 5 16 6 8 9 13 26 24 29 28 37 27 27 24 30 24 20 13 10 12 12 15 14 14 14 13 13 12 12 13 12 11 11
19 18 21 25 29 35 32 10 26 30 17 10 12 17 2 3 5 2 5 7 6 21 18 28 25 25 18 23 17 10 10 12 14 12 13 16 16 14 14 13 13 12 10 9
24 16 14 25 28 30 33 30 20 26 23 22 14 17 6 7 11 10 15 11 9 14 10 14 23 31 19 20 21 15 13 20 15 14 15 16 19 18 17 17 17 16 13 12
36 20 15 22 19 24 24 20 18 20 29 22 18 21 26 24 20 16 16 19 20 15 17 13 18 25 18 23 17 18 20 18 20 18 19 19 22 16 16 20 22 19 16 14
34 39 30 10 16 15 24 25 21 18 22 25 21 30 35 32 17 17 19 20 23 26 24 23 18 14 16 13 19 16 20 24 26 22 20 21 28 17 19 22 21 17 17 15
32 42 39 19 23 20 20 24 20 21 18 18 15 28 32 31 21 12 17 24 25 24 23 25 19 21 19 17 17 16 17 20 29 31 26 26 21 32 23 26 22 16 16 17
31 28 35 22 22 31 20 17 24 18 22 13 21 26 30 27 30 28 22 23 29 26 26 28 27 24 19 20 21 20 20 21 23 21 19 18 27 23 26 26 23 20 23 22
27 31 40 43 18 26 23 17 20 18 21 19 28 34 35 15 33 26 27 23 28 28 27 29 30 31 26 21 18 18 17 19 19 15 14 18 32 27 26 23 26 26 28 24
27 36 42 40 23 18 12 28 24 24 33 27 33 26 24 42 28 15 16 23 26 28 30 29 29 31 28 26 24 23 20 18 17 14 14 17 20 12 12 12 11 11 15 16
25 22 41 39 27 27 28 31 31 31 20 29 34 35 28 29 37 34 20 28 31 30 33 30 26 26 24 23 22 21 22 22 20 18 16 13 14 14 13 15 16 15 12 12
22 25 32 36 46 37 34 35 29 33 38 29 32 49 49 30 10 17 25 32 34 34 33 32 31 30 28 27 28 28 27 26 24 21 19 16 15 15 13 14 18 18 22 24
11 18 34 29 18 17 28 30 32 35 42 38 22 56 59 52 24 36 29 32 30 31 35 38 37 36 35 34 34 34 34 33 31 29 28 28 26 23 22 18 19 20 21 24
10 13 16 26 20 33 33 46 36 39 36 18 26 31 45 48 50 50 40 37 33 32 33 34 36 39 41 42 42 43 43 42 41 38 36 33 33 30 29 27 27 23 24 26
8 16 14 16 14 16 16 8 20 39 46 33 34 38 39 37 41 43 41 41 38 34 34 35 35 35 37 38 40 43 45 45 45 44 42 39 38 37 36 34 32 31 30 29
14 20 25 23 26 21 19 11 17 19 18 30 34 33 32 30 34 38 37 38 39 39 37 37 39 40 41 41 40 40 41 41 42 42 43 42 41 40 37 36 37 38 37 36
6 8 17 16 26 28 20 12 17 20 23 22 23 26 29 29 31 33 35 37 39 40 40 40 42 43 44 43 43 43 44 46 45 45 45 46 45 45 43 43 39 39 38 40
7 7 9 12 18 17 20 20 19 21 24 25 26 27 27 27 27 29 31 32 33 34 36 39 42 43 43 42 43 44 45 45 45 46 47 47 48 46 45 46 49 48 47 43
9 9 12 16 16 15 20 17 17 19 20 19 20 22 23 24 25 27 28 29 29 30 33 34 37 39 42 45 47 47 47 46 46 46 47 48 50 49 49 49 49 50 46 53

GFSCGP_500_spd_105.txt.gz
Wind_Speed
32 35 35 32 29 26 28 28 22 18 20 31 24 22 23 31 20 14 15 21 20 18 17 14 13 12 11 10 10 9 9 10 11 11 10 10 8 9 9 10 10 10 12 12
35 35 34 30 29 26 29 32 33 38 32 42 27 23 27 28 22 20 20 22 25 24 21 15 14 13 12 12 10 9 9 8 10 9 11 11 8 8 7 7 7 7 9 12
34 28 29 26 32 28 27 27 33 38 41 24 34 33 29 32 26 24 23 22 26 22 23 20 18 16 13 13 11 9 9 7 8 9 8 10 8 7 8 7 6 6 6 8
30 27 33 24 26 26 26 18 22 33 46 37 30 32 35 29 24 19 26 33 29 27 25 22 20 17 16 13 13 11 8 8 7 6 8 6 7 6 5 5 4 4 4 5
26 25 30 29 14 30 28 20 18 23 25 24 21 25 41 35 23 19 17 33 37 30 28 28 25 21 20 16 15 12 12 9 7 7 6 5 7 4 4 4 5 4 4 6
28 28 28 22 13 26 27 23 19 21 26 19 3 11 20 18 17 16 15 23 40 30 31 32 28 25 22 19 14 12 11 10 10 8 8 7 5 7 4 3 5 6 6 7
29 31 30 20 17 23 35 21 20 6 10 23 12 7 11 11 3 6 15 12 37 33 29 28 28 24 22 22 19 16 14 12 11 10 10 9 9 9 6 7 6 4 6 5
21 23 28 30 31 23 37 19 12 11 10 13 28 20 11 10 2 5 16 18 37 35 31 33 29 23 21 21 20 17 17 15 13 11 11 10 9 9 11 12 10 10 9 10
13 11 10 16 21 26 23 24 18 25 6 8 5 9 3 7 4 5 8 16 35 34 33 31 27 25 25 18 19 17 16 17 15 13 13 12 11 12 13 13 12 10 6 4
20 15 20 15 13 19 24 16 21 22 18 20 17 4 7 14 9 9 9 5 25 36 36 32 27 28 25 37 19 17 17 17 15 14 15 13 12 14 16 15 12 12 10 9
29 24 23 24 24 20 31 25 21 22 23 20 17 18 11 6 10 15 13 13 4 26 29 28 25 24 22 28 22 20 14 15 13 14 13 12 12 16 16 17 14 14 14 11
33 27 27 23 18 21 20 31 21 18 19 24 23 23 13 5 9 6 15 15 15 14 23 23 25 23 32 30 28 23 16 13 18 15 14 12 15 12 14 17 18 17 16 13
30 28 30 28 24 11 9 26 35 28 25 25 23 26 19 12 11 7 8 12 16 15 19 16 16 19 24 15 17 16 17 15 14 16 14 10 12 13 15 21 20 19 20 20
32 34 28 29 21 21 21 17 27 30 33 29 25 23 21 19 14 9 11 14 27 28 26 18 11 12 20 15 16 9 12 14 14 16 14 16 20 23 24 26 25 21 19 17
34 29 37 26 17 17 25 18 24 25 26 19 21 22 26 27 24 17 20 15 13 22 23 20 16 14 16 21 7 13 12 12 13 15 13 11 16 21 22 16 27 24 23 19
22 33 37 47 33 21 21 21 26 25 25 18 22 22 24 24 16 23 24 29 26 21 26 24 22 17 16 16 14 15 16 12 10 11 11 11 12 14 15 21 22 28 26 26
22 23 35 35 45 28 33 28 25 21 28 18 27 24 26 27 26 29 32 31 26 25 25 26 25 23 21 17 20 17 16 14 14 14 12 10 10 9 12 15 25 27 23 23
15 26 28 31 39 32 33 29 25 27 31 30 31 32 33 29 26 34 26 17 24 22 20 23 25 24 24 24 25 23 24 21 21 19 16 15 13 10 10 12 15 17 14 11
20 23 25 22 40 41 37 34 30 35 31 34 40 45 39 35 28 30 38 22 24 23 25 26 29 27 23 24 27 24 24 23 23 21 20 17 15 13 12 13 12 13 14 13
16 19 23 25 37 44 37 37 30 36 33 26 29 22 29 39 46 42 18 31 36 30 27 28 28 30 32 32 34 32 30 30 28 26 25 23 22 21 19 19 20 21 20 19
11 13 17 25 34 38 31 32 34 35 40 35 29 27 23 26 28 40 40 30 27 26 26 26 28 31 33 36 37 38 38 38 35 34 32 32 31 30 28 28 27 27 24 24
8 5 8 18 28 21 28 22 38 34 37 40 39 37 44 50 25 18 19 27 29 31 37 35 32 33 34 36 37 40 41 40 41 41 40 39 39 36 36 34 34 32 33 32
8 4 9 10 11 10 2 17 18 28 26 34 39 50 19 31 19 21 25 33 41 36 38 39 37 36 37 38 39 40 42 41 41 41 41 40 40 38 38 36 37 37 38 38
8 7 15 16 18 15 11 14 10 7 10 24 34 40 44 44 36 29 28 31 37 34 36 40 41 41 42 43 43 44 44 43 44 44 44 44 44 44 43 42 42 41 41 41
2 6 8 10 14 12 11 12 13 14 15 15 20 26 32 31 27 24 24 24 27 31 35 39 41 41 42 43 45 46 46 46 47 47 47 49 49 49 49 49 48 46 47 47
7 5 8 8 9 7 9 10 11 14 14 17 23 24 27 31 32 30 30 28 27 29 31 33 35 37 39 41 44 46 48 49 49 48 48 49 50 51 51 51 52 53 53 52

GFSCGP_500_spd_108.txt.gz
Wind_Speed
38 36 32 27 24 32 32 30 24 16 16 30 20 19 17 15 16 17 17 17 13 14 13 13 10 9 8 7 10 13 12 13 15 16 13 13 11 10 11 10 11 13 13 15
35 32 27 28 32 35 32 28 29 31 25 28 28 28 19 17 19 17 16 16 14 18 16 15 14 12 11 9 10 11 13 11 12 13 13 13 10 10 9 9 9 9 8 12
31 26 28 30 32 30 28 23 29 34 31 33 18 41 22 19 15 21 17 20 16 18 17 17 16 15 14 12 10 10 12 11 12 11 10 11 10 9 9 10 8 9 9 8
27 26 26 30 29 26 29 26 23 21 34 31 37 28 41 32 29 27 20 19 18 13 18 19 18 18 18 15 13 12 11 10 10 11 10 12 10 9 7 9 7 7 8 6
28 27 24 28 25 24 26 27 22 16 19 24 30 39 39 49 29 22 18 20 25 22 20 24 22 22 20 19 17 14 13 12 10 9 8 11 10 6 7 6 9 6 7 7
27 28 27 28 22 19 22 23 33 13 15 17 19 37 24 31 31 26 28 24 25 22 24 26 25 25 24 20 18 16 15 13 12 10 9 9 9 8 7 6 7 7 7 9
27 29 30 28 25 21 23 23 26 2 2 5 14 14 7 25 30 39 31 23 15 25 26 26 24 28 24 24 20 17 17 16 14 12 11 11 8 7 7 6 7 8 8 8
22 29 27 25 22 21 21 10 15 13 2 3 6 21 14 16 34 28 30 34 22 23 32 28 29 32 29 25 23 21 18 16 16 16 14 13 12 11 9 8 8 7 8 8
18 28 35 21 16 23 19 15 15 15 5 2 3 18 23 16 24 15 15 22 23 32 33 31 29 30 26 27 25 23 21 20 18 17 16 14 13 12 11 12 11 9 10 7
22 32 33 34 19 16 22 19 22 22 19 16 11 1 1 9 14 13 13 14 20 33 37 36 30 33 24 24 27 26 22 22 18 19 18 16 15 15 13 12 12 12 10 10
26 28 26 25 27 21 21 22 18 17 13 18 17 20 14 2 8 0 16 10 24 38 38 33 32 30 28 24 26 22 22 23 23 19 18 15 14 15 14 14 15 14 14 14
33 28 30 24 20 21 19 21 18 17 12 16 16 16 6 2 3 9 11 16 18 32 34 35 32 28 27 35 32 27 25 20 18 18 16 16 13 15 13 16 16 16 16 15
34 29 26 28 21 21 23 30 27 25 21 16 18 18 17 11 4 4 9 12 17 17 33 30 31 27 24 24 24 38 25 22 17 20 16 19 13 15 12 12 14 15 20 18
30 30 31 30 31 29 26 31 37 30 25 23 20 20 21 24 12 8 10 13 16 15 13 24 19 29 28 22 20 29 27 30 20 20 17 11 9 15 14 13 16 17 18 18
32 32 37 34 34 27 27 31 33 37 34 32 25 26 26 25 28 22 14 16 15 18 16 17 19 21 19 18 21 26 28 26 28 19 13 8 11 14 18 16 19 19 25 20
24 36 39 32 37 33 31 33 37 39 37 35 32 29 27 30 25 26 26 11 15 19 26 19 15 14 17 16 27 32 20 22 21 17 14 16 16 15 16 17 20 19 25 24
18 23 38 42 35 19 20 35 32 32 28 33 33 31 29 30 23 21 17 14 15 18 20 23 24 25 16 28 33 27 28 18 18 16 15 15 13 11 12 13 15 18 23 26
16 21 20 35 31 37 21 22 25 28 23 32 33 33 31 31 32 25 24 26 26 26 25 28 27 31 35 27 20 21 13 16 15 14 15 16 16 12 13 13 14 14 15 21
14 17 23 27 34 32 41 34 28 28 29 34 38 30 32 36 32 31 29 25 23 27 28 31 33 29 29 26 18 21 20 21 23 22 20 20 19 17 19 18 16 16 18 18
11 20 23 28 32 37 36 41 35 29 34 32 28 31 36 33 36 33 28 21 26 31 30 32 29 27 26 25 23 22 19 22 26 22 22 25 21 22 23 22 21 20 21 22
10 12 18 19 25 35 45 40 39 31 34 34 36 36 38 31 34 42 40 33 35 34 32 29 27 28 27 26 26 26 25 28 29 29 27 25 25 28 26 26 27 25 24 26
11 12 12 21 24 29 40 44 40 43 35 45 39 36 39 39 26 44 46 38 36 44 39 30 25 25 27 28 30 31 32 32 33 34 34 36 37 37 36 35 37 35 34 34
6 9 2 6 9 17 24 23 34 29 28 35 37 33 29 40 30 32 33 24 19 17 25 25 25 24 29 33 33 35 37 38 40 42 43 42 41 42 40 40 39 37 37 37
6 4 3 4 5 6 11 8 8 10 22 35 39 39 42 45 41 38 35 21 19 16 25 36 36 37 39 43 42 39 40 41 43 45 44 45 45 44 44 42 42 41 40 40
1 2 3 5 7 12 15 14 15 13 10 11 22 23 20 21 20 17 14 11 15 21 24 32 39 42 38 39 42 42 43 45 47 48 49 48 48 48 48 48 48 49 47 46
3 3 3 4 5 9 9 9 14 18 18 19 19 19 20 23 19 19 16 20 22 25 26 27 29 33 37 41 44 44 45 46 48 50 51 52 51 51 51 51 51 50 51 50

GFSCGP_500_spd_111.txt.gz
Wind_Speed
34 33 31 27 27 28 33 31 27 18 26 16 33 33 23 22 23 24 12 12 14 16 12 11 11 11 12 12 10 10 10 12 12 15 15 14 14 15 15 14 13 15 17 17
30 25 27 32 33 32 34 28 28 26 26 19 24 28 37 26 21 23 15 14 13 18 14 13 13 11 13 12 12 9 9 12 12 13 15 14 13 13 11 11 12 14 14 13
26 26 32 33 33 33 32 32 29 31 32 21 29 22 46 24 24 22 16 15 14 14 17 15 15 14 12 12 13 10 9 10 11 12 11 13 13 12 12 9 9 10 10 12
28 30 29 32 31 30 31 32 30 21 28 25 31 26 39 44 26 28 19 22 16 12 23 19 16 16 13 12 13 12 10 10 11 10 11 11 11 11 10 11 11 9 7 7
27 29 29 29 26 30 32 30 25 28 18 21 24 25 33 46 29 29 24 16 18 15 22 21 19 17 15 14 14 14 12 10 11 10 11 11 10 11 11 9 11 10 8 6
22 26 27 26 30 30 31 29 25 25 11 15 17 20 25 28 30 40 32 30 20 23 22 26 23 20 18 17 16 14 13 12 10 11 12 11 10 8 9 10 10 9 9 8
19 27 27 29 30 30 29 25 20 18 16 9 10 17 16 21 35 39 37 25 27 23 24 25 24 23 20 18 18 17 16 14 12 12 11 11 11 10 9 9 9 9 8 9
20 29 32 30 27 19 23 27 27 24 13 3 4 11 14 9 27 37 40 30 32 19 30 26 27 29 27 22 20 18 18 15 14 13 11 11 11 11 9 9 7 9 8 8
23 30 32 29 23 22 16 19 23 24 25 13 7 6 17 10 8 27 41 40 32 30 24 30 30 31 29 24 23 22 21 20 19 17 16 15 13 13 11 10 8 10 9 9
23 34 30 34 27 27 20 14 18 17 16 16 10 10 4 7 10 29 37 34 30 35 33 36 32 28 27 26 27 25 24 22 20 19 19 19 18 16 15 13 11 13 12 15
24 37 32 28 28 23 27 28 25 20 16 24 16 9 18 12 6 3 16 31 29 28 34 34 33 25 25 29 30 28 27 26 26 24 24 22 22 19 17 16 15 14 13 14
31 33 37 36 27 25 19 22 23 22 17 17 18 10 14 4 4 9 11 16 23 29 33 35 30 34 30 30 28 29 29 29 28 28 25 24 22 20 20 20 18 17 16 16
35 35 38 39 39 32 26 24 25 20 19 19 22 15 16 14 6 1 5 12 10 17 32 39 39 41 33 36 32 26 29 26 26 28 25 26 26 26 17 22 20 19 18 18
34 36 32 37 34 34 33 27 28 25 23 21 22 17 15 14 16 11 9 6 7 6 24 36 40 34 38 35 31 32 37 29 30 29 30 30 32 23 16 24 17 18 17 18
37 38 38 41 36 33 36 30 31 31 28 25 19 17 14 13 17 15 16 9 9 9 14 21 35 35 32 35 30 29 31 30 38 30 24 22 18 22 26 25 22 20 19 17
38 33 40 38 37 44 40 30 25 29 32 31 27 24 20 19 17 16 17 20 12 9 15 11 15 25 43 42 33 34 29 33 43 33 28 28 22 21 24 24 24 21 21 22
15 19 31 38 44 42 42 31 25 25 34 36 36 33 28 24 23 25 20 17 18 15 14 15 17 22 23 23 28 27 35 37 40 39 41 29 29 20 16 22 24 23 24 25
18 16 18 24 40 42 41 31 28 27 27 37 38 37 34 34 26 25 25 24 20 18 18 17 15 17 12 18 25 32 35 39 42 33 32 31 23 16 16 20 21 20 20 22
16 15 19 23 36 44 35 38 32 30 28 21 32 34 32 32 29 26 27 29 27 24 24 22 23 18 16 20 22 25 34 38 42 34 28 9 8 13 17 19 19 20 21 22
13 20 22 27 26 37 42 34 24 29 29 32 30 33 31 29 26 28 29 28 29 25 25 26 25 24 27 26 21 19 18 23 18 29 26 16 17 21 22 22 23 25 24 23
11 12 15 22 27 31 35 36 34 35 31 31 33 31 36 36 32 32 32 31 31 29 27 30 29 27 26 26 29 25 24 26 21 19 18 21 20 26 25 24 28 24 21 23
6 5 9 11 23 28 32 35 35 31 36 33 39 37 35 34 32 33 34 38 35 34 33 30 33 32 31 28 25 23 21 23 22 21 18 23 22 24 21 23 27 28 29 31
7 2 3 5 14 21 21 26 27 33 36 37 31 38 38 39 37 35 38 40 27 30 33 36 41 32 30 25 20 19 21 24 26 28 29 30 34 30 33 36 36 38 39 41
2 1 1 5 6 13 14 15 16 18 32 37 40 37 34 46 38 41 26 34 45 25 24 20 38 46 32 28 29 27 28 31 33 35 37 39 41 43 43 43 44 43 43 41
6 5 3 3 9 9 10 6 8 6 11 23 28 32 30 33 33 32 31 19 14 7 4 12 13 27 33 38 37 36 34 36 36 37 40 41 42 43 44 45 45 45 45 46
2 5 4 4 6 9 7 7 7 10 13 15 17 19 22 24 22 18 19 17 11 10 16 16 17 27 34 39 45 46 45 42 42 43 44 46 48 49 49 50 50 50 50 50

GFSCGP_500_spd_114.txt.gz
Wind_Speed
24 22 19 27 28 28 29 31 29 28 26 11 23 33 35 28 28 24 20 21 20 17 14 13 12 12 13 12 11 12 12 12 15 16 16 15 17 18 18 18 18 17 18 19
19 17 24 28 30 28 27 34 31 30 28 24 22 27 37 28 28 26 25 22 25 21 16 16 15 14 14 14 13 12 13 11 12 12 14 14 14 14 17 15 16 17 15 16
21 23 28 31 31 28 26 32 31 30 31 28 22 23 35 32 33 31 25 23 26 25 21 19 18 17 17 15 14 13 11 10 11 10 10 11 13 12 12 13 14 14 13 14
25 30 30 31 30 27 24 27 31 30 29 31 29 27 21 35 39 28 26 23 24 27 25 22 20 17 18 17 15 14 11 10 11 12 11 8 8 9 11 12 13 14 13 14
23 31 30 29 27 27 22 28 27 27 27 27 24 28 26 31 39 34 31 24 24 24 24 22 21 20 17 18 16 14 14 11 10 11 11 11 9 10 10 11 13 12 13 12
21 26 26 25 26 25 23 24 27 22 25 26 23 22 23 32 42 44 28 28 25 26 22 28 25 23 19 17 16 14 13 15 12 8 10 11 12 10 10 10 10 10 11 10
20 21 21 23 26 25 23 24 27 23 22 22 21 20 21 22 31 33 33 19 23 22 23 27 24 23 22 19 17 15 14 13 14 14 10 12 12 10 10 10 10 10 11 11
20 21 21 23 23 22 22 24 23 21 19 20 14 15 13 14 17 29 23 21 33 28 26 24 26 26 25 23 20 17 17 15 15 15 15 14 13 12 12 11 11 10 9 10
21 21 24 23 26 25 24 21 22 22 21 21 12 10 8 20 13 23 30 32 34 31 30 25 30 26 28 24 23 21 19 18 18 15 14 15 16 14 12 11 12 11 11 9
18 21 26 29 28 28 25 21 23 19 18 21 23 13 8 15 13 16 27 26 34 36 31 27 33 29 28 27 27 24 22 21 20 18 18 16 16 15 14 14 14 13 13 12
25 27 29 31 28 29 29 28 23 20 18 15 22 20 15 5 2 5 15 30 33 35 35 26 30 33 30 29 32 28 26 24 23 22 21 21 20 19 18 18 17 16 15 13
28 30 30 28 30 30 27 29 28 24 18 16 21 14 8 11 7 6 2 12 33 33 34 33 39 29 35 33 36 31 29 29 27 25 23 24 22 22 22 21 22 18 17 16
27 32 36 34 36 34 29 29 31 30 24 21 20 14 11 8 11 9 5 6 12 29 34 27 39 33 41 35 35 32 31 32 30 27 25 26 26 26 28 27 27 23 20 20
32 36 36 40 36 34 31 30 27 29 27 22 22 20 18 13 10 9 6 4 9 12 21 30 34 44 32 25 31 31 30 27 29 29 27 29 29 31 31 27 26 27 23 22
28 30 40 39 38 40 28 34 32 28 28 25 21 20 19 18 17 16 14 9 9 3 1 18 27 43 39 42 37 32 30 26 28 30 27 29 32 34 33 32 23 24 24 23
21 25 39 36 49 45 35 38 35 29 28 28 26 20 19 17 25 18 21 18 15 11 4 4 27 40 40 40 31 28 34 35 33 35 32 33 35 33 30 31 30 27 25 25
21 17 30 47 48 52 47 42 39 33 25 31 29 25 22 19 18 19 22 20 15 14 9 6 9 9 17 22 35 39 41 36 39 32 38 40 40 29 27 22 31 33 30 31
19 17 13 32 36 39 40 44 40 35 27 29 31 29 30 23 21 21 22 21 14 15 15 11 11 8 12 6 21 26 43 39 37 39 34 37 39 34 32 33 39 36 29 29
18 11 12 15 35 42 37 35 42 38 34 27 27 31 36 32 28 26 22 19 19 19 17 16 17 11 10 13 16 19 25 40 42 34 34 40 41 41 39 32 29 24 26 29
14 13 15 20 21 31 37 42 41 39 35 30 29 30 32 33 27 24 24 24 22 23 23 22 21 20 21 22 20 21 21 21 32 34 41 37 40 30 31 28 29 25 28 27
14 16 13 15 20 21 23 31 38 45 26 30 26 24 28 23 23 21 23 27 25 28 26 24 23 23 24 25 26 25 23 14 15 24 24 34 40 37 24 30 26 25 29 32
7 6 8 10 16 22 22 21 21 26 25 29 26 25 23 23 26 26 29 30 25 25 25 25 25 25 22 26 27 26 27 27 33 32 27 19 32 25 28 33 31 33 25 21
4 3 5 7 13 13 20 14 15 23 26 28 31 35 32 28 27 26 29 28 26 28 29 28 30 28 30 25 29 26 24 24 24 23 30 23 18 29 18 18 22 24 24 27
4 6 4 5 3 10 13 15 19 22 24 28 32 33 34 33 28 31 32 32 32 24 24 34 28 26 24 30 33 34 32 29 22 24 27 30 32 33 30 27 29 31 31 36
4 3 3 3 5 3 7 11 10 11 17 23 26 30 32 31 32 27 29 30 30 22 27 17 21 14 15 25 31 37 38 33 33 34 34 34 35 37 36 38 39 41 43 44
5 3 0 2 7 6 5 6 12 7 7 9 16 20 23 27 28 27 23 18 13 17 18 16 15 14 19 25 30 36 42 39 43 41 41 41 39 40 41 41 43 44 46 47

GFSCGP_500_spd_120.txt.gz
Wind_Speed
15 17 17 19 18 17 17 20 21 19 22 21 18 13 13 16 21 23 20 16 16 16 15 13 12 11 12 13 14 13 14 14 16 19 18 18 20 20 21 20 19 22 24 23
16 15 21 21 20 18 17 18 22 22 22 23 22 22 17 13 21 23 21 20 18 17 16 16 14 13 13 14 15 15 14 15 14 18 18 19 21 21 20 21 20 21 22 17
18 22 21 23 20 19 17 16 21 19 21 22 24 24 24 24 17 20 26 24 22 21 19 18 17 15 14 15 16 16 14 15 15 16 17 17 19 22 21 21 20 21 19 19
22 19 19 19 19 18 17 19 19 18 19 21 24 25 23 24 25 19 26 28 30 26 21 21 19 17 16 16 18 18 17 14 14 15 16 17 18 20 21 19 19 18 18 17
20 18 17 18 20 18 20 18 17 17 20 22 21 26 22 20 21 19 21 35 36 28 25 23 20 20 18 17 18 19 18 17 15 14 13 14 15 15 17 18 19 18 17 16
13 12 12 18 17 19 19 20 19 19 22 21 19 21 16 19 21 19 21 25 36 33 29 26 24 23 20 18 18 19 20 18 18 17 15 14 14 14 14 14 15 16 16 15
10 11 13 16 18 17 17 16 15 18 21 16 16 12 9 13 17 23 20 26 36 34 30 28 27 23 23 21 20 20 20 21 21 19 17 15 15 15 14 13 12 13 13 13
9 11 14 17 16 16 17 17 14 13 12 16 18 10 10 13 16 18 18 30 39 39 32 29 27 28 29 26 24 23 22 21 20 18 18 16 16 16 15 15 13 13 13 12
9 13 13 15 16 17 15 18 17 19 19 21 13 12 12 13 11 19 21 23 29 37 35 30 31 31 32 29 27 26 24 22 21 20 19 17 16 16 14 14 14 13 13 14
13 13 16 15 17 19 18 19 16 19 17 16 13 15 19 9 12 15 21 22 29 40 38 31 32 32 34 34 32 29 26 24 22 20 19 18 18 16 14 14 13 14 15 14
17 14 16 15 17 15 20 20 18 19 17 18 12 16 21 15 14 6 18 21 33 33 46 38 35 33 38 38 35 32 29 26 24 23 22 21 21 19 17 16 15 15 15 14
21 18 17 12 25 26 26 20 20 21 18 19 24 20 27 22 12 9 9 25 29 33 47 40 36 35 38 38 36 34 33 30 28 27 25 24 22 21 20 20 19 18 17 18
15 17 21 18 21 22 29 29 28 26 28 28 22 18 25 25 19 14 5 8 32 34 34 40 43 38 41 38 38 36 34 33 32 29 28 26 25 24 22 20 21 21 22 21
16 14 18 21 23 28 22 36 33 33 26 23 22 21 20 27 24 14 3 7 14 35 38 41 46 51 43 38 39 36 35 36 34 32 30 29 27 26 24 23 23 23 23 23
16 17 22 20 37 39 30 35 34 35 36 33 24 24 28 24 13 19 8 11 4 4 33 53 50 57 47 42 40 43 37 35 34 34 33 32 32 28 27 26 25 25 25 26
19 21 21 22 23 32 40 44 33 40 39 35 31 27 22 22 21 20 18 13 11 7 3 11 41 52 47 48 43 40 39 37 35 33 33 34 34 32 30 28 24 25 24 24
20 19 18 17 23 25 31 34 41 39 38 36 31 29 20 21 25 21 20 13 13 8 4 3 4 29 48 50 46 45 48 37 35 33 35 33 32 30 31 31 25 25 28 30
19 16 17 17 21 21 21 33 39 41 41 34 33 26 20 19 27 20 24 16 14 8 8 10 10 7 34 53 43 44 44 37 33 32 33 39 34 32 33 32 32 34 34 34
10 9 14 16 16 18 18 18 29 36 38 42 32 23 23 20 24 26 20 20 19 15 14 13 16 13 18 36 36 37 42 40 35 38 39 40 40 42 37 40 33 33 28 29
8 10 12 9 15 11 11 10 17 25 29 43 25 16 21 20 23 30 28 21 22 19 17 14 12 12 15 5 11 20 25 32 40 32 34 32 41 35 41 25 31 32 27 35
13 11 9 9 12 10 6 6 15 19 21 25 27 25 23 23 19 22 29 20 20 16 15 15 15 11 5 8 10 13 14 19 18 14 28 25 31 30 24 35 38 41 37 37
16 10 7 7 8 8 6 7 12 17 20 24 27 29 24 23 22 21 21 17 17 19 19 19 18 16 17 14 16 17 18 14 15 15 15 18 17 23 31 33 38 32 29 30
9 9 7 6 6 7 8 9 10 16 20 19 23 28 27 19 23 25 29 22 19 18 19 17 22 25 14 17 21 20 16 16 18 18 20 21 27 25 27 24 27 31 36 30
11 9 9 6 5 5 7 11 13 14 14 19 21 21 22 29 25 20 27 18 18 14 12 12 12 15 16 20 23 23 22 23 19 18 21 22 20 24 24 25 24 25 32 30
11 9 6 6 3 2 3 7 11 13 13 14 18 16 19 23 28 22 14 7 10 10 11 15 13 16 11 7 11 19 21 25 26 27 26 28 29 28 29 26 24 25 32 28
11 8 4 3 5 6 8 6 11 13 13 15 15 14 12 13 16 14 14 15 15 14 13 16 10 9 14 15 13 12 15 20 20 23 24 27 29 30 29 30 29 29 30 34